<?xml version="1.0" encoding="UTF-8" standalone="no" ?>
<gpx xmlns="http://www.topografix.com/GPX/1/1" xmlns:xsi="http://www.w3.org/2001/XMLSchema-instance" xsi:schemaLocation="http://www.topografix.com/GPX/1/1 http://www.topografix.com/GPX/1/1/gpx.xsd" version="1.1" creator="VisuGPX - https://www.visugpx.com">
  <metadata>
    <name>jour4</name>
  </metadata>
  <trk>
    <name><![CDATA[J4]]></name>
    <extensions>
      <line xmlns="http://www.topografix.com/GPX/gpx_style/0/2">
        <color>0000FF</color>
        <width>4</width>
      </line>
    </extensions>
    <trkseg>
      <trkpt lat="42.28826" lon="0.5343">
        <ele>750.13</ele>
        <time>2021-08-02T08:42:58Z</time>
      </trkpt>
      <trkpt lat="42.28826" lon="0.5343">
        <ele>750.13</ele>
        <time>2021-08-02T08:42:58Z</time>
      </trkpt>
      <trkpt lat="42.28819" lon="0.53433">
        <ele>749.77</ele>
        <time>2021-08-02T08:42:59Z</time>
      </trkpt>
      <trkpt lat="42.2875" lon="0.53442">
        <ele>748.95</ele>
        <time>2021-08-02T08:43:05Z</time>
      </trkpt>
      <trkpt lat="42.28596" lon="0.53457">
        <ele>749</ele>
        <time>2021-08-02T08:43:13Z</time>
      </trkpt>
      <trkpt lat="42.28555" lon="0.53463">
        <ele>748.12</ele>
        <time>2021-08-02T08:43:15Z</time>
      </trkpt>
      <trkpt lat="42.28484" lon="0.53514">
        <ele>744.16</ele>
        <time>2021-08-02T08:43:19Z</time>
      </trkpt>
      <trkpt lat="42.28453" lon="0.53547">
        <ele>741.51</ele>
        <time>2021-08-02T08:43:21Z</time>
      </trkpt>
      <trkpt lat="42.28402" lon="0.53572">
        <ele>736.49</ele>
        <time>2021-08-02T08:43:24Z</time>
      </trkpt>
      <trkpt lat="42.28366" lon="0.53569">
        <ele>732.41</ele>
        <time>2021-08-02T08:43:26Z</time>
      </trkpt>
      <trkpt lat="42.28336" lon="0.53552">
        <ele>728.32</ele>
        <time>2021-08-02T08:43:28Z</time>
      </trkpt>
      <trkpt lat="42.28313" lon="0.53524">
        <ele>724.24</ele>
        <time>2021-08-02T08:43:30Z</time>
      </trkpt>
      <trkpt lat="42.28294" lon="0.5349">
        <ele>720.32</ele>
        <time>2021-08-02T08:43:32Z</time>
      </trkpt>
      <trkpt lat="42.28286" lon="0.5347">
        <ele>718.47</ele>
        <time>2021-08-02T08:43:33Z</time>
      </trkpt>
      <trkpt lat="42.28263" lon="0.53405">
        <ele>713.35</ele>
        <time>2021-08-02T08:43:36Z</time>
      </trkpt>
      <trkpt lat="42.28237" lon="0.53342">
        <ele>709.08</ele>
        <time>2021-08-02T08:43:39Z</time>
      </trkpt>
      <trkpt lat="42.28211" lon="0.53278">
        <ele>705.18</ele>
        <time>2021-08-02T08:43:42Z</time>
      </trkpt>
      <trkpt lat="42.28186" lon="0.53218">
        <ele>700.95</ele>
        <time>2021-08-02T08:43:45Z</time>
      </trkpt>
      <trkpt lat="42.28163" lon="0.5316">
        <ele>696.73</ele>
        <time>2021-08-02T08:43:48Z</time>
      </trkpt>
      <trkpt lat="42.28138" lon="0.53101">
        <ele>692.76</ele>
        <time>2021-08-02T08:43:51Z</time>
      </trkpt>
      <trkpt lat="42.28114" lon="0.53042">
        <ele>689.43</ele>
        <time>2021-08-02T08:43:54Z</time>
      </trkpt>
      <trkpt lat="42.28098" lon="0.53005">
        <ele>687.32</ele>
        <time>2021-08-02T08:43:56Z</time>
      </trkpt>
      <trkpt lat="42.28056" lon="0.52947">
        <ele>683.2</ele>
        <time>2021-08-02T08:44:00Z</time>
      </trkpt>
      <trkpt lat="42.27976" lon="0.52922">
        <ele>680.54</ele>
        <time>2021-08-02T08:44:05Z</time>
      </trkpt>
      <trkpt lat="42.27929" lon="0.5294">
        <ele>680.01</ele>
        <time>2021-08-02T08:44:08Z</time>
      </trkpt>
      <trkpt lat="42.2787" lon="0.52979">
        <ele>679.11</ele>
        <time>2021-08-02T08:44:12Z</time>
      </trkpt>
      <trkpt lat="42.27807" lon="0.5306">
        <ele>678.73</ele>
        <time>2021-08-02T08:44:17Z</time>
      </trkpt>
      <trkpt lat="42.27741" lon="0.53191">
        <ele>678.77</ele>
        <time>2021-08-02T08:44:24Z</time>
      </trkpt>
      <trkpt lat="42.27657" lon="0.5323">
        <ele>678.7</ele>
        <time>2021-08-02T08:44:30Z</time>
      </trkpt>
      <trkpt lat="42.27625" lon="0.5322">
        <ele>678.66</ele>
        <time>2021-08-02T08:44:32Z</time>
      </trkpt>
      <trkpt lat="42.27474" lon="0.5316">
        <ele>678.84</ele>
        <time>2021-08-02T08:44:41Z</time>
      </trkpt>
      <trkpt lat="42.27418" lon="0.53106">
        <ele>677.78</ele>
        <time>2021-08-02T08:44:45Z</time>
      </trkpt>
      <trkpt lat="42.27269" lon="0.5287">
        <ele>674.31</ele>
        <time>2021-08-02T08:44:57Z</time>
      </trkpt>
      <trkpt lat="42.27142" lon="0.52675">
        <ele>672.03</ele>
        <time>2021-08-02T08:45:07Z</time>
      </trkpt>
      <trkpt lat="42.2702" lon="0.52552">
        <ele>669.85</ele>
        <time>2021-08-02T08:45:15Z</time>
      </trkpt>
      <trkpt lat="42.26912" lon="0.52405">
        <ele>671.43</ele>
        <time>2021-08-02T08:45:23Z</time>
      </trkpt>
      <trkpt lat="42.26833" lon="0.52346">
        <ele>672.17</ele>
        <time>2021-08-02T08:45:28Z</time>
      </trkpt>
      <trkpt lat="42.26747" lon="0.52327">
        <ele>672.36</ele>
        <time>2021-08-02T08:45:33Z</time>
      </trkpt>
      <trkpt lat="42.2663" lon="0.52238">
        <ele>673.42</ele>
        <time>2021-08-02T08:45:41Z</time>
      </trkpt>
      <trkpt lat="42.26604" lon="0.5221">
        <ele>673.54</ele>
        <time>2021-08-02T08:45:43Z</time>
      </trkpt>
      <trkpt lat="42.26536" lon="0.52066">
        <ele>673.39</ele>
        <time>2021-08-02T08:45:50Z</time>
      </trkpt>
      <trkpt lat="42.26496" lon="0.51984">
        <ele>673.05</ele>
        <time>2021-08-02T08:45:54Z</time>
      </trkpt>
      <trkpt lat="42.26324" lon="0.51791">
        <ele>669.87</ele>
        <time>2021-08-02T08:46:06Z</time>
      </trkpt>
      <trkpt lat="42.26263" lon="0.51726">
        <ele>667.48</ele>
        <time>2021-08-02T08:46:10Z</time>
      </trkpt>
      <trkpt lat="42.2619" lon="0.51695">
        <ele>665.18</ele>
        <time>2021-08-02T08:46:14Z</time>
      </trkpt>
      <trkpt lat="42.26071" lon="0.51708">
        <ele>662.25</ele>
        <time>2021-08-02T08:46:20Z</time>
      </trkpt>
      <trkpt lat="42.25955" lon="0.51775">
        <ele>658.37</ele>
        <time>2021-08-02T08:46:27Z</time>
      </trkpt>
      <trkpt lat="42.2594" lon="0.51784">
        <ele>657.78</ele>
        <time>2021-08-02T08:46:28Z</time>
      </trkpt>
      <trkpt lat="42.25869" lon="0.51785">
        <ele>656.15</ele>
        <time>2021-08-02T08:46:32Z</time>
      </trkpt>
      <trkpt lat="42.25781" lon="0.51748">
        <ele>655.3</ele>
        <time>2021-08-02T08:46:37Z</time>
      </trkpt>
      <trkpt lat="42.2567" lon="0.51659">
        <ele>652.63</ele>
        <time>2021-08-02T08:46:45Z</time>
      </trkpt>
      <trkpt lat="42.25657" lon="0.51628">
        <ele>648.14</ele>
        <time>2021-08-02T08:46:49Z</time>
      </trkpt>
      <trkpt lat="42.25655" lon="0.5158">
        <ele>642.58</ele>
        <time>2021-08-02T08:46:55Z</time>
      </trkpt>
      <trkpt lat="42.25654" lon="0.51564">
        <ele>641.55</ele>
        <time>2021-08-02T08:46:57Z</time>
      </trkpt>
      <trkpt lat="42.25663" lon="0.51513">
        <ele>640.38</ele>
        <time>2021-08-02T08:47:02Z</time>
      </trkpt>
      <trkpt lat="42.25697" lon="0.51388">
        <ele>640.25</ele>
        <time>2021-08-02T08:47:13Z</time>
      </trkpt>
      <trkpt lat="42.25714" lon="0.51352">
        <ele>640.28</ele>
        <time>2021-08-02T08:47:18Z</time>
      </trkpt>
      <trkpt lat="42.25701" lon="0.51331">
        <ele>640.28</ele>
        <time>2021-08-02T08:47:24Z</time>
      </trkpt>
      <trkpt lat="42.25689" lon="0.5134">
        <ele>640.3</ele>
        <time>2021-08-02T08:47:26Z</time>
      </trkpt>
      <trkpt lat="42.25638" lon="0.51403">
        <ele>643.5</ele>
        <time>2021-08-02T08:47:35Z</time>
      </trkpt>
      <trkpt lat="42.25622" lon="0.51428">
        <ele>645.69</ele>
        <time>2021-08-02T08:47:38Z</time>
      </trkpt>
      <trkpt lat="42.25585" lon="0.51441">
        <ele>650.18</ele>
        <time>2021-08-02T08:47:43Z</time>
      </trkpt>
      <trkpt lat="42.25557" lon="0.51439">
        <ele>652.95</ele>
        <time>2021-08-02T08:47:46Z</time>
      </trkpt>
      <trkpt lat="42.25513" lon="0.51425">
        <ele>657.76</ele>
        <time>2021-08-02T08:47:51Z</time>
      </trkpt>
      <trkpt lat="42.2549" lon="0.51385">
        <ele>661.92</ele>
        <time>2021-08-02T08:47:56Z</time>
      </trkpt>
      <trkpt lat="42.25474" lon="0.51368">
        <ele>665.01</ele>
        <time>2021-08-02T08:48:00Z</time>
      </trkpt>
      <trkpt lat="42.2545" lon="0.51395">
        <ele>668.39</ele>
        <time>2021-08-02T08:48:05Z</time>
      </trkpt>
      <trkpt lat="42.25446" lon="0.51403">
        <ele>669.09</ele>
        <time>2021-08-02T08:48:06Z</time>
      </trkpt>
      <trkpt lat="42.25419" lon="0.51445">
        <ele>672.84</ele>
        <time>2021-08-02T08:48:11Z</time>
      </trkpt>
      <trkpt lat="42.25412" lon="0.5145">
        <ele>673.34</ele>
        <time>2021-08-02T08:48:12Z</time>
      </trkpt>
      <trkpt lat="42.25405" lon="0.51453">
        <ele>673.75</ele>
        <time>2021-08-02T08:48:13Z</time>
      </trkpt>
      <trkpt lat="42.25398" lon="0.51454">
        <ele>674.04</ele>
        <time>2021-08-02T08:48:14Z</time>
      </trkpt>
      <trkpt lat="42.25391" lon="0.51454">
        <ele>674.35</ele>
        <time>2021-08-02T08:48:15Z</time>
      </trkpt>
      <trkpt lat="42.25384" lon="0.51454">
        <ele>674.76</ele>
        <time>2021-08-02T08:48:16Z</time>
      </trkpt>
      <trkpt lat="42.25377" lon="0.51451">
        <ele>675.21</ele>
        <time>2021-08-02T08:48:17Z</time>
      </trkpt>
      <trkpt lat="42.25359" lon="0.51432">
        <ele>676.59</ele>
        <time>2021-08-02T08:48:20Z</time>
      </trkpt>
      <trkpt lat="42.25322" lon="0.51376">
        <ele>680.25</ele>
        <time>2021-08-02T08:48:26Z</time>
      </trkpt>
      <trkpt lat="42.25303" lon="0.51351">
        <ele>681.65</ele>
        <time>2021-08-02T08:48:29Z</time>
      </trkpt>
      <trkpt lat="42.25288" lon="0.51309">
        <ele>682.97</ele>
        <time>2021-08-02T08:48:33Z</time>
      </trkpt>
      <trkpt lat="42.25258" lon="0.51277">
        <ele>684.28</ele>
        <time>2021-08-02T08:48:39Z</time>
      </trkpt>
      <trkpt lat="42.2525" lon="0.51281">
        <ele>684.34</ele>
        <time>2021-08-02T08:48:40Z</time>
      </trkpt>
      <trkpt lat="42.25205" lon="0.51286">
        <ele>685.4</ele>
        <time>2021-08-02T08:48:45Z</time>
      </trkpt>
      <trkpt lat="42.25165" lon="0.51233">
        <ele>688.89</ele>
        <time>2021-08-02T08:48:52Z</time>
      </trkpt>
      <trkpt lat="42.25162" lon="0.51218">
        <ele>690.17</ele>
        <time>2021-08-02T08:48:54Z</time>
      </trkpt>
      <trkpt lat="42.25161" lon="0.51214">
        <ele>690.95</ele>
        <time>2021-08-02T08:48:56Z</time>
      </trkpt>
      <trkpt lat="42.25163" lon="0.51189">
        <ele>691.18</ele>
        <time>2021-08-02T08:49:01Z</time>
      </trkpt>
      <trkpt lat="42.25141" lon="0.51135">
        <ele>690.5</ele>
        <time>2021-08-02T08:49:08Z</time>
      </trkpt>
      <trkpt lat="42.25142" lon="0.51126">
        <ele>690.33</ele>
        <time>2021-08-02T08:49:09Z</time>
      </trkpt>
      <trkpt lat="42.25118" lon="0.51057">
        <ele>688.9</ele>
        <time>2021-08-02T08:49:16Z</time>
      </trkpt>
      <trkpt lat="42.25094" lon="0.51032">
        <ele>688.64</ele>
        <time>2021-08-02T08:49:19Z</time>
      </trkpt>
      <trkpt lat="42.25052" lon="0.50984">
        <ele>688.58</ele>
        <time>2021-08-02T08:49:25Z</time>
      </trkpt>
      <trkpt lat="42.25042" lon="0.50924">
        <ele>687.19</ele>
        <time>2021-08-02T08:49:31Z</time>
      </trkpt>
      <trkpt lat="42.25049" lon="0.50863">
        <ele>685.44</ele>
        <time>2021-08-02T08:49:36Z</time>
      </trkpt>
      <trkpt lat="42.25048" lon="0.50797">
        <ele>683.22</ele>
        <time>2021-08-02T08:49:41Z</time>
      </trkpt>
      <trkpt lat="42.25045" lon="0.50783">
        <ele>683.02</ele>
        <time>2021-08-02T08:49:42Z</time>
      </trkpt>
      <trkpt lat="42.25039" lon="0.50755">
        <ele>682.56</ele>
        <time>2021-08-02T08:49:44Z</time>
      </trkpt>
      <trkpt lat="42.25014" lon="0.50714">
        <ele>680.72</ele>
        <time>2021-08-02T08:49:48Z</time>
      </trkpt>
      <trkpt lat="42.24975" lon="0.50668">
        <ele>679.01</ele>
        <time>2021-08-02T08:49:53Z</time>
      </trkpt>
      <trkpt lat="42.24944" lon="0.50598">
        <ele>676.46</ele>
        <time>2021-08-02T08:49:58Z</time>
      </trkpt>
      <trkpt lat="42.24929" lon="0.50573">
        <ele>674.91</ele>
        <time>2021-08-02T08:50:00Z</time>
      </trkpt>
      <trkpt lat="42.24916" lon="0.5052">
        <ele>670.92</ele>
        <time>2021-08-02T08:50:04Z</time>
      </trkpt>
      <trkpt lat="42.24927" lon="0.50453">
        <ele>664.84</ele>
        <time>2021-08-02T08:50:09Z</time>
      </trkpt>
      <trkpt lat="42.24943" lon="0.50377">
        <ele>658.79</ele>
        <time>2021-08-02T08:50:14Z</time>
      </trkpt>
      <trkpt lat="42.24945" lon="0.50363">
        <ele>657.39</ele>
        <time>2021-08-02T08:50:15Z</time>
      </trkpt>
      <trkpt lat="42.24962" lon="0.50312">
        <ele>652.02</ele>
        <time>2021-08-02T08:50:19Z</time>
      </trkpt>
      <trkpt lat="42.2497" lon="0.50293">
        <ele>649.47</ele>
        <time>2021-08-02T08:50:21Z</time>
      </trkpt>
      <trkpt lat="42.24969" lon="0.50255">
        <ele>644.56</ele>
        <time>2021-08-02T08:50:25Z</time>
      </trkpt>
      <trkpt lat="42.24939" lon="0.50256">
        <ele>640.88</ele>
        <time>2021-08-02T08:50:29Z</time>
      </trkpt>
      <trkpt lat="42.24914" lon="0.5027">
        <ele>639.62</ele>
        <time>2021-08-02T08:50:32Z</time>
      </trkpt>
      <trkpt lat="42.24906" lon="0.50275">
        <ele>639.51</ele>
        <time>2021-08-02T08:50:33Z</time>
      </trkpt>
      <trkpt lat="42.24881" lon="0.50281">
        <ele>640.06</ele>
        <time>2021-08-02T08:50:36Z</time>
      </trkpt>
      <trkpt lat="42.24851" lon="0.50296">
        <ele>642.36</ele>
        <time>2021-08-02T08:50:40Z</time>
      </trkpt>
      <trkpt lat="42.24796" lon="0.50307">
        <ele>646.91</ele>
        <time>2021-08-02T08:50:46Z</time>
      </trkpt>
      <trkpt lat="42.24788" lon="0.50306">
        <ele>647.68</ele>
        <time>2021-08-02T08:50:47Z</time>
      </trkpt>
      <trkpt lat="42.24756" lon="0.50288">
        <ele>650.41</ele>
        <time>2021-08-02T08:50:52Z</time>
      </trkpt>
      <trkpt lat="42.24755" lon="0.50255">
        <ele>650.54</ele>
        <time>2021-08-02T08:50:55Z</time>
      </trkpt>
      <trkpt lat="42.24735" lon="0.50209">
        <ele>647.56</ele>
        <time>2021-08-02T08:51:01Z</time>
      </trkpt>
      <trkpt lat="42.24704" lon="0.50245">
        <ele>644.32</ele>
        <time>2021-08-02T08:51:06Z</time>
      </trkpt>
      <trkpt lat="42.24693" lon="0.50305">
        <ele>643.06</ele>
        <time>2021-08-02T08:51:11Z</time>
      </trkpt>
      <trkpt lat="42.24683" lon="0.50368">
        <ele>643.66</ele>
        <time>2021-08-02T08:51:16Z</time>
      </trkpt>
      <trkpt lat="42.24664" lon="0.50409">
        <ele>646.02</ele>
        <time>2021-08-02T08:51:20Z</time>
      </trkpt>
      <trkpt lat="42.24626" lon="0.50415">
        <ele>649.8</ele>
        <time>2021-08-02T08:51:25Z</time>
      </trkpt>
      <trkpt lat="42.24616" lon="0.5041">
        <ele>650.51</ele>
        <time>2021-08-02T08:51:26Z</time>
      </trkpt>
      <trkpt lat="42.24594" lon="0.504">
        <ele>652.21</ele>
        <time>2021-08-02T08:51:28Z</time>
      </trkpt>
      <trkpt lat="42.24548" lon="0.50402">
        <ele>655.69</ele>
        <time>2021-08-02T08:51:32Z</time>
      </trkpt>
      <trkpt lat="42.24485" lon="0.50419">
        <ele>660.02</ele>
        <time>2021-08-02T08:51:37Z</time>
      </trkpt>
      <trkpt lat="42.24449" lon="0.50418">
        <ele>664.03</ele>
        <time>2021-08-02T08:51:43Z</time>
      </trkpt>
      <trkpt lat="42.24428" lon="0.5039">
        <ele>667.01</ele>
        <time>2021-08-02T08:51:50Z</time>
      </trkpt>
      <trkpt lat="42.24431" lon="0.50383">
        <ele>667.28</ele>
        <time>2021-08-02T08:51:51Z</time>
      </trkpt>
      <trkpt lat="42.24436" lon="0.50377">
        <ele>667.5</ele>
        <time>2021-08-02T08:51:52Z</time>
      </trkpt>
      <trkpt lat="42.24443" lon="0.5037">
        <ele>667.68</ele>
        <time>2021-08-02T08:51:53Z</time>
      </trkpt>
      <trkpt lat="42.24452" lon="0.50362">
        <ele>667.88</ele>
        <time>2021-08-02T08:51:54Z</time>
      </trkpt>
      <trkpt lat="42.24502" lon="0.50306">
        <ele>669.76</ele>
        <time>2021-08-02T08:52:00Z</time>
      </trkpt>
      <trkpt lat="42.24517" lon="0.5026">
        <ele>671.16</ele>
        <time>2021-08-02T08:52:04Z</time>
      </trkpt>
      <trkpt lat="42.24538" lon="0.5022">
        <ele>672.19</ele>
        <time>2021-08-02T08:52:08Z</time>
      </trkpt>
      <trkpt lat="42.24608" lon="0.50096">
        <ele>674.1</ele>
        <time>2021-08-02T08:52:17Z</time>
      </trkpt>
      <trkpt lat="42.24614" lon="0.50085">
        <ele>674.31</ele>
        <time>2021-08-02T08:52:18Z</time>
      </trkpt>
      <trkpt lat="42.24634" lon="0.50034">
        <ele>675.42</ele>
        <time>2021-08-02T08:52:22Z</time>
      </trkpt>
      <trkpt lat="42.24667" lon="0.5">
        <ele>677.07</ele>
        <time>2021-08-02T08:52:27Z</time>
      </trkpt>
      <trkpt lat="42.24683" lon="0.49993">
        <ele>678.11</ele>
        <time>2021-08-02T08:52:29Z</time>
      </trkpt>
      <trkpt lat="42.24709" lon="0.49945">
        <ele>682.17</ele>
        <time>2021-08-02T08:52:35Z</time>
      </trkpt>
      <trkpt lat="42.24716" lon="0.49924">
        <ele>683.4</ele>
        <time>2021-08-02T08:52:37Z</time>
      </trkpt>
      <trkpt lat="42.24732" lon="0.49889">
        <ele>687.36</ele>
        <time>2021-08-02T08:52:44Z</time>
      </trkpt>
      <trkpt lat="42.24745" lon="0.49859">
        <ele>689.72</ele>
        <time>2021-08-02T08:52:56Z</time>
      </trkpt>
      <trkpt lat="42.24749" lon="0.49851">
        <ele>689.9</ele>
        <time>2021-08-02T08:52:57Z</time>
      </trkpt>
      <trkpt lat="42.24741" lon="0.49782">
        <ele>691.61</ele>
        <time>2021-08-02T08:53:03Z</time>
      </trkpt>
      <trkpt lat="42.24743" lon="0.49728">
        <ele>692.47</ele>
        <time>2021-08-02T08:53:07Z</time>
      </trkpt>
      <trkpt lat="42.2475" lon="0.49699">
        <ele>692.98</ele>
        <time>2021-08-02T08:53:09Z</time>
      </trkpt>
      <trkpt lat="42.24808" lon="0.49605">
        <ele>694.02</ele>
        <time>2021-08-02T08:53:16Z</time>
      </trkpt>
      <trkpt lat="42.24834" lon="0.49557">
        <ele>693.81</ele>
        <time>2021-08-02T08:53:20Z</time>
      </trkpt>
      <trkpt lat="42.24859" lon="0.49504">
        <ele>691.74</ele>
        <time>2021-08-02T08:53:25Z</time>
      </trkpt>
      <trkpt lat="42.24882" lon="0.49448">
        <ele>689.9</ele>
        <time>2021-08-02T08:53:30Z</time>
      </trkpt>
      <trkpt lat="42.2489" lon="0.49492">
        <ele>688.47</ele>
        <time>2021-08-02T08:53:35Z</time>
      </trkpt>
      <trkpt lat="42.24884" lon="0.49579">
        <ele>689.61</ele>
        <time>2021-08-02T08:53:40Z</time>
      </trkpt>
      <trkpt lat="42.24909" lon="0.49629">
        <ele>693.54</ele>
        <time>2021-08-02T08:53:46Z</time>
      </trkpt>
      <trkpt lat="42.24932" lon="0.49582">
        <ele>695.95</ele>
        <time>2021-08-02T08:53:50Z</time>
      </trkpt>
      <trkpt lat="42.24964" lon="0.49506">
        <ele>700.15</ele>
        <time>2021-08-02T08:53:55Z</time>
      </trkpt>
      <trkpt lat="42.24971" lon="0.49489">
        <ele>701.22</ele>
        <time>2021-08-02T08:53:56Z</time>
      </trkpt>
      <trkpt lat="42.24985" lon="0.49397">
        <ele>706.07</ele>
        <time>2021-08-02T08:54:01Z</time>
      </trkpt>
      <trkpt lat="42.24981" lon="0.49343">
        <ele>708.9</ele>
        <time>2021-08-02T08:54:04Z</time>
      </trkpt>
      <trkpt lat="42.2496" lon="0.49271">
        <ele>713.16</ele>
        <time>2021-08-02T08:54:09Z</time>
      </trkpt>
      <trkpt lat="42.24961" lon="0.49213">
        <ele>716.66</ele>
        <time>2021-08-02T08:54:13Z</time>
      </trkpt>
      <trkpt lat="42.24969" lon="0.49186">
        <ele>718.78</ele>
        <time>2021-08-02T08:54:15Z</time>
      </trkpt>
      <trkpt lat="42.24977" lon="0.49162">
        <ele>720.87</ele>
        <time>2021-08-02T08:54:17Z</time>
      </trkpt>
      <trkpt lat="42.24984" lon="0.49119">
        <ele>724.38</ele>
        <time>2021-08-02T08:54:21Z</time>
      </trkpt>
      <trkpt lat="42.24996" lon="0.49064">
        <ele>728.42</ele>
        <time>2021-08-02T08:54:29Z</time>
      </trkpt>
      <trkpt lat="42.24997" lon="0.4905">
        <ele>729.13</ele>
        <time>2021-08-02T08:54:31Z</time>
      </trkpt>
      <trkpt lat="42.25007" lon="0.48959">
        <ele>732.51</ele>
        <time>2021-08-02T08:54:43Z</time>
      </trkpt>
      <trkpt lat="42.25008" lon="0.4895">
        <ele>733.23</ele>
        <time>2021-08-02T08:54:44Z</time>
      </trkpt>
      <trkpt lat="42.24984" lon="0.48877">
        <ele>736.37</ele>
        <time>2021-08-02T08:54:51Z</time>
      </trkpt>
      <trkpt lat="42.24975" lon="0.48869">
        <ele>736.98</ele>
        <time>2021-08-02T08:54:52Z</time>
      </trkpt>
      <trkpt lat="42.24956" lon="0.48852">
        <ele>738.25</ele>
        <time>2021-08-02T08:54:54Z</time>
      </trkpt>
      <trkpt lat="42.2494" lon="0.48797">
        <ele>741.88</ele>
        <time>2021-08-02T08:54:59Z</time>
      </trkpt>
      <trkpt lat="42.24945" lon="0.48772">
        <ele>743.7</ele>
        <time>2021-08-02T08:55:01Z</time>
      </trkpt>
      <trkpt lat="42.24959" lon="0.4872">
        <ele>746.57</ele>
        <time>2021-08-02T08:55:05Z</time>
      </trkpt>
      <trkpt lat="42.24952" lon="0.4865">
        <ele>750.71</ele>
        <time>2021-08-02T08:55:11Z</time>
      </trkpt>
      <trkpt lat="42.2494" lon="0.48596">
        <ele>754.11</ele>
        <time>2021-08-02T08:55:15Z</time>
      </trkpt>
      <trkpt lat="42.24946" lon="0.48559">
        <ele>756.61</ele>
        <time>2021-08-02T08:55:18Z</time>
      </trkpt>
      <trkpt lat="42.24962" lon="0.48497">
        <ele>761.12</ele>
        <time>2021-08-02T08:55:23Z</time>
      </trkpt>
      <trkpt lat="42.24982" lon="0.48463">
        <ele>763.53</ele>
        <time>2021-08-02T08:55:26Z</time>
      </trkpt>
      <trkpt lat="42.25023" lon="0.48417">
        <ele>767.17</ele>
        <time>2021-08-02T08:55:32Z</time>
      </trkpt>
      <trkpt lat="42.25059" lon="0.48337">
        <ele>770.7</ele>
        <time>2021-08-02T08:55:38Z</time>
      </trkpt>
      <trkpt lat="42.25095" lon="0.48266">
        <ele>774.02</ele>
        <time>2021-08-02T08:55:45Z</time>
      </trkpt>
      <trkpt lat="42.25097" lon="0.4826">
        <ele>774.5</ele>
        <time>2021-08-02T08:55:46Z</time>
      </trkpt>
      <trkpt lat="42.25099" lon="0.48248">
        <ele>775.56</ele>
        <time>2021-08-02T08:55:48Z</time>
      </trkpt>
      <trkpt lat="42.25099" lon="0.48243">
        <ele>776.03</ele>
        <time>2021-08-02T08:55:49Z</time>
      </trkpt>
      <trkpt lat="42.251" lon="0.48237">
        <ele>776.39</ele>
        <time>2021-08-02T08:55:50Z</time>
      </trkpt>
      <trkpt lat="42.25133" lon="0.48226">
        <ele>777.6</ele>
        <time>2021-08-02T08:55:55Z</time>
      </trkpt>
      <trkpt lat="42.25176" lon="0.48245">
        <ele>779.54</ele>
        <time>2021-08-02T08:56:00Z</time>
      </trkpt>
      <trkpt lat="42.25212" lon="0.48279">
        <ele>781.21</ele>
        <time>2021-08-02T08:56:04Z</time>
      </trkpt>
      <trkpt lat="42.25232" lon="0.48309">
        <ele>781.81</ele>
        <time>2021-08-02T08:56:07Z</time>
      </trkpt>
      <trkpt lat="42.25311" lon="0.48347">
        <ele>783.47</ele>
        <time>2021-08-02T08:56:15Z</time>
      </trkpt>
      <trkpt lat="42.25335" lon="0.48352">
        <ele>784.17</ele>
        <time>2021-08-02T08:56:17Z</time>
      </trkpt>
      <trkpt lat="42.25442" lon="0.48369">
        <ele>783.94</ele>
        <time>2021-08-02T08:56:27Z</time>
      </trkpt>
      <trkpt lat="42.25544" lon="0.48378">
        <ele>781.99</ele>
        <time>2021-08-02T08:56:37Z</time>
      </trkpt>
      <trkpt lat="42.25608" lon="0.48383">
        <ele>778.88</ele>
        <time>2021-08-02T08:56:43Z</time>
      </trkpt>
      <trkpt lat="42.25618" lon="0.48384">
        <ele>778.05</ele>
        <time>2021-08-02T08:56:44Z</time>
      </trkpt>
      <trkpt lat="42.25653" lon="0.48377">
        <ele>775.26</ele>
        <time>2021-08-02T08:56:48Z</time>
      </trkpt>
      <trkpt lat="42.25691" lon="0.48357">
        <ele>771.47</ele>
        <time>2021-08-02T08:56:57Z</time>
      </trkpt>
      <trkpt lat="42.25717" lon="0.48354">
        <ele>772.55</ele>
        <time>2021-08-02T08:57:03Z</time>
      </trkpt>
      <trkpt lat="42.25765" lon="0.48341">
        <ele>776.28</ele>
        <time>2021-08-02T08:57:10Z</time>
      </trkpt>
      <trkpt lat="42.25803" lon="0.48343">
        <ele>779.51</ele>
        <time>2021-08-02T08:57:15Z</time>
      </trkpt>
      <trkpt lat="42.25813" lon="0.48345">
        <ele>780.24</ele>
        <time>2021-08-02T08:57:16Z</time>
      </trkpt>
      <trkpt lat="42.25828" lon="0.48372">
        <ele>782.91</ele>
        <time>2021-08-02T08:57:20Z</time>
      </trkpt>
      <trkpt lat="42.25825" lon="0.4838">
        <ele>783.57</ele>
        <time>2021-08-02T08:57:21Z</time>
      </trkpt>
      <trkpt lat="42.25821" lon="0.48389">
        <ele>784.28</ele>
        <time>2021-08-02T08:57:22Z</time>
      </trkpt>
      <trkpt lat="42.25829" lon="0.48419">
        <ele>787.56</ele>
        <time>2021-08-02T08:57:26Z</time>
      </trkpt>
      <trkpt lat="42.25856" lon="0.48407">
        <ele>791.32</ele>
        <time>2021-08-02T08:57:30Z</time>
      </trkpt>
      <trkpt lat="42.25861" lon="0.48384">
        <ele>793.19</ele>
        <time>2021-08-02T08:57:32Z</time>
      </trkpt>
      <trkpt lat="42.25891" lon="0.48318">
        <ele>798.64</ele>
        <time>2021-08-02T08:57:38Z</time>
      </trkpt>
      <trkpt lat="42.25901" lon="0.48311">
        <ele>799.56</ele>
        <time>2021-08-02T08:57:39Z</time>
      </trkpt>
      <trkpt lat="42.25932" lon="0.48295">
        <ele>802.68</ele>
        <time>2021-08-02T08:57:42Z</time>
      </trkpt>
      <trkpt lat="42.25963" lon="0.48291">
        <ele>806.15</ele>
        <time>2021-08-02T08:57:45Z</time>
      </trkpt>
      <trkpt lat="42.25984" lon="0.48269">
        <ele>809.78</ele>
        <time>2021-08-02T08:57:48Z</time>
      </trkpt>
      <trkpt lat="42.25987" lon="0.4824">
        <ele>812.31</ele>
        <time>2021-08-02T08:57:50Z</time>
      </trkpt>
      <trkpt lat="42.2601" lon="0.48167">
        <ele>817.67</ele>
        <time>2021-08-02T08:57:55Z</time>
      </trkpt>
      <trkpt lat="42.26019" lon="0.48155">
        <ele>818.76</ele>
        <time>2021-08-02T08:57:56Z</time>
      </trkpt>
      <trkpt lat="42.26051" lon="0.48126">
        <ele>823.48</ele>
        <time>2021-08-02T08:57:59Z</time>
      </trkpt>
      <trkpt lat="42.26063" lon="0.48118">
        <ele>823.48</ele>
        <time>2021-08-02T08:58:00Z</time>
      </trkpt>
      <trkpt lat="42.26088" lon="0.48103">
        <ele>827.59</ele>
        <time>2021-08-02T08:58:02Z</time>
      </trkpt>
      <trkpt lat="42.26125" lon="0.48081">
        <ele>831.82</ele>
        <time>2021-08-02T08:58:05Z</time>
      </trkpt>
      <trkpt lat="42.26136" lon="0.48073">
        <ele>833.24</ele>
        <time>2021-08-02T08:58:06Z</time>
      </trkpt>
      <trkpt lat="42.26168" lon="0.48047">
        <ele>837.84</ele>
        <time>2021-08-02T08:58:09Z</time>
      </trkpt>
      <trkpt lat="42.26191" lon="0.48036">
        <ele>840.99</ele>
        <time>2021-08-02T08:58:11Z</time>
      </trkpt>
      <trkpt lat="42.26228" lon="0.48017">
        <ele>845.37</ele>
        <time>2021-08-02T08:58:14Z</time>
      </trkpt>
      <trkpt lat="42.26266" lon="0.48002">
        <ele>849.78</ele>
        <time>2021-08-02T08:58:17Z</time>
      </trkpt>
      <trkpt lat="42.26292" lon="0.47991">
        <ele>852.91</ele>
        <time>2021-08-02T08:58:19Z</time>
      </trkpt>
      <trkpt lat="42.26305" lon="0.47985">
        <ele>854.43</ele>
        <time>2021-08-02T08:58:20Z</time>
      </trkpt>
      <trkpt lat="42.26337" lon="0.47954">
        <ele>859.13</ele>
        <time>2021-08-02T08:58:23Z</time>
      </trkpt>
      <trkpt lat="42.26352" lon="0.47924">
        <ele>862.35</ele>
        <time>2021-08-02T08:58:25Z</time>
      </trkpt>
      <trkpt lat="42.26365" lon="0.47891">
        <ele>865.49</ele>
        <time>2021-08-02T08:58:27Z</time>
      </trkpt>
      <trkpt lat="42.26392" lon="0.47851">
        <ele>870.12</ele>
        <time>2021-08-02T08:58:30Z</time>
      </trkpt>
      <trkpt lat="42.26413" lon="0.47833">
        <ele>873.27</ele>
        <time>2021-08-02T08:58:32Z</time>
      </trkpt>
      <trkpt lat="42.26437" lon="0.47829">
        <ele>876.43</ele>
        <time>2021-08-02T08:58:34Z</time>
      </trkpt>
      <trkpt lat="42.26461" lon="0.47831">
        <ele>879.68</ele>
        <time>2021-08-02T08:58:36Z</time>
      </trkpt>
      <trkpt lat="42.26487" lon="0.4783">
        <ele>882.92</ele>
        <time>2021-08-02T08:58:38Z</time>
      </trkpt>
      <trkpt lat="42.26526" lon="0.47824">
        <ele>888.02</ele>
        <time>2021-08-02T08:58:41Z</time>
      </trkpt>
      <trkpt lat="42.26552" lon="0.47818">
        <ele>891.6</ele>
        <time>2021-08-02T08:58:43Z</time>
      </trkpt>
      <trkpt lat="42.26577" lon="0.47813">
        <ele>895.25</ele>
        <time>2021-08-02T08:58:45Z</time>
      </trkpt>
      <trkpt lat="42.266" lon="0.47809">
        <ele>899.04</ele>
        <time>2021-08-02T08:58:47Z</time>
      </trkpt>
      <trkpt lat="42.26623" lon="0.47793">
        <ele>904.38</ele>
        <time>2021-08-02T08:58:50Z</time>
      </trkpt>
      <trkpt lat="42.26621" lon="0.47769">
        <ele>908.39</ele>
        <time>2021-08-02T08:58:53Z</time>
      </trkpt>
      <trkpt lat="42.26595" lon="0.47745">
        <ele>911.48</ele>
        <time>2021-08-02T08:58:58Z</time>
      </trkpt>
      <trkpt lat="42.26591" lon="0.47736">
        <ele>911.91</ele>
        <time>2021-08-02T08:58:59Z</time>
      </trkpt>
      <trkpt lat="42.26559" lon="0.47621">
        <ele>913.43</ele>
        <time>2021-08-02T08:59:08Z</time>
      </trkpt>
      <trkpt lat="42.26553" lon="0.47597">
        <ele>913.49</ele>
        <time>2021-08-02T08:59:10Z</time>
      </trkpt>
      <trkpt lat="42.26556" lon="0.4754">
        <ele>913.26</ele>
        <time>2021-08-02T08:59:15Z</time>
      </trkpt>
      <trkpt lat="42.26573" lon="0.47488">
        <ele>912.25</ele>
        <time>2021-08-02T08:59:19Z</time>
      </trkpt>
      <trkpt lat="42.26617" lon="0.4743">
        <ele>910.55</ele>
        <time>2021-08-02T08:59:25Z</time>
      </trkpt>
      <trkpt lat="42.2664" lon="0.47397">
        <ele>907.07</ele>
        <time>2021-08-02T08:59:31Z</time>
      </trkpt>
      <trkpt lat="42.26625" lon="0.47356">
        <ele>905.06</ele>
        <time>2021-08-02T08:59:35Z</time>
      </trkpt>
      <trkpt lat="42.26646" lon="0.47312">
        <ele>906.15</ele>
        <time>2021-08-02T08:59:40Z</time>
      </trkpt>
      <trkpt lat="42.26661" lon="0.47298">
        <ele>906.97</ele>
        <time>2021-08-02T08:59:42Z</time>
      </trkpt>
      <trkpt lat="42.26687" lon="0.47255">
        <ele>908.98</ele>
        <time>2021-08-02T08:59:46Z</time>
      </trkpt>
      <trkpt lat="42.26709" lon="0.47188">
        <ele>913.06</ele>
        <time>2021-08-02T08:59:51Z</time>
      </trkpt>
      <trkpt lat="42.26718" lon="0.47141">
        <ele>916.25</ele>
        <time>2021-08-02T08:59:54Z</time>
      </trkpt>
      <trkpt lat="42.26738" lon="0.47082">
        <ele>921.06</ele>
        <time>2021-08-02T08:59:58Z</time>
      </trkpt>
      <trkpt lat="42.26762" lon="0.47058">
        <ele>924.27</ele>
        <time>2021-08-02T09:00:01Z</time>
      </trkpt>
      <trkpt lat="42.26789" lon="0.47055">
        <ele>927.78</ele>
        <time>2021-08-02T09:00:04Z</time>
      </trkpt>
      <trkpt lat="42.26815" lon="0.47026">
        <ele>933.17</ele>
        <time>2021-08-02T09:00:11Z</time>
      </trkpt>
      <trkpt lat="42.26819" lon="0.47006">
        <ele>934.4</ele>
        <time>2021-08-02T09:00:13Z</time>
      </trkpt>
      <trkpt lat="42.26843" lon="0.46937">
        <ele>937.66</ele>
        <time>2021-08-02T09:00:18Z</time>
      </trkpt>
      <trkpt lat="42.26853" lon="0.46873">
        <ele>939.9</ele>
        <time>2021-08-02T09:00:22Z</time>
      </trkpt>
      <trkpt lat="42.26884" lon="0.46824">
        <ele>944.11</ele>
        <time>2021-08-02T09:00:28Z</time>
      </trkpt>
      <trkpt lat="42.26909" lon="0.46806">
        <ele>947.87</ele>
        <time>2021-08-02T09:00:32Z</time>
      </trkpt>
      <trkpt lat="42.26955" lon="0.46786">
        <ele>952.56</ele>
        <time>2021-08-02T09:00:37Z</time>
      </trkpt>
      <trkpt lat="42.2698" lon="0.46767">
        <ele>955.44</ele>
        <time>2021-08-02T09:00:40Z</time>
      </trkpt>
      <trkpt lat="42.27012" lon="0.46729">
        <ele>960.85</ele>
        <time>2021-08-02T09:00:46Z</time>
      </trkpt>
      <trkpt lat="42.2701" lon="0.46705">
        <ele>962.55</ele>
        <time>2021-08-02T09:00:48Z</time>
      </trkpt>
      <trkpt lat="42.27003" lon="0.46653">
        <ele>965.64</ele>
        <time>2021-08-02T09:00:52Z</time>
      </trkpt>
      <trkpt lat="42.27007" lon="0.46608">
        <ele>970.14</ele>
        <time>2021-08-02T09:00:57Z</time>
      </trkpt>
      <trkpt lat="42.2701" lon="0.46599">
        <ele>971.03</ele>
        <time>2021-08-02T09:00:58Z</time>
      </trkpt>
      <trkpt lat="42.2704" lon="0.46539">
        <ele>973.96</ele>
        <time>2021-08-02T09:01:03Z</time>
      </trkpt>
      <trkpt lat="42.27068" lon="0.4642">
        <ele>973.73</ele>
        <time>2021-08-02T09:01:11Z</time>
      </trkpt>
      <trkpt lat="42.27084" lon="0.46397">
        <ele>973.31</ele>
        <time>2021-08-02T09:01:14Z</time>
      </trkpt>
      <trkpt lat="42.27106" lon="0.46348">
        <ele>972.14</ele>
        <time>2021-08-02T09:01:19Z</time>
      </trkpt>
      <trkpt lat="42.27102" lon="0.46283">
        <ele>970.52</ele>
        <time>2021-08-02T09:01:24Z</time>
      </trkpt>
      <trkpt lat="42.27097" lon="0.46198">
        <ele>967.33</ele>
        <time>2021-08-02T09:01:30Z</time>
      </trkpt>
      <trkpt lat="42.27089" lon="0.46183">
        <ele>966.63</ele>
        <time>2021-08-02T09:01:32Z</time>
      </trkpt>
      <trkpt lat="42.27074" lon="0.46172">
        <ele>966.4</ele>
        <time>2021-08-02T09:01:34Z</time>
      </trkpt>
      <trkpt lat="42.27058" lon="0.4616">
        <ele>966.37</ele>
        <time>2021-08-02T09:01:36Z</time>
      </trkpt>
      <trkpt lat="42.27041" lon="0.46149">
        <ele>966.69</ele>
        <time>2021-08-02T09:01:38Z</time>
      </trkpt>
      <trkpt lat="42.27017" lon="0.46091">
        <ele>967.35</ele>
        <time>2021-08-02T09:01:46Z</time>
      </trkpt>
      <trkpt lat="42.27017" lon="0.46079">
        <ele>967.34</ele>
        <time>2021-08-02T09:01:47Z</time>
      </trkpt>
      <trkpt lat="42.2702" lon="0.46039">
        <ele>967.5</ele>
        <time>2021-08-02T09:01:50Z</time>
      </trkpt>
      <trkpt lat="42.27013" lon="0.45997">
        <ele>968.33</ele>
        <time>2021-08-02T09:01:53Z</time>
      </trkpt>
      <trkpt lat="42.27012" lon="0.45909">
        <ele>969.22</ele>
        <time>2021-08-02T09:01:58Z</time>
      </trkpt>
      <trkpt lat="42.26999" lon="0.4584">
        <ele>969.73</ele>
        <time>2021-08-02T09:02:02Z</time>
      </trkpt>
      <trkpt lat="42.26952" lon="0.45774">
        <ele>971.54</ele>
        <time>2021-08-02T09:02:08Z</time>
      </trkpt>
      <trkpt lat="42.26933" lon="0.45736">
        <ele>974.99</ele>
        <time>2021-08-02T09:02:13Z</time>
      </trkpt>
      <trkpt lat="42.26932" lon="0.45717">
        <ele>976.13</ele>
        <time>2021-08-02T09:02:15Z</time>
      </trkpt>
      <trkpt lat="42.2693" lon="0.457">
        <ele>977.41</ele>
        <time>2021-08-02T09:02:17Z</time>
      </trkpt>
      <trkpt lat="42.26945" lon="0.45609">
        <ele>980.2</ele>
        <time>2021-08-02T09:02:25Z</time>
      </trkpt>
      <trkpt lat="42.26965" lon="0.45559">
        <ele>976.93</ele>
        <time>2021-08-02T09:02:30Z</time>
      </trkpt>
      <trkpt lat="42.26978" lon="0.45528">
        <ele>973.86</ele>
        <time>2021-08-02T09:02:33Z</time>
      </trkpt>
      <trkpt lat="42.26992" lon="0.45488">
        <ele>970.73</ele>
        <time>2021-08-02T09:02:36Z</time>
      </trkpt>
      <trkpt lat="42.27009" lon="0.4545">
        <ele>967.26</ele>
        <time>2021-08-02T09:02:39Z</time>
      </trkpt>
      <trkpt lat="42.2702" lon="0.45429">
        <ele>965.07</ele>
        <time>2021-08-02T09:02:41Z</time>
      </trkpt>
      <trkpt lat="42.27055" lon="0.45398">
        <ele>960.33</ele>
        <time>2021-08-02T09:02:46Z</time>
      </trkpt>
      <trkpt lat="42.27064" lon="0.45395">
        <ele>959.44</ele>
        <time>2021-08-02T09:02:47Z</time>
      </trkpt>
      <trkpt lat="42.27095" lon="0.45389">
        <ele>957.24</ele>
        <time>2021-08-02T09:02:50Z</time>
      </trkpt>
      <trkpt lat="42.27125" lon="0.45367">
        <ele>954.15</ele>
        <time>2021-08-02T09:02:54Z</time>
      </trkpt>
      <trkpt lat="42.27165" lon="0.45344">
        <ele>949.45</ele>
        <time>2021-08-02T09:02:59Z</time>
      </trkpt>
      <trkpt lat="42.27174" lon="0.45342">
        <ele>948.66</ele>
        <time>2021-08-02T09:03:00Z</time>
      </trkpt>
      <trkpt lat="42.27215" lon="0.45354">
        <ele>944.31</ele>
        <time>2021-08-02T09:03:05Z</time>
      </trkpt>
      <trkpt lat="42.27233" lon="0.45329">
        <ele>940.85</ele>
        <time>2021-08-02T09:03:10Z</time>
      </trkpt>
      <trkpt lat="42.27231" lon="0.45321">
        <ele>940.27</ele>
        <time>2021-08-02T09:03:11Z</time>
      </trkpt>
      <trkpt lat="42.27228" lon="0.45251">
        <ele>939.1</ele>
        <time>2021-08-02T09:03:17Z</time>
      </trkpt>
      <trkpt lat="42.27226" lon="0.45224">
        <ele>939.39</ele>
        <time>2021-08-02T09:03:19Z</time>
      </trkpt>
      <trkpt lat="42.27247" lon="0.4516">
        <ele>940.07</ele>
        <time>2021-08-02T09:03:25Z</time>
      </trkpt>
      <trkpt lat="42.27301" lon="0.45073">
        <ele>940.13</ele>
        <time>2021-08-02T09:03:33Z</time>
      </trkpt>
      <trkpt lat="42.2731" lon="0.45047">
        <ele>939.77</ele>
        <time>2021-08-02T09:03:35Z</time>
      </trkpt>
      <trkpt lat="42.27357" lon="0.4495">
        <ele>936.99</ele>
        <time>2021-08-02T09:03:42Z</time>
      </trkpt>
      <trkpt lat="42.27377" lon="0.44859">
        <ele>932.92</ele>
        <time>2021-08-02T09:03:48Z</time>
      </trkpt>
      <trkpt lat="42.27405" lon="0.44801">
        <ele>929.65</ele>
        <time>2021-08-02T09:03:53Z</time>
      </trkpt>
      <trkpt lat="42.27422" lon="0.44779">
        <ele>928.36</ele>
        <time>2021-08-02T09:03:55Z</time>
      </trkpt>
      <trkpt lat="42.27482" lon="0.44752">
        <ele>925.26</ele>
        <time>2021-08-02T09:04:02Z</time>
      </trkpt>
      <trkpt lat="42.27497" lon="0.44764">
        <ele>925.08</ele>
        <time>2021-08-02T09:04:04Z</time>
      </trkpt>
      <trkpt lat="42.27511" lon="0.44776">
        <ele>925.04</ele>
        <time>2021-08-02T09:04:06Z</time>
      </trkpt>
      <trkpt lat="42.27529" lon="0.44789">
        <ele>925.11</ele>
        <time>2021-08-02T09:04:09Z</time>
      </trkpt>
      <trkpt lat="42.27545" lon="0.44808">
        <ele>925.44</ele>
        <time>2021-08-02T09:04:13Z</time>
      </trkpt>
      <trkpt lat="42.27591" lon="0.44878">
        <ele>927.45</ele>
        <time>2021-08-02T09:04:22Z</time>
      </trkpt>
      <trkpt lat="42.27602" lon="0.44893">
        <ele>927.97</ele>
        <time>2021-08-02T09:04:24Z</time>
      </trkpt>
      <trkpt lat="42.2763" lon="0.44871">
        <ele>929.01</ele>
        <time>2021-08-02T09:04:30Z</time>
      </trkpt>
      <trkpt lat="42.27628" lon="0.44853">
        <ele>929.19</ele>
        <time>2021-08-02T09:04:31Z</time>
      </trkpt>
      <trkpt lat="42.27627" lon="0.44806">
        <ele>929.71</ele>
        <time>2021-08-02T09:04:34Z</time>
      </trkpt>
      <trkpt lat="42.27624" lon="0.44747">
        <ele>930.68</ele>
        <time>2021-08-02T09:04:38Z</time>
      </trkpt>
      <trkpt lat="42.27626" lon="0.44721">
        <ele>930.75</ele>
        <time>2021-08-02T09:04:40Z</time>
      </trkpt>
      <trkpt lat="42.276" lon="0.44669">
        <ele>930.37</ele>
        <time>2021-08-02T09:04:46Z</time>
      </trkpt>
      <trkpt lat="42.27597" lon="0.44611">
        <ele>929.36</ele>
        <time>2021-08-02T09:04:52Z</time>
      </trkpt>
      <trkpt lat="42.27613" lon="0.44557">
        <ele>927.99</ele>
        <time>2021-08-02T09:04:57Z</time>
      </trkpt>
      <trkpt lat="42.2762" lon="0.445">
        <ele>926.5</ele>
        <time>2021-08-02T09:05:02Z</time>
      </trkpt>
      <trkpt lat="42.27603" lon="0.44434">
        <ele>924.78</ele>
        <time>2021-08-02T09:05:10Z</time>
      </trkpt>
      <trkpt lat="42.27578" lon="0.44417">
        <ele>924.86</ele>
        <time>2021-08-02T09:05:13Z</time>
      </trkpt>
      <trkpt lat="42.27533" lon="0.44363">
        <ele>926.2</ele>
        <time>2021-08-02T09:05:20Z</time>
      </trkpt>
      <trkpt lat="42.27539" lon="0.44302">
        <ele>927.22</ele>
        <time>2021-08-02T09:05:26Z</time>
      </trkpt>
      <trkpt lat="42.27568" lon="0.44244">
        <ele>928.46</ele>
        <time>2021-08-02T09:05:31Z</time>
      </trkpt>
      <trkpt lat="42.27567" lon="0.44179">
        <ele>932.08</ele>
        <time>2021-08-02T09:05:38Z</time>
      </trkpt>
      <trkpt lat="42.27536" lon="0.44117">
        <ele>936.09</ele>
        <time>2021-08-02T09:05:45Z</time>
      </trkpt>
      <trkpt lat="42.27492" lon="0.44007">
        <ele>938.35</ele>
        <time>2021-08-02T09:05:54Z</time>
      </trkpt>
      <trkpt lat="42.27472" lon="0.43958">
        <ele>937.96</ele>
        <time>2021-08-02T09:05:59Z</time>
      </trkpt>
      <trkpt lat="42.27473" lon="0.4392">
        <ele>937.78</ele>
        <time>2021-08-02T09:06:03Z</time>
      </trkpt>
      <trkpt lat="42.2748" lon="0.43892">
        <ele>937.68</ele>
        <time>2021-08-02T09:06:06Z</time>
      </trkpt>
      <trkpt lat="42.27499" lon="0.43855">
        <ele>937.42</ele>
        <time>2021-08-02T09:06:10Z</time>
      </trkpt>
      <trkpt lat="42.27505" lon="0.43792">
        <ele>937.43</ele>
        <time>2021-08-02T09:06:16Z</time>
      </trkpt>
      <trkpt lat="42.27467" lon="0.43703">
        <ele>935.4</ele>
        <time>2021-08-02T09:06:25Z</time>
      </trkpt>
      <trkpt lat="42.2743" lon="0.43653">
        <ele>933.5</ele>
        <time>2021-08-02T09:06:30Z</time>
      </trkpt>
      <trkpt lat="42.27366" lon="0.43601">
        <ele>930.62</ele>
        <time>2021-08-02T09:06:37Z</time>
      </trkpt>
      <trkpt lat="42.2734" lon="0.43549">
        <ele>927.5</ele>
        <time>2021-08-02T09:06:43Z</time>
      </trkpt>
      <trkpt lat="42.27322" lon="0.43459">
        <ele>923.81</ele>
        <time>2021-08-02T09:06:51Z</time>
      </trkpt>
      <trkpt lat="42.27278" lon="0.43401">
        <ele>920</ele>
        <time>2021-08-02T09:06:58Z</time>
      </trkpt>
      <trkpt lat="42.27273" lon="0.43388">
        <ele>919.57</ele>
        <time>2021-08-02T09:06:59Z</time>
      </trkpt>
      <trkpt lat="42.27261" lon="0.43347">
        <ele>918.26</ele>
        <time>2021-08-02T09:07:02Z</time>
      </trkpt>
      <trkpt lat="42.27268" lon="0.43294">
        <ele>916.04</ele>
        <time>2021-08-02T09:07:06Z</time>
      </trkpt>
      <trkpt lat="42.27257" lon="0.43213">
        <ele>912.41</ele>
        <time>2021-08-02T09:07:12Z</time>
      </trkpt>
      <trkpt lat="42.2724" lon="0.43179">
        <ele>911.03</ele>
        <time>2021-08-02T09:07:15Z</time>
      </trkpt>
      <trkpt lat="42.27219" lon="0.43147">
        <ele>909.65</ele>
        <time>2021-08-02T09:07:18Z</time>
      </trkpt>
      <trkpt lat="42.27197" lon="0.43092">
        <ele>907.7</ele>
        <time>2021-08-02T09:07:22Z</time>
      </trkpt>
      <trkpt lat="42.27193" lon="0.43039">
        <ele>905.17</ele>
        <time>2021-08-02T09:07:26Z</time>
      </trkpt>
      <trkpt lat="42.27167" lon="0.42928">
        <ele>901.55</ele>
        <time>2021-08-02T09:07:34Z</time>
      </trkpt>
      <trkpt lat="42.27163" lon="0.42915">
        <ele>901.4</ele>
        <time>2021-08-02T09:07:35Z</time>
      </trkpt>
      <trkpt lat="42.27154" lon="0.42893">
        <ele>901.14</ele>
        <time>2021-08-02T09:07:37Z</time>
      </trkpt>
      <trkpt lat="42.27147" lon="0.42841">
        <ele>900.71</ele>
        <time>2021-08-02T09:07:41Z</time>
      </trkpt>
      <trkpt lat="42.27145" lon="0.42815">
        <ele>900.19</ele>
        <time>2021-08-02T09:07:43Z</time>
      </trkpt>
      <trkpt lat="42.27102" lon="0.42775">
        <ele>897.92</ele>
        <time>2021-08-02T09:07:48Z</time>
      </trkpt>
      <trkpt lat="42.27045" lon="0.42739">
        <ele>896.19</ele>
        <time>2021-08-02T09:07:54Z</time>
      </trkpt>
      <trkpt lat="42.27034" lon="0.42692">
        <ele>893.82</ele>
        <time>2021-08-02T09:07:59Z</time>
      </trkpt>
      <trkpt lat="42.27021" lon="0.42606">
        <ele>890.3</ele>
        <time>2021-08-02T09:08:06Z</time>
      </trkpt>
      <trkpt lat="42.26981" lon="0.42577">
        <ele>887.83</ele>
        <time>2021-08-02T09:08:10Z</time>
      </trkpt>
      <trkpt lat="42.26945" lon="0.42558">
        <ele>885.42</ele>
        <time>2021-08-02T09:08:14Z</time>
      </trkpt>
      <trkpt lat="42.26912" lon="0.42523">
        <ele>883.34</ele>
        <time>2021-08-02T09:08:18Z</time>
      </trkpt>
      <trkpt lat="42.26875" lon="0.42474">
        <ele>881.14</ele>
        <time>2021-08-02T09:08:22Z</time>
      </trkpt>
      <trkpt lat="42.26825" lon="0.42422">
        <ele>876.62</ele>
        <time>2021-08-02T09:08:27Z</time>
      </trkpt>
      <trkpt lat="42.26779" lon="0.4235">
        <ele>872.08</ele>
        <time>2021-08-02T09:08:33Z</time>
      </trkpt>
      <trkpt lat="42.2673" lon="0.42299">
        <ele>868.64</ele>
        <time>2021-08-02T09:08:38Z</time>
      </trkpt>
      <trkpt lat="42.26684" lon="0.42255">
        <ele>865.09</ele>
        <time>2021-08-02T09:08:42Z</time>
      </trkpt>
      <trkpt lat="42.26647" lon="0.42224">
        <ele>861.83</ele>
        <time>2021-08-02T09:08:45Z</time>
      </trkpt>
      <trkpt lat="42.26603" lon="0.42171">
        <ele>857.21</ele>
        <time>2021-08-02T09:08:49Z</time>
      </trkpt>
      <trkpt lat="42.2657" lon="0.4213">
        <ele>853.4</ele>
        <time>2021-08-02T09:08:52Z</time>
      </trkpt>
      <trkpt lat="42.26558" lon="0.42117">
        <ele>852.24</ele>
        <time>2021-08-02T09:08:53Z</time>
      </trkpt>
      <trkpt lat="42.26506" lon="0.42089">
        <ele>847.23</ele>
        <time>2021-08-02T09:08:57Z</time>
      </trkpt>
      <trkpt lat="42.26469" lon="0.4205">
        <ele>841.71</ele>
        <time>2021-08-02T09:09:01Z</time>
      </trkpt>
      <trkpt lat="42.26454" lon="0.42023">
        <ele>839.14</ele>
        <time>2021-08-02T09:09:03Z</time>
      </trkpt>
      <trkpt lat="42.26411" lon="0.41989">
        <ele>834.49</ele>
        <time>2021-08-02T09:09:07Z</time>
      </trkpt>
      <trkpt lat="42.26372" lon="0.41984">
        <ele>831</ele>
        <time>2021-08-02T09:09:10Z</time>
      </trkpt>
      <trkpt lat="42.26333" lon="0.41982">
        <ele>827.8</ele>
        <time>2021-08-02T09:09:13Z</time>
      </trkpt>
      <trkpt lat="42.263" lon="0.41981">
        <ele>825.23</ele>
        <time>2021-08-02T09:09:16Z</time>
      </trkpt>
      <trkpt lat="42.26258" lon="0.41953">
        <ele>820.99</ele>
        <time>2021-08-02T09:09:21Z</time>
      </trkpt>
      <trkpt lat="42.26245" lon="0.41915">
        <ele>817.99</ele>
        <time>2021-08-02T09:09:25Z</time>
      </trkpt>
      <trkpt lat="42.26246" lon="0.41893">
        <ele>816.65</ele>
        <time>2021-08-02T09:09:27Z</time>
      </trkpt>
      <trkpt lat="42.26255" lon="0.4182">
        <ele>812.55</ele>
        <time>2021-08-02T09:09:34Z</time>
      </trkpt>
      <trkpt lat="42.26257" lon="0.41766">
        <ele>809.35</ele>
        <time>2021-08-02T09:09:39Z</time>
      </trkpt>
      <trkpt lat="42.26259" lon="0.41725">
        <ele>806.21</ele>
        <time>2021-08-02T09:09:43Z</time>
      </trkpt>
      <trkpt lat="42.26246" lon="0.41684">
        <ele>802</ele>
        <time>2021-08-02T09:09:48Z</time>
      </trkpt>
      <trkpt lat="42.26251" lon="0.41654">
        <ele>798.14</ele>
        <time>2021-08-02T09:09:53Z</time>
      </trkpt>
      <trkpt lat="42.26264" lon="0.41666">
        <ele>796.53</ele>
        <time>2021-08-02T09:09:55Z</time>
      </trkpt>
      <trkpt lat="42.26294" lon="0.41668">
        <ele>792.6</ele>
        <time>2021-08-02T09:10:02Z</time>
      </trkpt>
      <trkpt lat="42.26281" lon="0.4161">
        <ele>789.48</ele>
        <time>2021-08-02T09:10:08Z</time>
      </trkpt>
      <trkpt lat="42.26277" lon="0.41591">
        <ele>788.09</ele>
        <time>2021-08-02T09:10:10Z</time>
      </trkpt>
      <trkpt lat="42.26272" lon="0.41524">
        <ele>783.74</ele>
        <time>2021-08-02T09:10:16Z</time>
      </trkpt>
      <trkpt lat="42.26265" lon="0.41448">
        <ele>780.15</ele>
        <time>2021-08-02T09:10:21Z</time>
      </trkpt>
      <trkpt lat="42.26256" lon="0.41381">
        <ele>777.13</ele>
        <time>2021-08-02T09:10:25Z</time>
      </trkpt>
      <trkpt lat="42.2625" lon="0.41313">
        <ele>773.39</ele>
        <time>2021-08-02T09:10:29Z</time>
      </trkpt>
      <trkpt lat="42.26246" lon="0.41251">
        <ele>769.44</ele>
        <time>2021-08-02T09:10:33Z</time>
      </trkpt>
      <trkpt lat="42.26246" lon="0.41238">
        <ele>768.4</ele>
        <time>2021-08-02T09:10:34Z</time>
      </trkpt>
      <trkpt lat="42.26255" lon="0.41203">
        <ele>763.87</ele>
        <time>2021-08-02T09:10:38Z</time>
      </trkpt>
      <trkpt lat="42.26281" lon="0.41212">
        <ele>760.35</ele>
        <time>2021-08-02T09:10:41Z</time>
      </trkpt>
      <trkpt lat="42.26301" lon="0.41222">
        <ele>757.57</ele>
        <time>2021-08-02T09:10:44Z</time>
      </trkpt>
      <trkpt lat="42.26326" lon="0.41193">
        <ele>753.43</ele>
        <time>2021-08-02T09:10:50Z</time>
      </trkpt>
      <trkpt lat="42.26317" lon="0.41145">
        <ele>750.98</ele>
        <time>2021-08-02T09:10:54Z</time>
      </trkpt>
      <trkpt lat="42.26315" lon="0.41063">
        <ele>746.31</ele>
        <time>2021-08-02T09:11:01Z</time>
      </trkpt>
      <trkpt lat="42.2632" lon="0.41003">
        <ele>742.68</ele>
        <time>2021-08-02T09:11:06Z</time>
      </trkpt>
      <trkpt lat="42.26322" lon="0.40956">
        <ele>739.85</ele>
        <time>2021-08-02T09:11:10Z</time>
      </trkpt>
      <trkpt lat="42.2632" lon="0.4094">
        <ele>738.59</ele>
        <time>2021-08-02T09:11:12Z</time>
      </trkpt>
      <trkpt lat="42.26315" lon="0.4092">
        <ele>735.09</ele>
        <time>2021-08-02T09:11:17Z</time>
      </trkpt>
      <trkpt lat="42.26314" lon="0.40912">
        <ele>732.06</ele>
        <time>2021-08-02T09:11:27Z</time>
      </trkpt>
      <trkpt lat="42.26314" lon="0.40905">
        <ele>731.3</ele>
        <time>2021-08-02T09:11:39Z</time>
      </trkpt>
      <trkpt lat="42.26304" lon="0.40897">
        <ele>731.19</ele>
        <time>2021-08-02T09:11:45Z</time>
      </trkpt>
      <trkpt lat="42.26313" lon="0.4091">
        <ele>731.09</ele>
        <time>2021-08-02T09:11:48Z</time>
      </trkpt>
      <trkpt lat="42.26324" lon="0.40906">
        <ele>731.04</ele>
        <time>2021-08-02T09:11:54Z</time>
      </trkpt>
      <trkpt lat="42.26331" lon="0.40788">
        <ele>730.29</ele>
        <time>2021-08-02T09:12:05Z</time>
      </trkpt>
      <trkpt lat="42.26331" lon="0.40688">
        <ele>726.73</ele>
        <time>2021-08-02T09:12:13Z</time>
      </trkpt>
      <trkpt lat="42.26332" lon="0.40618">
        <ele>723.32</ele>
        <time>2021-08-02T09:12:18Z</time>
      </trkpt>
      <trkpt lat="42.26331" lon="0.40549">
        <ele>719.55</ele>
        <time>2021-08-02T09:12:23Z</time>
      </trkpt>
      <trkpt lat="42.26331" lon="0.40534">
        <ele>718.63</ele>
        <time>2021-08-02T09:12:24Z</time>
      </trkpt>
      <trkpt lat="42.2634" lon="0.40481">
        <ele>715.15</ele>
        <time>2021-08-02T09:12:28Z</time>
      </trkpt>
      <trkpt lat="42.26337" lon="0.40426">
        <ele>710.76</ele>
        <time>2021-08-02T09:12:33Z</time>
      </trkpt>
      <trkpt lat="42.26306" lon="0.40394">
        <ele>707</ele>
        <time>2021-08-02T09:12:37Z</time>
      </trkpt>
      <trkpt lat="42.26285" lon="0.40348">
        <ele>703.12</ele>
        <time>2021-08-02T09:12:41Z</time>
      </trkpt>
      <trkpt lat="42.2628" lon="0.40295">
        <ele>699.33</ele>
        <time>2021-08-02T09:12:45Z</time>
      </trkpt>
      <trkpt lat="42.26266" lon="0.40233">
        <ele>696.27</ele>
        <time>2021-08-02T09:12:50Z</time>
      </trkpt>
      <trkpt lat="42.26252" lon="0.40172">
        <ele>692.65</ele>
        <time>2021-08-02T09:12:55Z</time>
      </trkpt>
      <trkpt lat="42.26259" lon="0.40114">
        <ele>688.57</ele>
        <time>2021-08-02T09:13:00Z</time>
      </trkpt>
      <trkpt lat="42.26264" lon="0.40087">
        <ele>685.88</ele>
        <time>2021-08-02T09:13:03Z</time>
      </trkpt>
      <trkpt lat="42.26254" lon="0.40052">
        <ele>681.4</ele>
        <time>2021-08-02T09:13:08Z</time>
      </trkpt>
      <trkpt lat="42.26247" lon="0.40012">
        <ele>677.86</ele>
        <time>2021-08-02T09:13:13Z</time>
      </trkpt>
      <trkpt lat="42.26285" lon="0.3997">
        <ele>674.56</ele>
        <time>2021-08-02T09:13:19Z</time>
      </trkpt>
      <trkpt lat="42.2631" lon="0.39942">
        <ele>672.45</ele>
        <time>2021-08-02T09:13:24Z</time>
      </trkpt>
      <trkpt lat="42.26345" lon="0.39855">
        <ele>669.38</ele>
        <time>2021-08-02T09:13:32Z</time>
      </trkpt>
      <trkpt lat="42.26351" lon="0.39831">
        <ele>668.41</ele>
        <time>2021-08-02T09:13:34Z</time>
      </trkpt>
      <trkpt lat="42.2637" lon="0.39793">
        <ele>665.56</ele>
        <time>2021-08-02T09:13:38Z</time>
      </trkpt>
      <trkpt lat="42.26388" lon="0.3977">
        <ele>662.46</ele>
        <time>2021-08-02T09:13:43Z</time>
      </trkpt>
      <trkpt lat="42.26414" lon="0.39776">
        <ele>660.52</ele>
        <time>2021-08-02T09:13:47Z</time>
      </trkpt>
      <trkpt lat="42.26497" lon="0.39769">
        <ele>656.87</ele>
        <time>2021-08-02T09:13:55Z</time>
      </trkpt>
      <trkpt lat="42.26554" lon="0.39771">
        <ele>653.7</ele>
        <time>2021-08-02T09:14:00Z</time>
      </trkpt>
      <trkpt lat="42.26576" lon="0.39774">
        <ele>652.19</ele>
        <time>2021-08-02T09:14:02Z</time>
      </trkpt>
      <trkpt lat="42.26612" lon="0.398">
        <ele>648.34</ele>
        <time>2021-08-02T09:14:06Z</time>
      </trkpt>
      <trkpt lat="42.26652" lon="0.39804">
        <ele>642.94</ele>
        <time>2021-08-02T09:14:11Z</time>
      </trkpt>
      <trkpt lat="42.26685" lon="0.39793">
        <ele>640.15</ele>
        <time>2021-08-02T09:14:14Z</time>
      </trkpt>
      <trkpt lat="42.26706" lon="0.39787">
        <ele>638.4</ele>
        <time>2021-08-02T09:14:16Z</time>
      </trkpt>
      <trkpt lat="42.26767" lon="0.39748">
        <ele>635.81</ele>
        <time>2021-08-02T09:14:22Z</time>
      </trkpt>
      <trkpt lat="42.26814" lon="0.39707">
        <ele>634.7</ele>
        <time>2021-08-02T09:14:27Z</time>
      </trkpt>
      <trkpt lat="42.26859" lon="0.39744">
        <ele>632.33</ele>
        <time>2021-08-02T09:14:33Z</time>
      </trkpt>
      <trkpt lat="42.26866" lon="0.39759">
        <ele>631.95</ele>
        <time>2021-08-02T09:14:34Z</time>
      </trkpt>
      <trkpt lat="42.26902" lon="0.39853">
        <ele>627.63</ele>
        <time>2021-08-02T09:14:40Z</time>
      </trkpt>
      <trkpt lat="42.26922" lon="0.39924">
        <ele>624.04</ele>
        <time>2021-08-02T09:14:44Z</time>
      </trkpt>
      <trkpt lat="42.26957" lon="0.39996">
        <ele>619.18</ele>
        <time>2021-08-02T09:14:49Z</time>
      </trkpt>
      <trkpt lat="42.2697" lon="0.40032">
        <ele>616.86</ele>
        <time>2021-08-02T09:14:53Z</time>
      </trkpt>
      <trkpt lat="42.26991" lon="0.40069">
        <ele>616.36</ele>
        <time>2021-08-02T09:14:57Z</time>
      </trkpt>
      <trkpt lat="42.27027" lon="0.40107">
        <ele>616.58</ele>
        <time>2021-08-02T09:15:02Z</time>
      </trkpt>
      <trkpt lat="42.27062" lon="0.40129">
        <ele>616.9</ele>
        <time>2021-08-02T09:15:06Z</time>
      </trkpt>
      <trkpt lat="42.27087" lon="0.40173">
        <ele>617.28</ele>
        <time>2021-08-02T09:15:11Z</time>
      </trkpt>
      <trkpt lat="42.27122" lon="0.40231">
        <ele>617.02</ele>
        <time>2021-08-02T09:15:18Z</time>
      </trkpt>
      <trkpt lat="42.27161" lon="0.40234">
        <ele>615.38</ele>
        <time>2021-08-02T09:15:22Z</time>
      </trkpt>
      <trkpt lat="42.27199" lon="0.40224">
        <ele>613.59</ele>
        <time>2021-08-02T09:15:26Z</time>
      </trkpt>
      <trkpt lat="42.27223" lon="0.40205">
        <ele>612.81</ele>
        <time>2021-08-02T09:15:30Z</time>
      </trkpt>
      <trkpt lat="42.27264" lon="0.40204">
        <ele>612.27</ele>
        <time>2021-08-02T09:15:37Z</time>
      </trkpt>
      <trkpt lat="42.27276" lon="0.40197">
        <ele>614.79</ele>
        <time>2021-08-02T09:15:44Z</time>
      </trkpt>
      <trkpt lat="42.27265" lon="0.40187">
        <ele>615.29</ele>
        <time>2021-08-02T09:15:45Z</time>
      </trkpt>
      <trkpt lat="42.27223" lon="0.40149">
        <ele>617.54</ele>
        <time>2021-08-02T09:15:49Z</time>
      </trkpt>
      <trkpt lat="42.27187" lon="0.401">
        <ele>620.22</ele>
        <time>2021-08-02T09:15:53Z</time>
      </trkpt>
      <trkpt lat="42.27155" lon="0.40043">
        <ele>623.05</ele>
        <time>2021-08-02T09:15:57Z</time>
      </trkpt>
      <trkpt lat="42.27143" lon="0.39986">
        <ele>625.52</ele>
        <time>2021-08-02T09:16:01Z</time>
      </trkpt>
      <trkpt lat="42.27129" lon="0.39824">
        <ele>628.76</ele>
        <time>2021-08-02T09:16:11Z</time>
      </trkpt>
      <trkpt lat="42.27125" lon="0.39793">
        <ele>628.79</ele>
        <time>2021-08-02T09:16:13Z</time>
      </trkpt>
      <trkpt lat="42.27153" lon="0.39692">
        <ele>629.87</ele>
        <time>2021-08-02T09:16:20Z</time>
      </trkpt>
      <trkpt lat="42.27164" lon="0.39663">
        <ele>630.67</ele>
        <time>2021-08-02T09:16:22Z</time>
      </trkpt>
      <trkpt lat="42.27221" lon="0.3964">
        <ele>631.76</ele>
        <time>2021-08-02T09:16:28Z</time>
      </trkpt>
      <trkpt lat="42.27273" lon="0.39641">
        <ele>631.93</ele>
        <time>2021-08-02T09:16:32Z</time>
      </trkpt>
      <trkpt lat="42.2736" lon="0.39612">
        <ele>632.09</ele>
        <time>2021-08-02T09:16:39Z</time>
      </trkpt>
      <trkpt lat="42.27382" lon="0.39589">
        <ele>631.86</ele>
        <time>2021-08-02T09:16:42Z</time>
      </trkpt>
      <trkpt lat="42.27426" lon="0.39588">
        <ele>631.68</ele>
        <time>2021-08-02T09:16:47Z</time>
      </trkpt>
      <trkpt lat="42.2745" lon="0.39563">
        <ele>635.69</ele>
        <time>2021-08-02T09:16:54Z</time>
      </trkpt>
      <trkpt lat="42.27438" lon="0.39548">
        <ele>636.43</ele>
        <time>2021-08-02T09:16:55Z</time>
      </trkpt>
      <trkpt lat="42.27415" lon="0.39514">
        <ele>638.76</ele>
        <time>2021-08-02T09:16:58Z</time>
      </trkpt>
      <trkpt lat="42.27418" lon="0.39469">
        <ele>641.53</ele>
        <time>2021-08-02T09:17:02Z</time>
      </trkpt>
      <trkpt lat="42.27452" lon="0.39409">
        <ele>645.1</ele>
        <time>2021-08-02T09:17:07Z</time>
      </trkpt>
      <trkpt lat="42.2751" lon="0.39395">
        <ele>646.43</ele>
        <time>2021-08-02T09:17:13Z</time>
      </trkpt>
      <trkpt lat="42.2752" lon="0.394">
        <ele>646.43</ele>
        <time>2021-08-02T09:17:14Z</time>
      </trkpt>
      <trkpt lat="42.27548" lon="0.39418">
        <ele>645.92</ele>
        <time>2021-08-02T09:17:17Z</time>
      </trkpt>
      <trkpt lat="42.27616" lon="0.394">
        <ele>644.34</ele>
        <time>2021-08-02T09:17:24Z</time>
      </trkpt>
      <trkpt lat="42.27656" lon="0.3938">
        <ele>643.29</ele>
        <time>2021-08-02T09:17:29Z</time>
      </trkpt>
      <trkpt lat="42.27677" lon="0.39382">
        <ele>642.86</ele>
        <time>2021-08-02T09:17:31Z</time>
      </trkpt>
      <trkpt lat="42.2774" lon="0.39343">
        <ele>641.85</ele>
        <time>2021-08-02T09:17:37Z</time>
      </trkpt>
      <trkpt lat="42.27757" lon="0.39318">
        <ele>641.27</ele>
        <time>2021-08-02T09:17:39Z</time>
      </trkpt>
      <trkpt lat="42.27787" lon="0.39268">
        <ele>639.84</ele>
        <time>2021-08-02T09:17:43Z</time>
      </trkpt>
      <trkpt lat="42.27831" lon="0.3927">
        <ele>635.56</ele>
        <time>2021-08-02T09:17:48Z</time>
      </trkpt>
      <trkpt lat="42.27837" lon="0.3928">
        <ele>635.56</ele>
        <time>2021-08-02T09:17:49Z</time>
      </trkpt>
      <trkpt lat="42.27855" lon="0.39292">
        <ele>632.36</ele>
        <time>2021-08-02T09:17:52Z</time>
      </trkpt>
      <trkpt lat="42.27883" lon="0.39242">
        <ele>629.14</ele>
        <time>2021-08-02T09:17:57Z</time>
      </trkpt>
      <trkpt lat="42.27907" lon="0.39146">
        <ele>626.12</ele>
        <time>2021-08-02T09:18:03Z</time>
      </trkpt>
      <trkpt lat="42.27899" lon="0.39087">
        <ele>623.2</ele>
        <time>2021-08-02T09:18:09Z</time>
      </trkpt>
      <trkpt lat="42.27926" lon="0.39056">
        <ele>623.88</ele>
        <time>2021-08-02T09:18:14Z</time>
      </trkpt>
      <trkpt lat="42.27953" lon="0.39065">
        <ele>625.55</ele>
        <time>2021-08-02T09:18:17Z</time>
      </trkpt>
      <trkpt lat="42.28011" lon="0.39066">
        <ele>631.09</ele>
        <time>2021-08-02T09:18:23Z</time>
      </trkpt>
      <trkpt lat="42.28025" lon="0.39038">
        <ele>634.11</ele>
        <time>2021-08-02T09:18:26Z</time>
      </trkpt>
      <trkpt lat="42.28043" lon="0.39015">
        <ele>637.14</ele>
        <time>2021-08-02T09:18:29Z</time>
      </trkpt>
      <trkpt lat="42.28084" lon="0.39007">
        <ele>640.9</ele>
        <time>2021-08-02T09:18:33Z</time>
      </trkpt>
      <trkpt lat="42.28094" lon="0.39008">
        <ele>641.78</ele>
        <time>2021-08-02T09:18:34Z</time>
      </trkpt>
      <trkpt lat="42.28139" lon="0.39016">
        <ele>645.29</ele>
        <time>2021-08-02T09:18:38Z</time>
      </trkpt>
      <trkpt lat="42.28182" lon="0.39006">
        <ele>649.46</ele>
        <time>2021-08-02T09:18:42Z</time>
      </trkpt>
      <trkpt lat="42.28227" lon="0.38989">
        <ele>655.28</ele>
        <time>2021-08-02T09:18:47Z</time>
      </trkpt>
      <trkpt lat="42.28254" lon="0.38982">
        <ele>658.62</ele>
        <time>2021-08-02T09:18:50Z</time>
      </trkpt>
      <trkpt lat="42.28275" lon="0.38977">
        <ele>662.1</ele>
        <time>2021-08-02T09:18:53Z</time>
      </trkpt>
      <trkpt lat="42.28299" lon="0.38964">
        <ele>665.99</ele>
        <time>2021-08-02T09:18:57Z</time>
      </trkpt>
      <trkpt lat="42.28332" lon="0.38963">
        <ele>669.88</ele>
        <time>2021-08-02T09:19:05Z</time>
      </trkpt>
      <trkpt lat="42.28336" lon="0.38964">
        <ele>670.11</ele>
        <time>2021-08-02T09:19:06Z</time>
      </trkpt>
      <trkpt lat="42.28342" lon="0.38964">
        <ele>670.3</ele>
        <time>2021-08-02T09:19:07Z</time>
      </trkpt>
      <trkpt lat="42.28348" lon="0.38961">
        <ele>670.51</ele>
        <time>2021-08-02T09:19:08Z</time>
      </trkpt>
      <trkpt lat="42.28354" lon="0.38956">
        <ele>670.73</ele>
        <time>2021-08-02T09:19:09Z</time>
      </trkpt>
      <trkpt lat="42.28376" lon="0.38921">
        <ele>671.38</ele>
        <time>2021-08-02T09:19:13Z</time>
      </trkpt>
      <trkpt lat="42.28428" lon="0.38883">
        <ele>673.08</ele>
        <time>2021-08-02T09:19:21Z</time>
      </trkpt>
      <trkpt lat="42.28444" lon="0.38888">
        <ele>673.51</ele>
        <time>2021-08-02T09:19:23Z</time>
      </trkpt>
      <trkpt lat="42.28475" lon="0.38905">
        <ele>674.73</ele>
        <time>2021-08-02T09:19:27Z</time>
      </trkpt>
      <trkpt lat="42.28493" lon="0.38908">
        <ele>675.66</ele>
        <time>2021-08-02T09:19:29Z</time>
      </trkpt>
      <trkpt lat="42.28509" lon="0.38898">
        <ele>677.26</ele>
        <time>2021-08-02T09:19:31Z</time>
      </trkpt>
      <trkpt lat="42.28551" lon="0.38887">
        <ele>679.27</ele>
        <time>2021-08-02T09:19:36Z</time>
      </trkpt>
      <trkpt lat="42.28632" lon="0.38913">
        <ele>682.97</ele>
        <time>2021-08-02T09:19:44Z</time>
      </trkpt>
      <trkpt lat="42.28705" lon="0.38937">
        <ele>686.48</ele>
        <time>2021-08-02T09:19:50Z</time>
      </trkpt>
      <trkpt lat="42.2874" lon="0.38946">
        <ele>688.37</ele>
        <time>2021-08-02T09:19:55Z</time>
      </trkpt>
      <trkpt lat="42.28784" lon="0.38971">
        <ele>689.61</ele>
        <time>2021-08-02T09:20:02Z</time>
      </trkpt>
      <trkpt lat="42.28793" lon="0.38974">
        <ele>689.83</ele>
        <time>2021-08-02T09:20:03Z</time>
      </trkpt>
      <trkpt lat="42.28802" lon="0.38977">
        <ele>690.03</ele>
        <time>2021-08-02T09:20:04Z</time>
      </trkpt>
      <trkpt lat="42.28883" lon="0.38999">
        <ele>690.57</ele>
        <time>2021-08-02T09:20:13Z</time>
      </trkpt>
      <trkpt lat="42.2889" lon="0.39005">
        <ele>690.58</ele>
        <time>2021-08-02T09:20:14Z</time>
      </trkpt>
      <trkpt lat="42.28896" lon="0.39012">
        <ele>690.62</ele>
        <time>2021-08-02T09:20:15Z</time>
      </trkpt>
      <trkpt lat="42.28902" lon="0.39016">
        <ele>690.74</ele>
        <time>2021-08-02T09:20:16Z</time>
      </trkpt>
      <trkpt lat="42.28908" lon="0.39017">
        <ele>690.9</ele>
        <time>2021-08-02T09:20:17Z</time>
      </trkpt>
      <trkpt lat="42.28916" lon="0.39017">
        <ele>691.12</ele>
        <time>2021-08-02T09:20:18Z</time>
      </trkpt>
      <trkpt lat="42.28925" lon="0.39014">
        <ele>691.39</ele>
        <time>2021-08-02T09:20:19Z</time>
      </trkpt>
      <trkpt lat="42.28934" lon="0.3901">
        <ele>691.72</ele>
        <time>2021-08-02T09:20:20Z</time>
      </trkpt>
      <trkpt lat="42.28943" lon="0.39007">
        <ele>692.09</ele>
        <time>2021-08-02T09:20:21Z</time>
      </trkpt>
      <trkpt lat="42.28952" lon="0.39004">
        <ele>692.41</ele>
        <time>2021-08-02T09:20:22Z</time>
      </trkpt>
      <trkpt lat="42.28961" lon="0.39005">
        <ele>692.62</ele>
        <time>2021-08-02T09:20:23Z</time>
      </trkpt>
      <trkpt lat="42.28969" lon="0.39007">
        <ele>692.78</ele>
        <time>2021-08-02T09:20:24Z</time>
      </trkpt>
      <trkpt lat="42.28977" lon="0.3901">
        <ele>692.9</ele>
        <time>2021-08-02T09:20:25Z</time>
      </trkpt>
      <trkpt lat="42.28983" lon="0.39016">
        <ele>693</ele>
        <time>2021-08-02T09:20:26Z</time>
      </trkpt>
      <trkpt lat="42.2899" lon="0.39021">
        <ele>693.09</ele>
        <time>2021-08-02T09:20:27Z</time>
      </trkpt>
      <trkpt lat="42.28996" lon="0.39025">
        <ele>693.14</ele>
        <time>2021-08-02T09:20:28Z</time>
      </trkpt>
      <trkpt lat="42.29004" lon="0.39029">
        <ele>693.17</ele>
        <time>2021-08-02T09:20:29Z</time>
      </trkpt>
      <trkpt lat="42.29012" lon="0.39031">
        <ele>693.2</ele>
        <time>2021-08-02T09:20:30Z</time>
      </trkpt>
      <trkpt lat="42.29022" lon="0.3903">
        <ele>693.22</ele>
        <time>2021-08-02T09:20:31Z</time>
      </trkpt>
      <trkpt lat="42.29032" lon="0.39028">
        <ele>693.26</ele>
        <time>2021-08-02T09:20:32Z</time>
      </trkpt>
      <trkpt lat="42.29041" lon="0.39022">
        <ele>693.27</ele>
        <time>2021-08-02T09:20:33Z</time>
      </trkpt>
      <trkpt lat="42.2905" lon="0.39016">
        <ele>693.26</ele>
        <time>2021-08-02T09:20:34Z</time>
      </trkpt>
      <trkpt lat="42.29083" lon="0.38991">
        <ele>692.57</ele>
        <time>2021-08-02T09:20:38Z</time>
      </trkpt>
      <trkpt lat="42.29124" lon="0.38997">
        <ele>690.68</ele>
        <time>2021-08-02T09:20:44Z</time>
      </trkpt>
      <trkpt lat="42.29111" lon="0.3903">
        <ele>689.53</ele>
        <time>2021-08-02T09:20:49Z</time>
      </trkpt>
      <trkpt lat="42.29089" lon="0.39061">
        <ele>689.6</ele>
        <time>2021-08-02T09:20:53Z</time>
      </trkpt>
      <trkpt lat="42.29051" lon="0.3918">
        <ele>692.81</ele>
        <time>2021-08-02T09:21:02Z</time>
      </trkpt>
      <trkpt lat="42.29047" lon="0.39192">
        <ele>693.4</ele>
        <time>2021-08-02T09:21:03Z</time>
      </trkpt>
      <trkpt lat="42.2905" lon="0.39237">
        <ele>697.14</ele>
        <time>2021-08-02T09:21:09Z</time>
      </trkpt>
      <trkpt lat="42.29052" lon="0.39239">
        <ele>697.59</ele>
        <time>2021-08-02T09:21:10Z</time>
      </trkpt>
      <trkpt lat="42.29086" lon="0.39265">
        <ele>698.73</ele>
        <time>2021-08-02T09:21:17Z</time>
      </trkpt>
      <trkpt lat="42.29087" lon="0.393">
        <ele>697.27</ele>
        <time>2021-08-02T09:21:24Z</time>
      </trkpt>
      <trkpt lat="42.29077" lon="0.39302">
        <ele>696.47</ele>
        <time>2021-08-02T09:21:26Z</time>
      </trkpt>
      <trkpt lat="42.29039" lon="0.39304">
        <ele>693.25</ele>
        <time>2021-08-02T09:21:32Z</time>
      </trkpt>
      <trkpt lat="42.29002" lon="0.39293">
        <ele>689.38</ele>
        <time>2021-08-02T09:21:38Z</time>
      </trkpt>
      <trkpt lat="42.28986" lon="0.39291">
        <ele>686.35</ele>
        <time>2021-08-02T09:21:43Z</time>
      </trkpt>
      <trkpt lat="42.28984" lon="0.3929">
        <ele>683.24</ele>
        <time>2021-08-02T09:21:53Z</time>
      </trkpt>
      <trkpt lat="42.28955" lon="0.39286">
        <ele>682.14</ele>
        <time>2021-08-02T09:22:02Z</time>
      </trkpt>
      <trkpt lat="42.28914" lon="0.3931">
        <ele>680.51</ele>
        <time>2021-08-02T09:22:08Z</time>
      </trkpt>
      <trkpt lat="42.28865" lon="0.39379">
        <ele>679.12</ele>
        <time>2021-08-02T09:22:18Z</time>
      </trkpt>
      <trkpt lat="42.28861" lon="0.39388">
        <ele>679.19</ele>
        <time>2021-08-02T09:22:19Z</time>
      </trkpt>
      <trkpt lat="42.28872" lon="0.39458">
        <ele>681.28</ele>
        <time>2021-08-02T09:22:26Z</time>
      </trkpt>
      <trkpt lat="42.28887" lon="0.3948">
        <ele>684.52</ele>
        <time>2021-08-02T09:22:34Z</time>
      </trkpt>
      <trkpt lat="42.28888" lon="0.39481">
        <ele>685.55</ele>
        <time>2021-08-02T09:22:37Z</time>
      </trkpt>
      <trkpt lat="42.28897" lon="0.39482">
        <ele>686.36</ele>
        <time>2021-08-02T09:22:41Z</time>
      </trkpt>
      <trkpt lat="42.2891" lon="0.3948">
        <ele>687.28</ele>
        <time>2021-08-02T09:22:53Z</time>
      </trkpt>
      <trkpt lat="42.2891" lon="0.39481">
        <ele>686.64</ele>
        <time>2021-08-02T09:23:50Z</time>
      </trkpt>
      <trkpt lat="42.2891" lon="0.39481">
        <ele>687.1</ele>
        <time>2021-08-02T09:24:31Z</time>
      </trkpt>
      <trkpt lat="42.28908" lon="0.39481">
        <ele>687.1</ele>
        <time>2021-08-02T09:25:37Z</time>
      </trkpt>
      <trkpt lat="42.28908" lon="0.3948">
        <ele>687.1</ele>
        <time>2021-08-02T09:27:26Z</time>
      </trkpt>
      <trkpt lat="42.28908" lon="0.3948">
        <ele>687.1</ele>
        <time>2021-08-02T09:28:10Z</time>
      </trkpt>
      <trkpt lat="42.28907" lon="0.39479">
        <ele>687.1</ele>
        <time>2021-08-02T09:29:17Z</time>
      </trkpt>
      <trkpt lat="42.28906" lon="0.3948">
        <ele>687.1</ele>
        <time>2021-08-02T09:29:53Z</time>
      </trkpt>
      <trkpt lat="42.28905" lon="0.3948">
        <ele>687.1</ele>
        <time>2021-08-02T09:30:23Z</time>
      </trkpt>
      <trkpt lat="42.28905" lon="0.3948">
        <ele>687.1</ele>
        <time>2021-08-02T09:30:29Z</time>
      </trkpt>
      <trkpt lat="42.28898" lon="0.39483">
        <ele>687.1</ele>
        <time>2021-08-02T09:30:32Z</time>
      </trkpt>
      <trkpt lat="42.28894" lon="0.39489">
        <ele>687.35</ele>
        <time>2021-08-02T09:30:36Z</time>
      </trkpt>
      <trkpt lat="42.28882" lon="0.39471">
        <ele>687.84</ele>
        <time>2021-08-02T09:30:40Z</time>
      </trkpt>
      <trkpt lat="42.28867" lon="0.39449">
        <ele>688.11</ele>
        <time>2021-08-02T09:30:43Z</time>
      </trkpt>
      <trkpt lat="42.28865" lon="0.39381">
        <ele>686.76</ele>
        <time>2021-08-02T09:30:50Z</time>
      </trkpt>
      <trkpt lat="42.28876" lon="0.39361">
        <ele>685.94</ele>
        <time>2021-08-02T09:30:52Z</time>
      </trkpt>
      <trkpt lat="42.28916" lon="0.39305">
        <ele>683.52</ele>
        <time>2021-08-02T09:30:58Z</time>
      </trkpt>
      <trkpt lat="42.28974" lon="0.39284">
        <ele>681.56</ele>
        <time>2021-08-02T09:31:04Z</time>
      </trkpt>
      <trkpt lat="42.29045" lon="0.39295">
        <ele>684.29</ele>
        <time>2021-08-02T09:31:11Z</time>
      </trkpt>
      <trkpt lat="42.29091" lon="0.39292">
        <ele>688.25</ele>
        <time>2021-08-02T09:31:16Z</time>
      </trkpt>
      <trkpt lat="42.291" lon="0.39262">
        <ele>692.4</ele>
        <time>2021-08-02T09:31:21Z</time>
      </trkpt>
      <trkpt lat="42.29079" lon="0.39242">
        <ele>695.02</ele>
        <time>2021-08-02T09:31:24Z</time>
      </trkpt>
      <trkpt lat="42.29062" lon="0.39229">
        <ele>696.61</ele>
        <time>2021-08-02T09:31:26Z</time>
      </trkpt>
      <trkpt lat="42.29054" lon="0.39171">
        <ele>700.05</ele>
        <time>2021-08-02T09:31:32Z</time>
      </trkpt>
      <trkpt lat="42.2909" lon="0.39054">
        <ele>700.5</ele>
        <time>2021-08-02T09:31:40Z</time>
      </trkpt>
      <trkpt lat="42.29121" lon="0.38994">
        <ele>696.6</ele>
        <time>2021-08-02T09:31:47Z</time>
      </trkpt>
      <trkpt lat="42.29086" lon="0.38989">
        <ele>693.43</ele>
        <time>2021-08-02T09:31:52Z</time>
      </trkpt>
      <trkpt lat="42.29078" lon="0.38994">
        <ele>693.11</ele>
        <time>2021-08-02T09:31:53Z</time>
      </trkpt>
      <trkpt lat="42.29027" lon="0.39029">
        <ele>693.07</ele>
        <time>2021-08-02T09:31:59Z</time>
      </trkpt>
      <trkpt lat="42.29019" lon="0.39031">
        <ele>693.21</ele>
        <time>2021-08-02T09:32:00Z</time>
      </trkpt>
      <trkpt lat="42.2901" lon="0.39032">
        <ele>693.4</ele>
        <time>2021-08-02T09:32:01Z</time>
      </trkpt>
      <trkpt lat="42.29001" lon="0.3903">
        <ele>693.62</ele>
        <time>2021-08-02T09:32:02Z</time>
      </trkpt>
      <trkpt lat="42.28992" lon="0.39026">
        <ele>693.91</ele>
        <time>2021-08-02T09:32:03Z</time>
      </trkpt>
      <trkpt lat="42.28985" lon="0.39019">
        <ele>694.25</ele>
        <time>2021-08-02T09:32:04Z</time>
      </trkpt>
      <trkpt lat="42.28977" lon="0.39012">
        <ele>694.58</ele>
        <time>2021-08-02T09:32:05Z</time>
      </trkpt>
      <trkpt lat="42.28968" lon="0.39008">
        <ele>694.94</ele>
        <time>2021-08-02T09:32:06Z</time>
      </trkpt>
      <trkpt lat="42.28958" lon="0.39005">
        <ele>695.41</ele>
        <time>2021-08-02T09:32:07Z</time>
      </trkpt>
      <trkpt lat="42.28948" lon="0.39003">
        <ele>695.9</ele>
        <time>2021-08-02T09:32:08Z</time>
      </trkpt>
      <trkpt lat="42.28938" lon="0.39005">
        <ele>696.21</ele>
        <time>2021-08-02T09:32:09Z</time>
      </trkpt>
      <trkpt lat="42.28928" lon="0.39009">
        <ele>696.39</ele>
        <time>2021-08-02T09:32:10Z</time>
      </trkpt>
      <trkpt lat="42.28919" lon="0.39013">
        <ele>696.51</ele>
        <time>2021-08-02T09:32:11Z</time>
      </trkpt>
      <trkpt lat="42.2891" lon="0.39016">
        <ele>696.65</ele>
        <time>2021-08-02T09:32:12Z</time>
      </trkpt>
      <trkpt lat="42.28902" lon="0.39017">
        <ele>696.82</ele>
        <time>2021-08-02T09:32:13Z</time>
      </trkpt>
      <trkpt lat="42.28894" lon="0.39014">
        <ele>696.98</ele>
        <time>2021-08-02T09:32:14Z</time>
      </trkpt>
      <trkpt lat="42.28886" lon="0.39008">
        <ele>697.06</ele>
        <time>2021-08-02T09:32:15Z</time>
      </trkpt>
      <trkpt lat="42.28879" lon="0.39001">
        <ele>697.1</ele>
        <time>2021-08-02T09:32:16Z</time>
      </trkpt>
      <trkpt lat="42.28872" lon="0.38995">
        <ele>697.09</ele>
        <time>2021-08-02T09:32:17Z</time>
      </trkpt>
      <trkpt lat="42.28863" lon="0.38991">
        <ele>697.04</ele>
        <time>2021-08-02T09:32:18Z</time>
      </trkpt>
      <trkpt lat="42.28854" lon="0.38989">
        <ele>696.92</ele>
        <time>2021-08-02T09:32:19Z</time>
      </trkpt>
      <trkpt lat="42.28824" lon="0.38983">
        <ele>696.37</ele>
        <time>2021-08-02T09:32:22Z</time>
      </trkpt>
      <trkpt lat="42.28765" lon="0.38965">
        <ele>694.86</ele>
        <time>2021-08-02T09:32:28Z</time>
      </trkpt>
      <trkpt lat="42.2871" lon="0.38942">
        <ele>694.36</ele>
        <time>2021-08-02T09:32:34Z</time>
      </trkpt>
      <trkpt lat="42.2861" lon="0.38914">
        <ele>692.85</ele>
        <time>2021-08-02T09:32:44Z</time>
      </trkpt>
      <trkpt lat="42.28531" lon="0.3889">
        <ele>691.37</ele>
        <time>2021-08-02T09:32:51Z</time>
      </trkpt>
      <trkpt lat="42.28499" lon="0.38903">
        <ele>689.31</ele>
        <time>2021-08-02T09:32:55Z</time>
      </trkpt>
      <trkpt lat="42.28458" lon="0.38904">
        <ele>686.4</ele>
        <time>2021-08-02T09:33:00Z</time>
      </trkpt>
      <trkpt lat="42.28431" lon="0.38891">
        <ele>684.97</ele>
        <time>2021-08-02T09:33:03Z</time>
      </trkpt>
      <trkpt lat="42.28375" lon="0.38906">
        <ele>681.7</ele>
        <time>2021-08-02T09:33:10Z</time>
      </trkpt>
      <trkpt lat="42.28347" lon="0.38957">
        <ele>678.73</ele>
        <time>2021-08-02T09:33:16Z</time>
      </trkpt>
      <trkpt lat="42.2834" lon="0.3896">
        <ele>678.29</ele>
        <time>2021-08-02T09:33:17Z</time>
      </trkpt>
      <trkpt lat="42.28334" lon="0.38963">
        <ele>677.89</ele>
        <time>2021-08-02T09:33:18Z</time>
      </trkpt>
      <trkpt lat="42.28328" lon="0.38962">
        <ele>677.46</ele>
        <time>2021-08-02T09:33:19Z</time>
      </trkpt>
      <trkpt lat="42.28322" lon="0.3896">
        <ele>677.03</ele>
        <time>2021-08-02T09:33:20Z</time>
      </trkpt>
      <trkpt lat="42.28282" lon="0.38965">
        <ele>675.77</ele>
        <time>2021-08-02T09:33:26Z</time>
      </trkpt>
      <trkpt lat="42.28194" lon="0.38992">
        <ele>673.78</ele>
        <time>2021-08-02T09:33:36Z</time>
      </trkpt>
      <trkpt lat="42.28165" lon="0.39009">
        <ele>671.68</ele>
        <time>2021-08-02T09:33:39Z</time>
      </trkpt>
      <trkpt lat="42.2812" lon="0.39015">
        <ele>667.76</ele>
        <time>2021-08-02T09:33:43Z</time>
      </trkpt>
      <trkpt lat="42.28074" lon="0.3901">
        <ele>663.56</ele>
        <time>2021-08-02T09:33:47Z</time>
      </trkpt>
      <trkpt lat="42.28063" lon="0.3901">
        <ele>662.31</ele>
        <time>2021-08-02T09:33:48Z</time>
      </trkpt>
      <trkpt lat="42.28024" lon="0.39031">
        <ele>657.52</ele>
        <time>2021-08-02T09:33:52Z</time>
      </trkpt>
      <trkpt lat="42.28012" lon="0.39053">
        <ele>655.5</ele>
        <time>2021-08-02T09:33:54Z</time>
      </trkpt>
      <trkpt lat="42.27977" lon="0.39089">
        <ele>650.47</ele>
        <time>2021-08-02T09:33:59Z</time>
      </trkpt>
      <trkpt lat="42.27946" lon="0.39078">
        <ele>646.96</ele>
        <time>2021-08-02T09:34:02Z</time>
      </trkpt>
      <trkpt lat="42.27937" lon="0.39073">
        <ele>645.81</ele>
        <time>2021-08-02T09:34:03Z</time>
      </trkpt>
      <trkpt lat="42.27902" lon="0.39071">
        <ele>640.02</ele>
        <time>2021-08-02T09:34:08Z</time>
      </trkpt>
      <trkpt lat="42.2789" lon="0.391">
        <ele>636.57</ele>
        <time>2021-08-02T09:34:11Z</time>
      </trkpt>
      <trkpt lat="42.27902" lon="0.39128">
        <ele>633.29</ele>
        <time>2021-08-02T09:34:14Z</time>
      </trkpt>
      <trkpt lat="42.279" lon="0.39151">
        <ele>630.92</ele>
        <time>2021-08-02T09:34:16Z</time>
      </trkpt>
      <trkpt lat="42.27883" lon="0.39222">
        <ele>626.74</ele>
        <time>2021-08-02T09:34:21Z</time>
      </trkpt>
      <trkpt lat="42.27868" lon="0.39283">
        <ele>626.85</ele>
        <time>2021-08-02T09:34:25Z</time>
      </trkpt>
      <trkpt lat="42.27831" lon="0.39295">
        <ele>627.89</ele>
        <time>2021-08-02T09:34:30Z</time>
      </trkpt>
      <trkpt lat="42.27784" lon="0.39274">
        <ele>630.19</ele>
        <time>2021-08-02T09:34:35Z</time>
      </trkpt>
      <trkpt lat="42.27754" lon="0.39318">
        <ele>633.46</ele>
        <time>2021-08-02T09:34:39Z</time>
      </trkpt>
      <trkpt lat="42.27736" lon="0.39349">
        <ele>635.27</ele>
        <time>2021-08-02T09:34:41Z</time>
      </trkpt>
      <trkpt lat="42.27684" lon="0.39389">
        <ele>639.42</ele>
        <time>2021-08-02T09:34:45Z</time>
      </trkpt>
      <trkpt lat="42.27634" lon="0.39389">
        <ele>642.81</ele>
        <time>2021-08-02T09:34:49Z</time>
      </trkpt>
      <trkpt lat="42.27598" lon="0.39426">
        <ele>644.73</ele>
        <time>2021-08-02T09:34:53Z</time>
      </trkpt>
      <trkpt lat="42.27533" lon="0.39427">
        <ele>646.28</ele>
        <time>2021-08-02T09:34:58Z</time>
      </trkpt>
      <trkpt lat="42.27508" lon="0.39413">
        <ele>646.89</ele>
        <time>2021-08-02T09:35:00Z</time>
      </trkpt>
      <trkpt lat="42.27473" lon="0.39405">
        <ele>647.85</ele>
        <time>2021-08-02T09:35:03Z</time>
      </trkpt>
      <trkpt lat="42.27446" lon="0.39424">
        <ele>648.81</ele>
        <time>2021-08-02T09:35:07Z</time>
      </trkpt>
      <trkpt lat="42.27412" lon="0.39478">
        <ele>649.92</ele>
        <time>2021-08-02T09:35:12Z</time>
      </trkpt>
      <trkpt lat="42.27414" lon="0.39525">
        <ele>650.14</ele>
        <time>2021-08-02T09:35:17Z</time>
      </trkpt>
      <trkpt lat="42.27421" lon="0.39535">
        <ele>649.94</ele>
        <time>2021-08-02T09:35:18Z</time>
      </trkpt>
      <trkpt lat="42.27441" lon="0.39567">
        <ele>649.22</ele>
        <time>2021-08-02T09:35:21Z</time>
      </trkpt>
      <trkpt lat="42.27437" lon="0.39608">
        <ele>646.82</ele>
        <time>2021-08-02T09:35:26Z</time>
      </trkpt>
      <trkpt lat="42.27415" lon="0.39595">
        <ele>645.46</ele>
        <time>2021-08-02T09:35:28Z</time>
      </trkpt>
      <trkpt lat="42.27392" lon="0.39586">
        <ele>644.2</ele>
        <time>2021-08-02T09:35:30Z</time>
      </trkpt>
      <trkpt lat="42.2736" lon="0.396">
        <ele>641.08</ele>
        <time>2021-08-02T09:35:34Z</time>
      </trkpt>
      <trkpt lat="42.27307" lon="0.39634">
        <ele>637.35</ele>
        <time>2021-08-02T09:35:39Z</time>
      </trkpt>
      <trkpt lat="42.27248" lon="0.3965">
        <ele>637.3</ele>
        <time>2021-08-02T09:35:43Z</time>
      </trkpt>
      <trkpt lat="42.27207" lon="0.39641">
        <ele>637.47</ele>
        <time>2021-08-02T09:35:46Z</time>
      </trkpt>
      <trkpt lat="42.27155" lon="0.39663">
        <ele>636.91</ele>
        <time>2021-08-02T09:35:52Z</time>
      </trkpt>
      <trkpt lat="42.27152" lon="0.39675">
        <ele>636.76</ele>
        <time>2021-08-02T09:35:53Z</time>
      </trkpt>
      <trkpt lat="42.27124" lon="0.39767">
        <ele>635.28</ele>
        <time>2021-08-02T09:36:00Z</time>
      </trkpt>
      <trkpt lat="42.27125" lon="0.39829">
        <ele>633.73</ele>
        <time>2021-08-02T09:36:05Z</time>
      </trkpt>
      <trkpt lat="42.27145" lon="0.39948">
        <ele>631.46</ele>
        <time>2021-08-02T09:36:14Z</time>
      </trkpt>
      <trkpt lat="42.27155" lon="0.39957">
        <ele>631.18</ele>
        <time>2021-08-02T09:36:19Z</time>
      </trkpt>
      <trkpt lat="42.27161" lon="0.39946">
        <ele>630.25</ele>
        <time>2021-08-02T09:36:35Z</time>
      </trkpt>
      <trkpt lat="42.27165" lon="0.39937">
        <ele>630.34</ele>
        <time>2021-08-02T09:36:38Z</time>
      </trkpt>
      <trkpt lat="42.27183" lon="0.39917">
        <ele>630.82</ele>
        <time>2021-08-02T09:36:42Z</time>
      </trkpt>
      <trkpt lat="42.27216" lon="0.39925">
        <ele>632.33</ele>
        <time>2021-08-02T09:36:47Z</time>
      </trkpt>
      <trkpt lat="42.27247" lon="0.39989">
        <ele>636.25</ele>
        <time>2021-08-02T09:36:53Z</time>
      </trkpt>
      <trkpt lat="42.27258" lon="0.40011">
        <ele>637.99</ele>
        <time>2021-08-02T09:36:55Z</time>
      </trkpt>
      <trkpt lat="42.2728" lon="0.40016">
        <ele>642.53</ele>
        <time>2021-08-02T09:37:00Z</time>
      </trkpt>
      <trkpt lat="42.27281" lon="0.40005">
        <ele>643.23</ele>
        <time>2021-08-02T09:37:01Z</time>
      </trkpt>
      <trkpt lat="42.27311" lon="0.39951">
        <ele>647.83</ele>
        <time>2021-08-02T09:37:08Z</time>
      </trkpt>
      <trkpt lat="42.27325" lon="0.40006">
        <ele>650.81</ele>
        <time>2021-08-02T09:37:12Z</time>
      </trkpt>
      <trkpt lat="42.2733" lon="0.40017">
        <ele>651.53</ele>
        <time>2021-08-02T09:37:13Z</time>
      </trkpt>
      <trkpt lat="42.27361" lon="0.40076">
        <ele>656.6</ele>
        <time>2021-08-02T09:37:19Z</time>
      </trkpt>
      <trkpt lat="42.2738" lon="0.40105">
        <ele>660.8</ele>
        <time>2021-08-02T09:37:24Z</time>
      </trkpt>
      <trkpt lat="42.2738" lon="0.40083">
        <ele>663.72</ele>
        <time>2021-08-02T09:37:27Z</time>
      </trkpt>
      <trkpt lat="42.27373" lon="0.40056">
        <ele>665.35</ele>
        <time>2021-08-02T09:37:29Z</time>
      </trkpt>
      <trkpt lat="42.27387" lon="0.40021">
        <ele>669.03</ele>
        <time>2021-08-02T09:37:35Z</time>
      </trkpt>
      <trkpt lat="42.27393" lon="0.40046">
        <ele>670.71</ele>
        <time>2021-08-02T09:37:37Z</time>
      </trkpt>
      <trkpt lat="42.27409" lon="0.40096">
        <ele>673.49</ele>
        <time>2021-08-02T09:37:41Z</time>
      </trkpt>
      <trkpt lat="42.27445" lon="0.40132">
        <ele>677.73</ele>
        <time>2021-08-02T09:37:46Z</time>
      </trkpt>
      <trkpt lat="42.27502" lon="0.40151">
        <ele>682.25</ele>
        <time>2021-08-02T09:37:51Z</time>
      </trkpt>
      <trkpt lat="42.27513" lon="0.40155">
        <ele>683.37</ele>
        <time>2021-08-02T09:37:52Z</time>
      </trkpt>
      <trkpt lat="42.27559" lon="0.40159">
        <ele>687.53</ele>
        <time>2021-08-02T09:37:56Z</time>
      </trkpt>
      <trkpt lat="42.27591" lon="0.40145">
        <ele>691.06</ele>
        <time>2021-08-02T09:37:59Z</time>
      </trkpt>
      <trkpt lat="42.27626" lon="0.40144">
        <ele>694.13</ele>
        <time>2021-08-02T09:38:02Z</time>
      </trkpt>
      <trkpt lat="42.2769" lon="0.40159">
        <ele>698.97</ele>
        <time>2021-08-02T09:38:07Z</time>
      </trkpt>
      <trkpt lat="42.27743" lon="0.40172">
        <ele>702.59</ele>
        <time>2021-08-02T09:38:11Z</time>
      </trkpt>
      <trkpt lat="42.27755" lon="0.40174">
        <ele>703.41</ele>
        <time>2021-08-02T09:38:12Z</time>
      </trkpt>
      <trkpt lat="42.27814" lon="0.40171">
        <ele>707.37</ele>
        <time>2021-08-02T09:38:17Z</time>
      </trkpt>
      <trkpt lat="42.27825" lon="0.40178">
        <ele>707.82</ele>
        <time>2021-08-02T09:38:18Z</time>
      </trkpt>
      <trkpt lat="42.27849" lon="0.40192">
        <ele>708.84</ele>
        <time>2021-08-02T09:38:20Z</time>
      </trkpt>
      <trkpt lat="42.27884" lon="0.40177">
        <ele>712.39</ele>
        <time>2021-08-02T09:38:25Z</time>
      </trkpt>
      <trkpt lat="42.27911" lon="0.4016">
        <ele>715.7</ele>
        <time>2021-08-02T09:38:30Z</time>
      </trkpt>
      <trkpt lat="42.27916" lon="0.40174">
        <ele>716.3</ele>
        <time>2021-08-02T09:38:31Z</time>
      </trkpt>
      <trkpt lat="42.27943" lon="0.40235">
        <ele>720.63</ele>
        <time>2021-08-02T09:38:37Z</time>
      </trkpt>
      <trkpt lat="42.2795" lon="0.40252">
        <ele>723.94</ele>
        <time>2021-08-02T09:38:41Z</time>
      </trkpt>
      <trkpt lat="42.27953" lon="0.40261">
        <ele>727.3</ele>
        <time>2021-08-02T09:38:47Z</time>
      </trkpt>
      <trkpt lat="42.27963" lon="0.40287">
        <ele>729.88</ele>
        <time>2021-08-02T09:38:57Z</time>
      </trkpt>
      <trkpt lat="42.27983" lon="0.40336">
        <ele>732.1</ele>
        <time>2021-08-02T09:39:04Z</time>
      </trkpt>
      <trkpt lat="42.28001" lon="0.4036">
        <ele>734.26</ele>
        <time>2021-08-02T09:39:08Z</time>
      </trkpt>
      <trkpt lat="42.28053" lon="0.40386">
        <ele>738.44</ele>
        <time>2021-08-02T09:39:15Z</time>
      </trkpt>
      <trkpt lat="42.28089" lon="0.40401">
        <ele>741.48</ele>
        <time>2021-08-02T09:39:19Z</time>
      </trkpt>
      <trkpt lat="42.28133" lon="0.40419">
        <ele>744.87</ele>
        <time>2021-08-02T09:39:24Z</time>
      </trkpt>
      <trkpt lat="42.28183" lon="0.40438">
        <ele>748.08</ele>
        <time>2021-08-02T09:39:29Z</time>
      </trkpt>
      <trkpt lat="42.28233" lon="0.40459">
        <ele>751.07</ele>
        <time>2021-08-02T09:39:34Z</time>
      </trkpt>
      <trkpt lat="42.28298" lon="0.40516">
        <ele>755.03</ele>
        <time>2021-08-02T09:39:41Z</time>
      </trkpt>
      <trkpt lat="42.28344" lon="0.40574">
        <ele>758.64</ele>
        <time>2021-08-02T09:39:47Z</time>
      </trkpt>
      <trkpt lat="42.28384" lon="0.40622">
        <ele>762.16</ele>
        <time>2021-08-02T09:39:52Z</time>
      </trkpt>
      <trkpt lat="42.28424" lon="0.40666">
        <ele>765.34</ele>
        <time>2021-08-02T09:39:57Z</time>
      </trkpt>
      <trkpt lat="42.28466" lon="0.40702">
        <ele>768.4</ele>
        <time>2021-08-02T09:40:02Z</time>
      </trkpt>
      <trkpt lat="42.28522" lon="0.40749">
        <ele>771.48</ele>
        <time>2021-08-02T09:40:08Z</time>
      </trkpt>
      <trkpt lat="42.28592" lon="0.40807">
        <ele>774.55</ele>
        <time>2021-08-02T09:40:15Z</time>
      </trkpt>
      <trkpt lat="42.28642" lon="0.40848">
        <ele>777.86</ele>
        <time>2021-08-02T09:40:21Z</time>
      </trkpt>
      <trkpt lat="42.28689" lon="0.40886">
        <ele>780.96</ele>
        <time>2021-08-02T09:40:26Z</time>
      </trkpt>
      <trkpt lat="42.28739" lon="0.40929">
        <ele>784.56</ele>
        <time>2021-08-02T09:40:32Z</time>
      </trkpt>
      <trkpt lat="42.28796" lon="0.40977">
        <ele>788.06</ele>
        <time>2021-08-02T09:40:38Z</time>
      </trkpt>
      <trkpt lat="42.28841" lon="0.41017">
        <ele>790.37</ele>
        <time>2021-08-02T09:40:43Z</time>
      </trkpt>
      <trkpt lat="42.28903" lon="0.41109">
        <ele>793.99</ele>
        <time>2021-08-02T09:40:51Z</time>
      </trkpt>
      <trkpt lat="42.28942" lon="0.4117">
        <ele>797.32</ele>
        <time>2021-08-02T09:40:56Z</time>
      </trkpt>
      <trkpt lat="42.28971" lon="0.41212">
        <ele>800.6</ele>
        <time>2021-08-02T09:41:00Z</time>
      </trkpt>
      <trkpt lat="42.29001" lon="0.41258">
        <ele>803.67</ele>
        <time>2021-08-02T09:41:05Z</time>
      </trkpt>
      <trkpt lat="42.29029" lon="0.41301">
        <ele>805.69</ele>
        <time>2021-08-02T09:41:09Z</time>
      </trkpt>
      <trkpt lat="42.29042" lon="0.41373">
        <ele>806.65</ele>
        <time>2021-08-02T09:41:14Z</time>
      </trkpt>
      <trkpt lat="42.29046" lon="0.41478">
        <ele>809.95</ele>
        <time>2021-08-02T09:41:22Z</time>
      </trkpt>
      <trkpt lat="42.29049" lon="0.41544">
        <ele>813.18</ele>
        <time>2021-08-02T09:41:27Z</time>
      </trkpt>
      <trkpt lat="42.29079" lon="0.41584">
        <ele>817.19</ele>
        <time>2021-08-02T09:41:32Z</time>
      </trkpt>
      <trkpt lat="42.29118" lon="0.41614">
        <ele>821.21</ele>
        <time>2021-08-02T09:41:37Z</time>
      </trkpt>
      <trkpt lat="42.29155" lon="0.41646">
        <ele>824.83</ele>
        <time>2021-08-02T09:41:41Z</time>
      </trkpt>
      <trkpt lat="42.29196" lon="0.41681">
        <ele>828.45</ele>
        <time>2021-08-02T09:41:46Z</time>
      </trkpt>
      <trkpt lat="42.29217" lon="0.41701">
        <ele>831.62</ele>
        <time>2021-08-02T09:41:53Z</time>
      </trkpt>
      <trkpt lat="42.29225" lon="0.41708">
        <ele>832.23</ele>
        <time>2021-08-02T09:41:55Z</time>
      </trkpt>
      <trkpt lat="42.29278" lon="0.41738">
        <ele>834.71</ele>
        <time>2021-08-02T09:42:04Z</time>
      </trkpt>
      <trkpt lat="42.2931" lon="0.4175">
        <ele>837</ele>
        <time>2021-08-02T09:42:10Z</time>
      </trkpt>
      <trkpt lat="42.29369" lon="0.41822">
        <ele>840.77</ele>
        <time>2021-08-02T09:42:21Z</time>
      </trkpt>
      <trkpt lat="42.29414" lon="0.41891">
        <ele>844.13</ele>
        <time>2021-08-02T09:42:28Z</time>
      </trkpt>
      <trkpt lat="42.29466" lon="0.4194">
        <ele>847.24</ele>
        <time>2021-08-02T09:42:34Z</time>
      </trkpt>
      <trkpt lat="42.29473" lon="0.41947">
        <ele>848.46</ele>
        <time>2021-08-02T09:42:35Z</time>
      </trkpt>
      <trkpt lat="42.29519" lon="0.41971">
        <ele>852.74</ele>
        <time>2021-08-02T09:42:41Z</time>
      </trkpt>
      <trkpt lat="42.2955" lon="0.41993">
        <ele>855.9</ele>
        <time>2021-08-02T09:42:45Z</time>
      </trkpt>
      <trkpt lat="42.29581" lon="0.42019">
        <ele>859.21</ele>
        <time>2021-08-02T09:42:49Z</time>
      </trkpt>
      <trkpt lat="42.29598" lon="0.42029">
        <ele>861.3</ele>
        <time>2021-08-02T09:42:51Z</time>
      </trkpt>
      <trkpt lat="42.29645" lon="0.42044">
        <ele>866.27</ele>
        <time>2021-08-02T09:42:56Z</time>
      </trkpt>
      <trkpt lat="42.29678" lon="0.42053">
        <ele>868.53</ele>
        <time>2021-08-02T09:42:59Z</time>
      </trkpt>
      <trkpt lat="42.29783" lon="0.42053">
        <ele>872.12</ele>
        <time>2021-08-02T09:43:09Z</time>
      </trkpt>
      <trkpt lat="42.29792" lon="0.42054">
        <ele>872.57</ele>
        <time>2021-08-02T09:43:10Z</time>
      </trkpt>
      <trkpt lat="42.29823" lon="0.42038">
        <ele>874.58</ele>
        <time>2021-08-02T09:43:14Z</time>
      </trkpt>
      <trkpt lat="42.29865" lon="0.41999">
        <ele>878.51</ele>
        <time>2021-08-02T09:43:19Z</time>
      </trkpt>
      <trkpt lat="42.29896" lon="0.41972">
        <ele>883.1</ele>
        <time>2021-08-02T09:43:24Z</time>
      </trkpt>
      <trkpt lat="42.29906" lon="0.41961">
        <ele>885.12</ele>
        <time>2021-08-02T09:43:26Z</time>
      </trkpt>
      <trkpt lat="42.29921" lon="0.41967">
        <ele>889.46</ele>
        <time>2021-08-02T09:43:31Z</time>
      </trkpt>
      <trkpt lat="42.29915" lon="0.41979">
        <ele>891.04</ele>
        <time>2021-08-02T09:43:33Z</time>
      </trkpt>
      <trkpt lat="42.29906" lon="0.41994">
        <ele>892.58</ele>
        <time>2021-08-02T09:43:35Z</time>
      </trkpt>
      <trkpt lat="42.29912" lon="0.42042">
        <ele>896.77</ele>
        <time>2021-08-02T09:43:41Z</time>
      </trkpt>
      <trkpt lat="42.2993" lon="0.42029">
        <ele>898.63</ele>
        <time>2021-08-02T09:43:44Z</time>
      </trkpt>
      <trkpt lat="42.29969" lon="0.4202">
        <ele>902.82</ele>
        <time>2021-08-02T09:43:51Z</time>
      </trkpt>
      <trkpt lat="42.29975" lon="0.42025">
        <ele>904.16</ele>
        <time>2021-08-02T09:43:53Z</time>
      </trkpt>
      <trkpt lat="42.30016" lon="0.42056">
        <ele>908.06</ele>
        <time>2021-08-02T09:44:00Z</time>
      </trkpt>
      <trkpt lat="42.30029" lon="0.42063">
        <ele>909.58</ele>
        <time>2021-08-02T09:44:02Z</time>
      </trkpt>
      <trkpt lat="42.3006" lon="0.42067">
        <ele>913.57</ele>
        <time>2021-08-02T09:44:06Z</time>
      </trkpt>
      <trkpt lat="42.3009" lon="0.4207">
        <ele>917.33</ele>
        <time>2021-08-02T09:44:10Z</time>
      </trkpt>
      <trkpt lat="42.30119" lon="0.42068">
        <ele>921.48</ele>
        <time>2021-08-02T09:44:14Z</time>
      </trkpt>
      <trkpt lat="42.30134" lon="0.42067">
        <ele>923.67</ele>
        <time>2021-08-02T09:44:16Z</time>
      </trkpt>
      <trkpt lat="42.30155" lon="0.4206">
        <ele>929.03</ele>
        <time>2021-08-02T09:44:20Z</time>
      </trkpt>
      <trkpt lat="42.30186" lon="0.42048">
        <ele>932.64</ele>
        <time>2021-08-02T09:44:24Z</time>
      </trkpt>
      <trkpt lat="42.30221" lon="0.4203">
        <ele>935.85</ele>
        <time>2021-08-02T09:44:29Z</time>
      </trkpt>
      <trkpt lat="42.30232" lon="0.42021">
        <ele>936.86</ele>
        <time>2021-08-02T09:44:31Z</time>
      </trkpt>
      <trkpt lat="42.30293" lon="0.41999">
        <ele>940.79</ele>
        <time>2021-08-02T09:44:39Z</time>
      </trkpt>
      <trkpt lat="42.30336" lon="0.42001">
        <ele>943.83</ele>
        <time>2021-08-02T09:44:44Z</time>
      </trkpt>
      <trkpt lat="42.30373" lon="0.42006">
        <ele>947.55</ele>
        <time>2021-08-02T09:44:49Z</time>
      </trkpt>
      <trkpt lat="42.30381" lon="0.42006">
        <ele>948.25</ele>
        <time>2021-08-02T09:44:50Z</time>
      </trkpt>
      <trkpt lat="42.30407" lon="0.42021">
        <ele>950.62</ele>
        <time>2021-08-02T09:44:54Z</time>
      </trkpt>
      <trkpt lat="42.30493" lon="0.4209">
        <ele>953.07</ele>
        <time>2021-08-02T09:45:05Z</time>
      </trkpt>
      <trkpt lat="42.30512" lon="0.42112">
        <ele>953.97</ele>
        <time>2021-08-02T09:45:08Z</time>
      </trkpt>
      <trkpt lat="42.30523" lon="0.42154">
        <ele>955.71</ele>
        <time>2021-08-02T09:45:13Z</time>
      </trkpt>
      <trkpt lat="42.30523" lon="0.42175">
        <ele>956.88</ele>
        <time>2021-08-02T09:45:15Z</time>
      </trkpt>
      <trkpt lat="42.30555" lon="0.42221">
        <ele>960.42</ele>
        <time>2021-08-02T09:45:22Z</time>
      </trkpt>
      <trkpt lat="42.30561" lon="0.42224">
        <ele>960.99</ele>
        <time>2021-08-02T09:45:23Z</time>
      </trkpt>
      <trkpt lat="42.30592" lon="0.4224">
        <ele>964.44</ele>
        <time>2021-08-02T09:45:28Z</time>
      </trkpt>
      <trkpt lat="42.30613" lon="0.4227">
        <ele>967.26</ele>
        <time>2021-08-02T09:45:32Z</time>
      </trkpt>
      <trkpt lat="42.3063" lon="0.42271">
        <ele>971.23</ele>
        <time>2021-08-02T09:45:39Z</time>
      </trkpt>
      <trkpt lat="42.30627" lon="0.42263">
        <ele>971.67</ele>
        <time>2021-08-02T09:45:40Z</time>
      </trkpt>
      <trkpt lat="42.30622" lon="0.42236">
        <ele>973.35</ele>
        <time>2021-08-02T09:45:43Z</time>
      </trkpt>
      <trkpt lat="42.3059" lon="0.42193">
        <ele>977.67</ele>
        <time>2021-08-02T09:45:49Z</time>
      </trkpt>
      <trkpt lat="42.30567" lon="0.4218">
        <ele>981.74</ele>
        <time>2021-08-02T09:45:53Z</time>
      </trkpt>
      <trkpt lat="42.30567" lon="0.4213">
        <ele>985.05</ele>
        <time>2021-08-02T09:45:59Z</time>
      </trkpt>
      <trkpt lat="42.30567" lon="0.42113">
        <ele>986.31</ele>
        <time>2021-08-02T09:46:01Z</time>
      </trkpt>
      <trkpt lat="42.30563" lon="0.42066">
        <ele>989.89</ele>
        <time>2021-08-02T09:46:08Z</time>
      </trkpt>
      <trkpt lat="42.30572" lon="0.42051">
        <ele>992.81</ele>
        <time>2021-08-02T09:46:16Z</time>
      </trkpt>
      <trkpt lat="42.30571" lon="0.4205">
        <ele>994.34</ele>
        <time>2021-08-02T09:46:24Z</time>
      </trkpt>
      <trkpt lat="42.306" lon="0.42053">
        <ele>996.34</ele>
        <time>2021-08-02T09:46:36Z</time>
      </trkpt>
      <trkpt lat="42.30628" lon="0.42062">
        <ele>999.57</ele>
        <time>2021-08-02T09:46:47Z</time>
      </trkpt>
      <trkpt lat="42.30665" lon="0.42072">
        <ele>1001.77</ele>
        <time>2021-08-02T09:46:55Z</time>
      </trkpt>
      <trkpt lat="42.30703" lon="0.4209">
        <ele>1005.08</ele>
        <time>2021-08-02T09:47:05Z</time>
      </trkpt>
      <trkpt lat="42.30743" lon="0.42125">
        <ele>1008.49</ele>
        <time>2021-08-02T09:47:15Z</time>
      </trkpt>
      <trkpt lat="42.3076" lon="0.42139">
        <ele>1009.93</ele>
        <time>2021-08-02T09:47:18Z</time>
      </trkpt>
      <trkpt lat="42.30788" lon="0.42144">
        <ele>1012.36</ele>
        <time>2021-08-02T09:47:22Z</time>
      </trkpt>
      <trkpt lat="42.3081" lon="0.42162">
        <ele>1017.47</ele>
        <time>2021-08-02T09:47:28Z</time>
      </trkpt>
      <trkpt lat="42.30797" lon="0.42176">
        <ele>1021.17</ele>
        <time>2021-08-02T09:47:31Z</time>
      </trkpt>
      <trkpt lat="42.30807" lon="0.42195">
        <ele>1024.31</ele>
        <time>2021-08-02T09:47:36Z</time>
      </trkpt>
      <trkpt lat="42.3082" lon="0.42193">
        <ele>1025.64</ele>
        <time>2021-08-02T09:47:38Z</time>
      </trkpt>
      <trkpt lat="42.3088" lon="0.42179">
        <ele>1029.87</ele>
        <time>2021-08-02T09:47:45Z</time>
      </trkpt>
      <trkpt lat="42.30888" lon="0.4218">
        <ele>1030.32</ele>
        <time>2021-08-02T09:47:46Z</time>
      </trkpt>
      <trkpt lat="42.30928" lon="0.42162">
        <ele>1033.9</ele>
        <time>2021-08-02T09:47:52Z</time>
      </trkpt>
      <trkpt lat="42.30967" lon="0.4213">
        <ele>1037.86</ele>
        <time>2021-08-02T09:47:58Z</time>
      </trkpt>
      <trkpt lat="42.30998" lon="0.42101">
        <ele>1039.77</ele>
        <time>2021-08-02T09:48:02Z</time>
      </trkpt>
      <trkpt lat="42.31059" lon="0.42068">
        <ele>1041.97</ele>
        <time>2021-08-02T09:48:09Z</time>
      </trkpt>
      <trkpt lat="42.31108" lon="0.42067">
        <ele>1043.13</ele>
        <time>2021-08-02T09:48:15Z</time>
      </trkpt>
      <trkpt lat="42.31116" lon="0.4206">
        <ele>1043.36</ele>
        <time>2021-08-02T09:48:16Z</time>
      </trkpt>
      <trkpt lat="42.31146" lon="0.42035">
        <ele>1043.82</ele>
        <time>2021-08-02T09:48:20Z</time>
      </trkpt>
      <trkpt lat="42.3117" lon="0.42025">
        <ele>1043.88</ele>
        <time>2021-08-02T09:48:23Z</time>
      </trkpt>
      <trkpt lat="42.31222" lon="0.42028">
        <ele>1043.24</ele>
        <time>2021-08-02T09:48:30Z</time>
      </trkpt>
      <trkpt lat="42.31256" lon="0.41972">
        <ele>1043.83</ele>
        <time>2021-08-02T09:48:36Z</time>
      </trkpt>
      <trkpt lat="42.31302" lon="0.41917">
        <ele>1044.16</ele>
        <time>2021-08-02T09:48:44Z</time>
      </trkpt>
      <trkpt lat="42.31328" lon="0.41909">
        <ele>1044.2</ele>
        <time>2021-08-02T09:48:47Z</time>
      </trkpt>
      <trkpt lat="42.31366" lon="0.41877">
        <ele>1044.7</ele>
        <time>2021-08-02T09:48:52Z</time>
      </trkpt>
      <trkpt lat="42.31384" lon="0.41839">
        <ele>1045.12</ele>
        <time>2021-08-02T09:48:56Z</time>
      </trkpt>
      <trkpt lat="42.31429" lon="0.41777">
        <ele>1045.53</ele>
        <time>2021-08-02T09:49:03Z</time>
      </trkpt>
      <trkpt lat="42.31491" lon="0.41743">
        <ele>1045.38</ele>
        <time>2021-08-02T09:49:11Z</time>
      </trkpt>
      <trkpt lat="42.31503" lon="0.41725">
        <ele>1045.74</ele>
        <time>2021-08-02T09:49:15Z</time>
      </trkpt>
      <trkpt lat="42.31502" lon="0.41723">
        <ele>1047.53</ele>
        <time>2021-08-02T09:49:28Z</time>
      </trkpt>
      <trkpt lat="42.31505" lon="0.41719">
        <ele>1047.33</ele>
        <time>2021-08-02T09:50:57Z</time>
      </trkpt>
      <trkpt lat="42.31506" lon="0.41713">
        <ele>1047.76</ele>
        <time>2021-08-02T09:51:03Z</time>
      </trkpt>
      <trkpt lat="42.31508" lon="0.41721">
        <ele>1048.26</ele>
        <time>2021-08-02T09:51:08Z</time>
      </trkpt>
      <trkpt lat="42.31502" lon="0.41725">
        <ele>1048.64</ele>
        <time>2021-08-02T09:51:13Z</time>
      </trkpt>
      <trkpt lat="42.31473" lon="0.41756">
        <ele>1046.77</ele>
        <time>2021-08-02T09:51:26Z</time>
      </trkpt>
      <trkpt lat="42.31434" lon="0.41776">
        <ele>1046.39</ele>
        <time>2021-08-02T09:51:32Z</time>
      </trkpt>
      <trkpt lat="42.31394" lon="0.41821">
        <ele>1046.13</ele>
        <time>2021-08-02T09:51:39Z</time>
      </trkpt>
      <trkpt lat="42.31372" lon="0.4187">
        <ele>1045.88</ele>
        <time>2021-08-02T09:51:45Z</time>
      </trkpt>
      <trkpt lat="42.31334" lon="0.41912">
        <ele>1045.98</ele>
        <time>2021-08-02T09:51:52Z</time>
      </trkpt>
      <trkpt lat="42.31279" lon="0.41932">
        <ele>1045.98</ele>
        <time>2021-08-02T09:51:59Z</time>
      </trkpt>
      <trkpt lat="42.31253" lon="0.41972">
        <ele>1045.44</ele>
        <time>2021-08-02T09:52:04Z</time>
      </trkpt>
      <trkpt lat="42.31247" lon="0.41994">
        <ele>1045.28</ele>
        <time>2021-08-02T09:52:06Z</time>
      </trkpt>
      <trkpt lat="42.31222" lon="0.4203">
        <ele>1045.27</ele>
        <time>2021-08-02T09:52:11Z</time>
      </trkpt>
      <trkpt lat="42.31179" lon="0.42035">
        <ele>1044.89</ele>
        <time>2021-08-02T09:52:18Z</time>
      </trkpt>
      <trkpt lat="42.31166" lon="0.42015">
        <ele>1043.74</ele>
        <time>2021-08-02T09:52:23Z</time>
      </trkpt>
      <trkpt lat="42.31166" lon="0.42005">
        <ele>1043.02</ele>
        <time>2021-08-02T09:52:25Z</time>
      </trkpt>
      <trkpt lat="42.31162" lon="0.41965">
        <ele>1040.24</ele>
        <time>2021-08-02T09:52:31Z</time>
      </trkpt>
      <trkpt lat="42.31151" lon="0.41939">
        <ele>1037.75</ele>
        <time>2021-08-02T09:52:35Z</time>
      </trkpt>
      <trkpt lat="42.31153" lon="0.41894">
        <ele>1033.99</ele>
        <time>2021-08-02T09:52:42Z</time>
      </trkpt>
      <trkpt lat="42.31156" lon="0.41891">
        <ele>1033.33</ele>
        <time>2021-08-02T09:52:43Z</time>
      </trkpt>
      <trkpt lat="42.3116" lon="0.41888">
        <ele>1031.92</ele>
        <time>2021-08-02T09:52:45Z</time>
      </trkpt>
      <trkpt lat="42.31162" lon="0.41885">
        <ele>1028.3</ele>
        <time>2021-08-02T09:52:53Z</time>
      </trkpt>
      <trkpt lat="42.31162" lon="0.41882">
        <ele>1027.5</ele>
        <time>2021-08-02T09:52:59Z</time>
      </trkpt>
      <trkpt lat="42.31166" lon="0.41875">
        <ele>1027.42</ele>
        <time>2021-08-02T09:53:01Z</time>
      </trkpt>
      <trkpt lat="42.31178" lon="0.41859">
        <ele>1026.87</ele>
        <time>2021-08-02T09:53:05Z</time>
      </trkpt>
      <trkpt lat="42.31184" lon="0.41832">
        <ele>1025.9</ele>
        <time>2021-08-02T09:53:09Z</time>
      </trkpt>
      <trkpt lat="42.3119" lon="0.41779">
        <ele>1023.76</ele>
        <time>2021-08-02T09:53:16Z</time>
      </trkpt>
      <trkpt lat="42.31191" lon="0.41761">
        <ele>1022.55</ele>
        <time>2021-08-02T09:53:19Z</time>
      </trkpt>
      <trkpt lat="42.31194" lon="0.41742">
        <ele>1020.87</ele>
        <time>2021-08-02T09:53:22Z</time>
      </trkpt>
      <trkpt lat="42.31202" lon="0.41704">
        <ele>1017.14</ele>
        <time>2021-08-02T09:53:29Z</time>
      </trkpt>
      <trkpt lat="42.31205" lon="0.417">
        <ele>1016.7</ele>
        <time>2021-08-02T09:53:30Z</time>
      </trkpt>
      <trkpt lat="42.31237" lon="0.41666">
        <ele>1013.17</ele>
        <time>2021-08-02T09:53:41Z</time>
      </trkpt>
      <trkpt lat="42.31248" lon="0.41623">
        <ele>1010.13</ele>
        <time>2021-08-02T09:53:51Z</time>
      </trkpt>
      <trkpt lat="42.31247" lon="0.41563">
        <ele>1006.95</ele>
        <time>2021-08-02T09:54:02Z</time>
      </trkpt>
      <trkpt lat="42.31243" lon="0.41524">
        <ele>1003.64</ele>
        <time>2021-08-02T09:54:10Z</time>
      </trkpt>
      <trkpt lat="42.31239" lon="0.41511">
        <ele>1002.45</ele>
        <time>2021-08-02T09:54:13Z</time>
      </trkpt>
      <trkpt lat="42.31234" lon="0.41484">
        <ele>1000.72</ele>
        <time>2021-08-02T09:54:17Z</time>
      </trkpt>
      <trkpt lat="42.31228" lon="0.41441">
        <ele>998</ele>
        <time>2021-08-02T09:54:24Z</time>
      </trkpt>
      <trkpt lat="42.31225" lon="0.41419">
        <ele>997.29</ele>
        <time>2021-08-02T09:54:27Z</time>
      </trkpt>
      <trkpt lat="42.31202" lon="0.41378">
        <ele>995.75</ele>
        <time>2021-08-02T09:54:33Z</time>
      </trkpt>
      <trkpt lat="42.31188" lon="0.41367">
        <ele>994.9</ele>
        <time>2021-08-02T09:54:36Z</time>
      </trkpt>
      <trkpt lat="42.31146" lon="0.41373">
        <ele>992.16</ele>
        <time>2021-08-02T09:54:45Z</time>
      </trkpt>
      <trkpt lat="42.31124" lon="0.41345">
        <ele>989.75</ele>
        <time>2021-08-02T09:54:51Z</time>
      </trkpt>
      <trkpt lat="42.31119" lon="0.4134">
        <ele>989.34</ele>
        <time>2021-08-02T09:54:52Z</time>
      </trkpt>
      <trkpt lat="42.31092" lon="0.4131">
        <ele>986.95</ele>
        <time>2021-08-02T09:54:57Z</time>
      </trkpt>
      <trkpt lat="42.31056" lon="0.41258">
        <ele>983.87</ele>
        <time>2021-08-02T09:55:03Z</time>
      </trkpt>
      <trkpt lat="42.31023" lon="0.41235">
        <ele>982.18</ele>
        <time>2021-08-02T09:55:07Z</time>
      </trkpt>
      <trkpt lat="42.30994" lon="0.41177">
        <ele>980.04</ele>
        <time>2021-08-02T09:55:14Z</time>
      </trkpt>
      <trkpt lat="42.30984" lon="0.41161">
        <ele>979.5</ele>
        <time>2021-08-02T09:55:17Z</time>
      </trkpt>
      <trkpt lat="42.30947" lon="0.41134">
        <ele>979.1</ele>
        <time>2021-08-02T09:55:23Z</time>
      </trkpt>
      <trkpt lat="42.30916" lon="0.41109">
        <ele>979.61</ele>
        <time>2021-08-02T09:55:29Z</time>
      </trkpt>
      <trkpt lat="42.3086" lon="0.41031">
        <ele>980</ele>
        <time>2021-08-02T09:55:41Z</time>
      </trkpt>
      <trkpt lat="42.3085" lon="0.41012">
        <ele>979.26</ele>
        <time>2021-08-02T09:55:44Z</time>
      </trkpt>
      <trkpt lat="42.30843" lon="0.41001">
        <ele>978.66</ele>
        <time>2021-08-02T09:55:46Z</time>
      </trkpt>
      <trkpt lat="42.30826" lon="0.40963">
        <ele>975.31</ele>
        <time>2021-08-02T09:55:53Z</time>
      </trkpt>
      <trkpt lat="42.3081" lon="0.40931">
        <ele>972.82</ele>
        <time>2021-08-02T09:55:59Z</time>
      </trkpt>
      <trkpt lat="42.30805" lon="0.40921">
        <ele>972.21</ele>
        <time>2021-08-02T09:56:01Z</time>
      </trkpt>
      <trkpt lat="42.30792" lon="0.40908">
        <ele>970.14</ele>
        <time>2021-08-02T09:56:06Z</time>
      </trkpt>
      <trkpt lat="42.30766" lon="0.40875">
        <ele>966.55</ele>
        <time>2021-08-02T09:56:16Z</time>
      </trkpt>
      <trkpt lat="42.30751" lon="0.40839">
        <ele>963.22</ele>
        <time>2021-08-02T09:56:26Z</time>
      </trkpt>
      <trkpt lat="42.30747" lon="0.40834">
        <ele>962.65</ele>
        <time>2021-08-02T09:56:28Z</time>
      </trkpt>
      <trkpt lat="42.30726" lon="0.40831">
        <ele>960.02</ele>
        <time>2021-08-02T09:56:40Z</time>
      </trkpt>
      <trkpt lat="42.30722" lon="0.40829">
        <ele>959.48</ele>
        <time>2021-08-02T09:56:42Z</time>
      </trkpt>
      <trkpt lat="42.30712" lon="0.40835">
        <ele>957.87</ele>
        <time>2021-08-02T09:56:48Z</time>
      </trkpt>
      <trkpt lat="42.3071" lon="0.40838">
        <ele>957.4</ele>
        <time>2021-08-02T09:56:50Z</time>
      </trkpt>
      <trkpt lat="42.30705" lon="0.40858">
        <ele>956.29</ele>
        <time>2021-08-02T09:56:57Z</time>
      </trkpt>
      <trkpt lat="42.30694" lon="0.40848">
        <ele>955.21</ele>
        <time>2021-08-02T09:57:04Z</time>
      </trkpt>
      <trkpt lat="42.30694" lon="0.40843">
        <ele>955.07</ele>
        <time>2021-08-02T09:57:05Z</time>
      </trkpt>
      <trkpt lat="42.30697" lon="0.40803">
        <ele>951.85</ele>
        <time>2021-08-02T09:57:16Z</time>
      </trkpt>
      <trkpt lat="42.30695" lon="0.40801">
        <ele>948.76</ele>
        <time>2021-08-02T09:57:31Z</time>
      </trkpt>
      <trkpt lat="42.30694" lon="0.40799">
        <ele>948.59</ele>
        <time>2021-08-02T09:57:32Z</time>
      </trkpt>
      <trkpt lat="42.30685" lon="0.40773">
        <ele>946.44</ele>
        <time>2021-08-02T09:57:43Z</time>
      </trkpt>
      <trkpt lat="42.30684" lon="0.40769">
        <ele>944.92</ele>
        <time>2021-08-02T09:58:10Z</time>
      </trkpt>
      <trkpt lat="42.30686" lon="0.40765">
        <ele>945.15</ele>
        <time>2021-08-02T09:58:21Z</time>
      </trkpt>
      <trkpt lat="42.30677" lon="0.40741">
        <ele>943.87</ele>
        <time>2021-08-02T09:58:36Z</time>
      </trkpt>
      <trkpt lat="42.30651" lon="0.40717">
        <ele>941.61</ele>
        <time>2021-08-02T09:58:48Z</time>
      </trkpt>
      <trkpt lat="42.30636" lon="0.40701">
        <ele>938.49</ele>
        <time>2021-08-02T09:58:58Z</time>
      </trkpt>
      <trkpt lat="42.30636" lon="0.40699">
        <ele>935.49</ele>
        <time>2021-08-02T09:59:28Z</time>
      </trkpt>
      <trkpt lat="42.30627" lon="0.40692">
        <ele>935.11</ele>
        <time>2021-08-02T10:00:27Z</time>
      </trkpt>
      <trkpt lat="42.30612" lon="0.40676">
        <ele>932.71</ele>
        <time>2021-08-02T10:00:39Z</time>
      </trkpt>
      <trkpt lat="42.30605" lon="0.40671">
        <ele>930.13</ele>
        <time>2021-08-02T10:00:52Z</time>
      </trkpt>
      <trkpt lat="42.30595" lon="0.40663">
        <ele>929.26</ele>
        <time>2021-08-02T10:00:59Z</time>
      </trkpt>
      <trkpt lat="42.30574" lon="0.40621">
        <ele>927.74</ele>
        <time>2021-08-02T10:01:12Z</time>
      </trkpt>
      <trkpt lat="42.30557" lon="0.40582">
        <ele>926.22</ele>
        <time>2021-08-02T10:01:21Z</time>
      </trkpt>
      <trkpt lat="42.30554" lon="0.40559">
        <ele>925.35</ele>
        <time>2021-08-02T10:01:25Z</time>
      </trkpt>
      <trkpt lat="42.30549" lon="0.40536">
        <ele>922.07</ele>
        <time>2021-08-02T10:01:37Z</time>
      </trkpt>
      <trkpt lat="42.30545" lon="0.40528">
        <ele>920.09</ele>
        <time>2021-08-02T10:02:05Z</time>
      </trkpt>
      <trkpt lat="42.30533" lon="0.40502">
        <ele>919.39</ele>
        <time>2021-08-02T10:02:18Z</time>
      </trkpt>
      <trkpt lat="42.30519" lon="0.40459">
        <ele>916.7</ele>
        <time>2021-08-02T10:02:35Z</time>
      </trkpt>
      <trkpt lat="42.30519" lon="0.40433">
        <ele>914.7</ele>
        <time>2021-08-02T10:02:47Z</time>
      </trkpt>
      <trkpt lat="42.30522" lon="0.40414">
        <ele>913.32</ele>
        <time>2021-08-02T10:03:01Z</time>
      </trkpt>
      <trkpt lat="42.3053" lon="0.40381">
        <ele>911.65</ele>
        <time>2021-08-02T10:03:13Z</time>
      </trkpt>
      <trkpt lat="42.30543" lon="0.40344">
        <ele>909.91</ele>
        <time>2021-08-02T10:03:25Z</time>
      </trkpt>
      <trkpt lat="42.30544" lon="0.40336">
        <ele>909.03</ele>
        <time>2021-08-02T10:03:28Z</time>
      </trkpt>
      <trkpt lat="42.30529" lon="0.40324">
        <ele>906.67</ele>
        <time>2021-08-02T10:03:40Z</time>
      </trkpt>
      <trkpt lat="42.30528" lon="0.40324">
        <ele>905.23</ele>
        <time>2021-08-02T10:04:03Z</time>
      </trkpt>
      <trkpt lat="42.30513" lon="0.4033">
        <ele>904.33</ele>
        <time>2021-08-02T10:04:16Z</time>
      </trkpt>
      <trkpt lat="42.30482" lon="0.40341">
        <ele>901.83</ele>
        <time>2021-08-02T10:04:28Z</time>
      </trkpt>
      <trkpt lat="42.30458" lon="0.4035">
        <ele>898.8</ele>
        <time>2021-08-02T10:04:38Z</time>
      </trkpt>
      <trkpt lat="42.3043" lon="0.40335">
        <ele>895.92</ele>
        <time>2021-08-02T10:04:51Z</time>
      </trkpt>
      <trkpt lat="42.30407" lon="0.40306">
        <ele>894.61</ele>
        <time>2021-08-02T10:04:57Z</time>
      </trkpt>
      <trkpt lat="42.30368" lon="0.40273">
        <ele>891.05</ele>
        <time>2021-08-02T10:05:08Z</time>
      </trkpt>
      <trkpt lat="42.3035" lon="0.40257">
        <ele>887.83</ele>
        <time>2021-08-02T10:05:18Z</time>
      </trkpt>
      <trkpt lat="42.30331" lon="0.40246">
        <ele>884.56</ele>
        <time>2021-08-02T10:05:29Z</time>
      </trkpt>
      <trkpt lat="42.30327" lon="0.40245">
        <ele>884.33</ele>
        <time>2021-08-02T10:05:30Z</time>
      </trkpt>
      <trkpt lat="42.30288" lon="0.40224">
        <ele>882.04</ele>
        <time>2021-08-02T10:05:39Z</time>
      </trkpt>
      <trkpt lat="42.30268" lon="0.40204">
        <ele>880.58</ele>
        <time>2021-08-02T10:05:44Z</time>
      </trkpt>
      <trkpt lat="42.30242" lon="0.40166">
        <ele>878.48</ele>
        <time>2021-08-02T10:05:51Z</time>
      </trkpt>
      <trkpt lat="42.30231" lon="0.40153">
        <ele>877.52</ele>
        <time>2021-08-02T10:05:54Z</time>
      </trkpt>
      <trkpt lat="42.30203" lon="0.40115">
        <ele>875.3</ele>
        <time>2021-08-02T10:06:05Z</time>
      </trkpt>
      <trkpt lat="42.30197" lon="0.401">
        <ele>874.54</ele>
        <time>2021-08-02T10:06:09Z</time>
      </trkpt>
      <trkpt lat="42.30188" lon="0.40089">
        <ele>873.9</ele>
        <time>2021-08-02T10:06:13Z</time>
      </trkpt>
      <trkpt lat="42.30182" lon="0.40082">
        <ele>873.51</ele>
        <time>2021-08-02T10:06:16Z</time>
      </trkpt>
      <trkpt lat="42.30162" lon="0.40039">
        <ele>871.09</ele>
        <time>2021-08-02T10:06:29Z</time>
      </trkpt>
      <trkpt lat="42.30143" lon="0.3998">
        <ele>868.12</ele>
        <time>2021-08-02T10:06:43Z</time>
      </trkpt>
      <trkpt lat="42.3012" lon="0.39936">
        <ele>865.51</ele>
        <time>2021-08-02T10:06:55Z</time>
      </trkpt>
      <trkpt lat="42.30094" lon="0.39881">
        <ele>862.95</ele>
        <time>2021-08-02T10:07:07Z</time>
      </trkpt>
      <trkpt lat="42.30087" lon="0.39851">
        <ele>860.83</ele>
        <time>2021-08-02T10:07:17Z</time>
      </trkpt>
      <trkpt lat="42.30075" lon="0.39804">
        <ele>857.77</ele>
        <time>2021-08-02T10:07:30Z</time>
      </trkpt>
      <trkpt lat="42.30061" lon="0.39776">
        <ele>855.33</ele>
        <time>2021-08-02T10:07:43Z</time>
      </trkpt>
      <trkpt lat="42.30057" lon="0.39768">
        <ele>854.37</ele>
        <time>2021-08-02T10:07:48Z</time>
      </trkpt>
      <trkpt lat="42.30038" lon="0.39739">
        <ele>851.66</ele>
        <time>2021-08-02T10:08:04Z</time>
      </trkpt>
      <trkpt lat="42.30035" lon="0.3973">
        <ele>850.13</ele>
        <time>2021-08-02T10:08:26Z</time>
      </trkpt>
      <trkpt lat="42.30021" lon="0.39694">
        <ele>849.18</ele>
        <time>2021-08-02T10:08:36Z</time>
      </trkpt>
      <trkpt lat="42.30015" lon="0.39656">
        <ele>846.92</ele>
        <time>2021-08-02T10:08:48Z</time>
      </trkpt>
      <trkpt lat="42.30015" lon="0.39654">
        <ele>846.73</ele>
        <time>2021-08-02T10:08:49Z</time>
      </trkpt>
      <trkpt lat="42.30012" lon="0.39604">
        <ele>843.73</ele>
        <time>2021-08-02T10:09:02Z</time>
      </trkpt>
      <trkpt lat="42.30013" lon="0.39551">
        <ele>841.73</ele>
        <time>2021-08-02T10:09:13Z</time>
      </trkpt>
      <trkpt lat="42.30013" lon="0.39544">
        <ele>841.56</ele>
        <time>2021-08-02T10:09:14Z</time>
      </trkpt>
      <trkpt lat="42.3002" lon="0.39517">
        <ele>840.9</ele>
        <time>2021-08-02T10:09:18Z</time>
      </trkpt>
      <trkpt lat="42.30032" lon="0.3949">
        <ele>840.33</ele>
        <time>2021-08-02T10:09:24Z</time>
      </trkpt>
      <trkpt lat="42.30033" lon="0.39472">
        <ele>840.39</ele>
        <time>2021-08-02T10:09:36Z</time>
      </trkpt>
      <trkpt lat="42.30042" lon="0.39438">
        <ele>842.79</ele>
        <time>2021-08-02T10:09:56Z</time>
      </trkpt>
      <trkpt lat="42.30049" lon="0.39419">
        <ele>843.03</ele>
        <time>2021-08-02T10:09:59Z</time>
      </trkpt>
      <trkpt lat="42.30053" lon="0.39383">
        <ele>842.68</ele>
        <time>2021-08-02T10:10:05Z</time>
      </trkpt>
      <trkpt lat="42.30057" lon="0.3932">
        <ele>841.18</ele>
        <time>2021-08-02T10:10:16Z</time>
      </trkpt>
      <trkpt lat="42.30082" lon="0.39283">
        <ele>842.72</ele>
        <time>2021-08-02T10:10:24Z</time>
      </trkpt>
      <trkpt lat="42.301" lon="0.39264">
        <ele>843.2</ele>
        <time>2021-08-02T10:10:32Z</time>
      </trkpt>
      <trkpt lat="42.30106" lon="0.39257">
        <ele>844.07</ele>
        <time>2021-08-02T10:10:48Z</time>
      </trkpt>
      <trkpt lat="42.30114" lon="0.39248">
        <ele>844.12</ele>
        <time>2021-08-02T10:11:00Z</time>
      </trkpt>
      <trkpt lat="42.30129" lon="0.39218">
        <ele>845.56</ele>
        <time>2021-08-02T10:11:09Z</time>
      </trkpt>
      <trkpt lat="42.30125" lon="0.39172">
        <ele>845.83</ele>
        <time>2021-08-02T10:11:19Z</time>
      </trkpt>
      <trkpt lat="42.30123" lon="0.39163">
        <ele>845.63</ele>
        <time>2021-08-02T10:11:21Z</time>
      </trkpt>
      <trkpt lat="42.30102" lon="0.39113">
        <ele>844.19</ele>
        <time>2021-08-02T10:11:29Z</time>
      </trkpt>
      <trkpt lat="42.30096" lon="0.39074">
        <ele>842.79</ele>
        <time>2021-08-02T10:11:34Z</time>
      </trkpt>
      <trkpt lat="42.30085" lon="0.39025">
        <ele>841.72</ele>
        <time>2021-08-02T10:11:45Z</time>
      </trkpt>
      <trkpt lat="42.30084" lon="0.38995">
        <ele>841.93</ele>
        <time>2021-08-02T10:11:49Z</time>
      </trkpt>
      <trkpt lat="42.30094" lon="0.38972">
        <ele>842.26</ele>
        <time>2021-08-02T10:11:53Z</time>
      </trkpt>
      <trkpt lat="42.30108" lon="0.38955">
        <ele>842.5</ele>
        <time>2021-08-02T10:11:56Z</time>
      </trkpt>
      <trkpt lat="42.30152" lon="0.3892">
        <ele>841.52</ele>
        <time>2021-08-02T10:12:03Z</time>
      </trkpt>
      <trkpt lat="42.30172" lon="0.38887">
        <ele>839.94</ele>
        <time>2021-08-02T10:12:07Z</time>
      </trkpt>
      <trkpt lat="42.30212" lon="0.3884">
        <ele>836.16</ele>
        <time>2021-08-02T10:12:14Z</time>
      </trkpt>
      <trkpt lat="42.30229" lon="0.38833">
        <ele>835.16</ele>
        <time>2021-08-02T10:12:16Z</time>
      </trkpt>
      <trkpt lat="42.30257" lon="0.38825">
        <ele>833.43</ele>
        <time>2021-08-02T10:12:19Z</time>
      </trkpt>
      <trkpt lat="42.30315" lon="0.38787">
        <ele>830.36</ele>
        <time>2021-08-02T10:12:26Z</time>
      </trkpt>
      <trkpt lat="42.30332" lon="0.38758">
        <ele>829.91</ele>
        <time>2021-08-02T10:12:29Z</time>
      </trkpt>
      <trkpt lat="42.30349" lon="0.38684">
        <ele>828.84</ele>
        <time>2021-08-02T10:12:36Z</time>
      </trkpt>
      <trkpt lat="42.30354" lon="0.38613">
        <ele>824.86</ele>
        <time>2021-08-02T10:12:43Z</time>
      </trkpt>
      <trkpt lat="42.30348" lon="0.38566">
        <ele>821.54</ele>
        <time>2021-08-02T10:12:48Z</time>
      </trkpt>
      <trkpt lat="42.3035" lon="0.38556">
        <ele>820.88</ele>
        <time>2021-08-02T10:12:49Z</time>
      </trkpt>
      <trkpt lat="42.3035" lon="0.38503">
        <ele>817.9</ele>
        <time>2021-08-02T10:12:54Z</time>
      </trkpt>
      <trkpt lat="42.30349" lon="0.38455">
        <ele>814.18</ele>
        <time>2021-08-02T10:12:59Z</time>
      </trkpt>
      <trkpt lat="42.30349" lon="0.38408">
        <ele>810.89</ele>
        <time>2021-08-02T10:13:03Z</time>
      </trkpt>
      <trkpt lat="42.30349" lon="0.38398">
        <ele>809.99</ele>
        <time>2021-08-02T10:13:04Z</time>
      </trkpt>
      <trkpt lat="42.30336" lon="0.38361">
        <ele>806.15</ele>
        <time>2021-08-02T10:13:08Z</time>
      </trkpt>
      <trkpt lat="42.30326" lon="0.38331">
        <ele>803.03</ele>
        <time>2021-08-02T10:13:11Z</time>
      </trkpt>
      <trkpt lat="42.30328" lon="0.38293">
        <ele>799.4</ele>
        <time>2021-08-02T10:13:15Z</time>
      </trkpt>
      <trkpt lat="42.30332" lon="0.38261">
        <ele>796.7</ele>
        <time>2021-08-02T10:13:18Z</time>
      </trkpt>
      <trkpt lat="42.30326" lon="0.38221">
        <ele>792.3</ele>
        <time>2021-08-02T10:13:22Z</time>
      </trkpt>
      <trkpt lat="42.30318" lon="0.3818">
        <ele>787.91</ele>
        <time>2021-08-02T10:13:26Z</time>
      </trkpt>
      <trkpt lat="42.30313" lon="0.38145">
        <ele>784.83</ele>
        <time>2021-08-02T10:13:29Z</time>
      </trkpt>
      <trkpt lat="42.30309" lon="0.38108">
        <ele>781.54</ele>
        <time>2021-08-02T10:13:32Z</time>
      </trkpt>
      <trkpt lat="42.30295" lon="0.38057">
        <ele>778.31</ele>
        <time>2021-08-02T10:13:36Z</time>
      </trkpt>
      <trkpt lat="42.30291" lon="0.38032">
        <ele>776.78</ele>
        <time>2021-08-02T10:13:38Z</time>
      </trkpt>
      <trkpt lat="42.30291" lon="0.37986">
        <ele>773.9</ele>
        <time>2021-08-02T10:13:42Z</time>
      </trkpt>
      <trkpt lat="42.30278" lon="0.3794">
        <ele>771.74</ele>
        <time>2021-08-02T10:13:46Z</time>
      </trkpt>
      <trkpt lat="42.3025" lon="0.37889">
        <ele>768.58</ele>
        <time>2021-08-02T10:13:51Z</time>
      </trkpt>
      <trkpt lat="42.30233" lon="0.37872">
        <ele>766.78</ele>
        <time>2021-08-02T10:13:55Z</time>
      </trkpt>
      <trkpt lat="42.30231" lon="0.37811">
        <ele>764.29</ele>
        <time>2021-08-02T10:14:02Z</time>
      </trkpt>
      <trkpt lat="42.30227" lon="0.37776">
        <ele>762.51</ele>
        <time>2021-08-02T10:14:05Z</time>
      </trkpt>
      <trkpt lat="42.30212" lon="0.37723">
        <ele>759.29</ele>
        <time>2021-08-02T10:14:10Z</time>
      </trkpt>
      <trkpt lat="42.30224" lon="0.37638">
        <ele>755.98</ele>
        <time>2021-08-02T10:14:18Z</time>
      </trkpt>
      <trkpt lat="42.3023" lon="0.37603">
        <ele>753.71</ele>
        <time>2021-08-02T10:14:21Z</time>
      </trkpt>
      <trkpt lat="42.30225" lon="0.37573">
        <ele>751.13</ele>
        <time>2021-08-02T10:14:24Z</time>
      </trkpt>
      <trkpt lat="42.30236" lon="0.37513">
        <ele>746.9</ele>
        <time>2021-08-02T10:14:30Z</time>
      </trkpt>
      <trkpt lat="42.30242" lon="0.37495">
        <ele>745.48</ele>
        <time>2021-08-02T10:14:32Z</time>
      </trkpt>
      <trkpt lat="42.30253" lon="0.37448">
        <ele>741.16</ele>
        <time>2021-08-02T10:14:37Z</time>
      </trkpt>
      <trkpt lat="42.3026" lon="0.37416">
        <ele>737.67</ele>
        <time>2021-08-02T10:14:40Z</time>
      </trkpt>
      <trkpt lat="42.30265" lon="0.3738">
        <ele>733.99</ele>
        <time>2021-08-02T10:14:43Z</time>
      </trkpt>
      <trkpt lat="42.30268" lon="0.37343">
        <ele>730.33</ele>
        <time>2021-08-02T10:14:46Z</time>
      </trkpt>
      <trkpt lat="42.30269" lon="0.37331">
        <ele>729.24</ele>
        <time>2021-08-02T10:14:47Z</time>
      </trkpt>
      <trkpt lat="42.30277" lon="0.37292">
        <ele>724.91</ele>
        <time>2021-08-02T10:14:51Z</time>
      </trkpt>
      <trkpt lat="42.30288" lon="0.37253">
        <ele>721.03</ele>
        <time>2021-08-02T10:14:55Z</time>
      </trkpt>
      <trkpt lat="42.303" lon="0.3721">
        <ele>717.23</ele>
        <time>2021-08-02T10:14:59Z</time>
      </trkpt>
      <trkpt lat="42.30306" lon="0.37183">
        <ele>713.72</ele>
        <time>2021-08-02T10:15:02Z</time>
      </trkpt>
      <trkpt lat="42.30308" lon="0.37175">
        <ele>712.5</ele>
        <time>2021-08-02T10:15:03Z</time>
      </trkpt>
      <trkpt lat="42.30308" lon="0.37147">
        <ele>707.91</ele>
        <time>2021-08-02T10:15:07Z</time>
      </trkpt>
      <trkpt lat="42.30321" lon="0.37112">
        <ele>702.9</ele>
        <time>2021-08-02T10:15:12Z</time>
      </trkpt>
      <trkpt lat="42.30331" lon="0.37082">
        <ele>698.88</ele>
        <time>2021-08-02T10:15:16Z</time>
      </trkpt>
      <trkpt lat="42.30336" lon="0.37058">
        <ele>695.61</ele>
        <time>2021-08-02T10:15:19Z</time>
      </trkpt>
      <trkpt lat="42.3034" lon="0.37036">
        <ele>692.22</ele>
        <time>2021-08-02T10:15:22Z</time>
      </trkpt>
      <trkpt lat="42.30343" lon="0.37018">
        <ele>689.07</ele>
        <time>2021-08-02T10:15:25Z</time>
      </trkpt>
      <trkpt lat="42.30343" lon="0.37007">
        <ele>686.97</ele>
        <time>2021-08-02T10:15:27Z</time>
      </trkpt>
      <trkpt lat="42.30357" lon="0.37014">
        <ele>682.26</ele>
        <time>2021-08-02T10:15:32Z</time>
      </trkpt>
      <trkpt lat="42.30358" lon="0.3703">
        <ele>680.4</ele>
        <time>2021-08-02T10:15:34Z</time>
      </trkpt>
      <trkpt lat="42.30363" lon="0.37068">
        <ele>675.92</ele>
        <time>2021-08-02T10:15:39Z</time>
      </trkpt>
      <trkpt lat="42.30365" lon="0.37093">
        <ele>672.34</ele>
        <time>2021-08-02T10:15:42Z</time>
      </trkpt>
      <trkpt lat="42.30365" lon="0.37127">
        <ele>668.6</ele>
        <time>2021-08-02T10:15:46Z</time>
      </trkpt>
      <trkpt lat="42.30366" lon="0.37135">
        <ele>667.68</ele>
        <time>2021-08-02T10:15:47Z</time>
      </trkpt>
      <trkpt lat="42.30382" lon="0.37145">
        <ele>663.15</ele>
        <time>2021-08-02T10:15:52Z</time>
      </trkpt>
      <trkpt lat="42.30385" lon="0.37139">
        <ele>662.27</ele>
        <time>2021-08-02T10:15:53Z</time>
      </trkpt>
      <trkpt lat="42.30399" lon="0.37099">
        <ele>657.24</ele>
        <time>2021-08-02T10:15:58Z</time>
      </trkpt>
      <trkpt lat="42.30401" lon="0.37092">
        <ele>656.03</ele>
        <time>2021-08-02T10:15:59Z</time>
      </trkpt>
      <trkpt lat="42.30404" lon="0.37077">
        <ele>653.7</ele>
        <time>2021-08-02T10:16:01Z</time>
      </trkpt>
      <trkpt lat="42.30406" lon="0.37041">
        <ele>648.79</ele>
        <time>2021-08-02T10:16:06Z</time>
      </trkpt>
      <trkpt lat="42.3041" lon="0.3698">
        <ele>646.07</ele>
        <time>2021-08-02T10:16:11Z</time>
      </trkpt>
      <trkpt lat="42.30388" lon="0.3689">
        <ele>642.57</ele>
        <time>2021-08-02T10:16:19Z</time>
      </trkpt>
      <trkpt lat="42.30372" lon="0.36842">
        <ele>639.48</ele>
        <time>2021-08-02T10:16:23Z</time>
      </trkpt>
      <trkpt lat="42.30366" lon="0.36818">
        <ele>636.79</ele>
        <time>2021-08-02T10:16:26Z</time>
      </trkpt>
      <trkpt lat="42.30385" lon="0.36833">
        <ele>632.32</ele>
        <time>2021-08-02T10:16:31Z</time>
      </trkpt>
      <trkpt lat="42.3041" lon="0.36834">
        <ele>629.02</ele>
        <time>2021-08-02T10:16:35Z</time>
      </trkpt>
      <trkpt lat="42.30408" lon="0.368">
        <ele>625.42</ele>
        <time>2021-08-02T10:16:39Z</time>
      </trkpt>
      <trkpt lat="42.3039" lon="0.36755">
        <ele>622.41</ele>
        <time>2021-08-02T10:16:43Z</time>
      </trkpt>
      <trkpt lat="42.30365" lon="0.36727">
        <ele>619.63</ele>
        <time>2021-08-02T10:16:46Z</time>
      </trkpt>
      <trkpt lat="42.30342" lon="0.36703">
        <ele>616.21</ele>
        <time>2021-08-02T10:16:49Z</time>
      </trkpt>
      <trkpt lat="42.30322" lon="0.36664">
        <ele>611.27</ele>
        <time>2021-08-02T10:16:53Z</time>
      </trkpt>
      <trkpt lat="42.30314" lon="0.36633">
        <ele>607.58</ele>
        <time>2021-08-02T10:16:56Z</time>
      </trkpt>
      <trkpt lat="42.3031" lon="0.36605">
        <ele>603.79</ele>
        <time>2021-08-02T10:16:59Z</time>
      </trkpt>
      <trkpt lat="42.30306" lon="0.36573">
        <ele>600.11</ele>
        <time>2021-08-02T10:17:02Z</time>
      </trkpt>
      <trkpt lat="42.30303" lon="0.36555">
        <ele>597.45</ele>
        <time>2021-08-02T10:17:04Z</time>
      </trkpt>
      <trkpt lat="42.30316" lon="0.36538">
        <ele>592.68</ele>
        <time>2021-08-02T10:17:08Z</time>
      </trkpt>
      <trkpt lat="42.30328" lon="0.36555">
        <ele>589.05</ele>
        <time>2021-08-02T10:17:11Z</time>
      </trkpt>
      <trkpt lat="42.30354" lon="0.36568">
        <ele>583.2</ele>
        <time>2021-08-02T10:17:18Z</time>
      </trkpt>
      <trkpt lat="42.30388" lon="0.36526">
        <ele>578.98</ele>
        <time>2021-08-02T10:17:25Z</time>
      </trkpt>
      <trkpt lat="42.30402" lon="0.36512">
        <ele>576.84</ele>
        <time>2021-08-02T10:17:28Z</time>
      </trkpt>
      <trkpt lat="42.30409" lon="0.36503">
        <ele>572.44</ele>
        <time>2021-08-02T10:17:34Z</time>
      </trkpt>
      <trkpt lat="42.30409" lon="0.36504">
        <ele>569.37</ele>
        <time>2021-08-02T10:17:45Z</time>
      </trkpt>
      <trkpt lat="42.30413" lon="0.36495">
        <ele>568.78</ele>
        <time>2021-08-02T10:17:57Z</time>
      </trkpt>
      <trkpt lat="42.30397" lon="0.36466">
        <ele>568.99</ele>
        <time>2021-08-02T10:18:02Z</time>
      </trkpt>
      <trkpt lat="42.30279" lon="0.3636">
        <ele>571.25</ele>
        <time>2021-08-02T10:18:11Z</time>
      </trkpt>
      <trkpt lat="42.30171" lon="0.36263">
        <ele>574.69</ele>
        <time>2021-08-02T10:18:17Z</time>
      </trkpt>
      <trkpt lat="42.30028" lon="0.36135">
        <ele>577.74</ele>
        <time>2021-08-02T10:18:24Z</time>
      </trkpt>
      <trkpt lat="42.2988" lon="0.36007">
        <ele>578.35</ele>
        <time>2021-08-02T10:18:32Z</time>
      </trkpt>
      <trkpt lat="42.29748" lon="0.35908">
        <ele>574.93</ele>
        <time>2021-08-02T10:18:39Z</time>
      </trkpt>
      <trkpt lat="42.29614" lon="0.35844">
        <ele>572.43</ele>
        <time>2021-08-02T10:18:46Z</time>
      </trkpt>
      <trkpt lat="42.29397" lon="0.35796">
        <ele>574.66</ele>
        <time>2021-08-02T10:18:56Z</time>
      </trkpt>
      <trkpt lat="42.29032" lon="0.35712">
        <ele>576.53</ele>
        <time>2021-08-02T10:19:12Z</time>
      </trkpt>
      <trkpt lat="42.28736" lon="0.35653">
        <ele>576.05</ele>
        <time>2021-08-02T10:19:25Z</time>
      </trkpt>
      <trkpt lat="42.2864" lon="0.35671">
        <ele>572.04</ele>
        <time>2021-08-02T10:19:30Z</time>
      </trkpt>
      <trkpt lat="42.28599" lon="0.35684">
        <ele>568.05</ele>
        <time>2021-08-02T10:19:33Z</time>
      </trkpt>
      <trkpt lat="42.28558" lon="0.35697">
        <ele>564.3</ele>
        <time>2021-08-02T10:19:36Z</time>
      </trkpt>
      <trkpt lat="42.28518" lon="0.3571">
        <ele>561.1</ele>
        <time>2021-08-02T10:19:39Z</time>
      </trkpt>
      <trkpt lat="42.28506" lon="0.35713">
        <ele>560.15</ele>
        <time>2021-08-02T10:19:40Z</time>
      </trkpt>
      <trkpt lat="42.28477" lon="0.35689">
        <ele>555.54</ele>
        <time>2021-08-02T10:19:45Z</time>
      </trkpt>
      <trkpt lat="42.28507" lon="0.35665">
        <ele>552.28</ele>
        <time>2021-08-02T10:19:49Z</time>
      </trkpt>
      <trkpt lat="42.28558" lon="0.35641">
        <ele>549.39</ele>
        <time>2021-08-02T10:19:54Z</time>
      </trkpt>
      <trkpt lat="42.28601" lon="0.35624">
        <ele>547.08</ele>
        <time>2021-08-02T10:19:58Z</time>
      </trkpt>
      <trkpt lat="42.28658" lon="0.35585">
        <ele>542.56</ele>
        <time>2021-08-02T10:20:04Z</time>
      </trkpt>
      <trkpt lat="42.28659" lon="0.3554">
        <ele>539.08</ele>
        <time>2021-08-02T10:20:09Z</time>
      </trkpt>
      <trkpt lat="42.28656" lon="0.35527">
        <ele>535.37</ele>
        <time>2021-08-02T10:20:18Z</time>
      </trkpt>
      <trkpt lat="42.28653" lon="0.35523">
        <ele>534.38</ele>
        <time>2021-08-02T10:20:35Z</time>
      </trkpt>
      <trkpt lat="42.28634" lon="0.35505">
        <ele>534.49</ele>
        <time>2021-08-02T10:20:42Z</time>
      </trkpt>
      <trkpt lat="42.28606" lon="0.35513">
        <ele>535.01</ele>
        <time>2021-08-02T10:20:49Z</time>
      </trkpt>
      <trkpt lat="42.286" lon="0.35521">
        <ele>535.28</ele>
        <time>2021-08-02T10:20:51Z</time>
      </trkpt>
      <trkpt lat="42.28598" lon="0.35534">
        <ele>535.93</ele>
        <time>2021-08-02T10:21:04Z</time>
      </trkpt>
      <trkpt lat="42.28598" lon="0.35534">
        <ele>536.37</ele>
        <time>2021-08-02T10:21:36Z</time>
      </trkpt>
      <trkpt lat="42.28592" lon="0.35543">
        <ele>535.72</ele>
        <time>2021-08-02T10:26:12Z</time>
      </trkpt>
      <trkpt lat="42.28598" lon="0.35533">
        <ele>535.72</ele>
        <time>2021-08-02T10:26:47Z</time>
      </trkpt>
      <trkpt lat="42.28584" lon="0.35532">
        <ele>537.79</ele>
        <time>2021-08-02T10:46:47Z</time>
      </trkpt>
      <trkpt lat="42.28584" lon="0.35528">
        <ele>537.79</ele>
        <time>2021-08-02T10:46:48Z</time>
      </trkpt>
      <trkpt lat="42.28595" lon="0.35532">
        <ele>537.79</ele>
        <time>2021-08-02T10:47:11Z</time>
      </trkpt>
      <trkpt lat="42.28595" lon="0.35534">
        <ele>537.79</ele>
        <time>2021-08-02T10:47:59Z</time>
      </trkpt>
      <trkpt lat="42.28591" lon="0.35526">
        <ele>537.49</ele>
        <time>2021-08-02T10:48:06Z</time>
      </trkpt>
      <trkpt lat="42.28606" lon="0.35507">
        <ele>537.33</ele>
        <time>2021-08-02T10:48:11Z</time>
      </trkpt>
      <trkpt lat="42.28615" lon="0.35494">
        <ele>537.34</ele>
        <time>2021-08-02T10:48:13Z</time>
      </trkpt>
      <trkpt lat="42.28623" lon="0.35479">
        <ele>537.34</ele>
        <time>2021-08-02T10:48:15Z</time>
      </trkpt>
      <trkpt lat="42.28656" lon="0.35432">
        <ele>536.2</ele>
        <time>2021-08-02T10:48:23Z</time>
      </trkpt>
      <trkpt lat="42.28663" lon="0.35407">
        <ele>536.63</ele>
        <time>2021-08-02T10:48:27Z</time>
      </trkpt>
      <trkpt lat="42.28676" lon="0.35366">
        <ele>540.17</ele>
        <time>2021-08-02T10:48:37Z</time>
      </trkpt>
      <trkpt lat="42.28673" lon="0.35279">
        <ele>543.09</ele>
        <time>2021-08-02T10:48:46Z</time>
      </trkpt>
      <trkpt lat="42.28664" lon="0.352">
        <ele>546.39</ele>
        <time>2021-08-02T10:48:53Z</time>
      </trkpt>
      <trkpt lat="42.28662" lon="0.35148">
        <ele>548.43</ele>
        <time>2021-08-02T10:48:58Z</time>
      </trkpt>
      <trkpt lat="42.28652" lon="0.35111">
        <ele>550.06</ele>
        <time>2021-08-02T10:49:02Z</time>
      </trkpt>
      <trkpt lat="42.28644" lon="0.35076">
        <ele>551.72</ele>
        <time>2021-08-02T10:49:06Z</time>
      </trkpt>
      <trkpt lat="42.28669" lon="0.3505">
        <ele>555.13</ele>
        <time>2021-08-02T10:49:12Z</time>
      </trkpt>
      <trkpt lat="42.28707" lon="0.35054">
        <ele>559.34</ele>
        <time>2021-08-02T10:49:17Z</time>
      </trkpt>
      <trkpt lat="42.28744" lon="0.35054">
        <ele>563.34</ele>
        <time>2021-08-02T10:49:21Z</time>
      </trkpt>
      <trkpt lat="42.28773" lon="0.35054">
        <ele>566.63</ele>
        <time>2021-08-02T10:49:24Z</time>
      </trkpt>
      <trkpt lat="42.28801" lon="0.35063">
        <ele>570.45</ele>
        <time>2021-08-02T10:49:28Z</time>
      </trkpt>
      <trkpt lat="42.28806" lon="0.35045">
        <ele>574.62</ele>
        <time>2021-08-02T10:49:33Z</time>
      </trkpt>
      <trkpt lat="42.28787" lon="0.35036">
        <ele>576.96</ele>
        <time>2021-08-02T10:49:36Z</time>
      </trkpt>
      <trkpt lat="42.28769" lon="0.35029">
        <ele>579.13</ele>
        <time>2021-08-02T10:49:39Z</time>
      </trkpt>
      <trkpt lat="42.28747" lon="0.35026">
        <ele>581.17</ele>
        <time>2021-08-02T10:49:42Z</time>
      </trkpt>
      <trkpt lat="42.28684" lon="0.35014">
        <ele>584.94</ele>
        <time>2021-08-02T10:49:48Z</time>
      </trkpt>
      <trkpt lat="42.2865" lon="0.35003">
        <ele>586.46</ele>
        <time>2021-08-02T10:49:51Z</time>
      </trkpt>
      <trkpt lat="42.28623" lon="0.35002">
        <ele>587.09</ele>
        <time>2021-08-02T10:49:54Z</time>
      </trkpt>
      <trkpt lat="42.28538" lon="0.34999">
        <ele>590.13</ele>
        <time>2021-08-02T10:50:02Z</time>
      </trkpt>
      <trkpt lat="42.28527" lon="0.34999">
        <ele>590.51</ele>
        <time>2021-08-02T10:50:03Z</time>
      </trkpt>
      <trkpt lat="42.28493" lon="0.34993">
        <ele>591.56</ele>
        <time>2021-08-02T10:50:07Z</time>
      </trkpt>
      <trkpt lat="42.28441" lon="0.35006">
        <ele>594.9</ele>
        <time>2021-08-02T10:50:18Z</time>
      </trkpt>
      <trkpt lat="42.2841" lon="0.3502">
        <ele>598.36</ele>
        <time>2021-08-02T10:50:24Z</time>
      </trkpt>
      <trkpt lat="42.28377" lon="0.35037">
        <ele>601.74</ele>
        <time>2021-08-02T10:50:29Z</time>
      </trkpt>
      <trkpt lat="42.28349" lon="0.3505">
        <ele>605.29</ele>
        <time>2021-08-02T10:50:33Z</time>
      </trkpt>
      <trkpt lat="42.28338" lon="0.35056">
        <ele>607.27</ele>
        <time>2021-08-02T10:50:35Z</time>
      </trkpt>
      <trkpt lat="42.28323" lon="0.35051">
        <ele>611.74</ele>
        <time>2021-08-02T10:50:40Z</time>
      </trkpt>
      <trkpt lat="42.28338" lon="0.35031">
        <ele>614.95</ele>
        <time>2021-08-02T10:50:44Z</time>
      </trkpt>
      <trkpt lat="42.2835" lon="0.35022">
        <ele>616.36</ele>
        <time>2021-08-02T10:50:46Z</time>
      </trkpt>
      <trkpt lat="42.28398" lon="0.34964">
        <ele>619.65</ele>
        <time>2021-08-02T10:50:52Z</time>
      </trkpt>
      <trkpt lat="42.28465" lon="0.34886">
        <ele>620.35</ele>
        <time>2021-08-02T10:51:00Z</time>
      </trkpt>
      <trkpt lat="42.28481" lon="0.34848">
        <ele>620.56</ele>
        <time>2021-08-02T10:51:04Z</time>
      </trkpt>
      <trkpt lat="42.28508" lon="0.34817">
        <ele>622.87</ele>
        <time>2021-08-02T10:51:11Z</time>
      </trkpt>
      <trkpt lat="42.28522" lon="0.34814">
        <ele>623.96</ele>
        <time>2021-08-02T10:51:13Z</time>
      </trkpt>
      <trkpt lat="42.28547" lon="0.34772">
        <ele>628.37</ele>
        <time>2021-08-02T10:51:19Z</time>
      </trkpt>
      <trkpt lat="42.28526" lon="0.34743">
        <ele>632.37</ele>
        <time>2021-08-02T10:51:23Z</time>
      </trkpt>
      <trkpt lat="42.28517" lon="0.34712">
        <ele>636.23</ele>
        <time>2021-08-02T10:51:27Z</time>
      </trkpt>
      <trkpt lat="42.28527" lon="0.34688">
        <ele>639.38</ele>
        <time>2021-08-02T10:51:30Z</time>
      </trkpt>
      <trkpt lat="42.28532" lon="0.34681">
        <ele>640.5</ele>
        <time>2021-08-02T10:51:31Z</time>
      </trkpt>
      <trkpt lat="42.28545" lon="0.34635">
        <ele>646.04</ele>
        <time>2021-08-02T10:51:36Z</time>
      </trkpt>
      <trkpt lat="42.28546" lon="0.34626">
        <ele>648.25</ele>
        <time>2021-08-02T10:51:37Z</time>
      </trkpt>
      <trkpt lat="42.2856" lon="0.34593">
        <ele>652.79</ele>
        <time>2021-08-02T10:51:41Z</time>
      </trkpt>
      <trkpt lat="42.28554" lon="0.3455">
        <ele>657.34</ele>
        <time>2021-08-02T10:51:47Z</time>
      </trkpt>
      <trkpt lat="42.28545" lon="0.34534">
        <ele>658.78</ele>
        <time>2021-08-02T10:51:49Z</time>
      </trkpt>
      <trkpt lat="42.28532" lon="0.34502">
        <ele>661.19</ele>
        <time>2021-08-02T10:51:52Z</time>
      </trkpt>
      <trkpt lat="42.28527" lon="0.34449">
        <ele>663.53</ele>
        <time>2021-08-02T10:51:56Z</time>
      </trkpt>
      <trkpt lat="42.28547" lon="0.34338">
        <ele>667.16</ele>
        <time>2021-08-02T10:52:04Z</time>
      </trkpt>
      <trkpt lat="42.28594" lon="0.34247">
        <ele>670.63</ele>
        <time>2021-08-02T10:52:12Z</time>
      </trkpt>
      <trkpt lat="42.28601" lon="0.34237">
        <ele>671.31</ele>
        <time>2021-08-02T10:52:13Z</time>
      </trkpt>
      <trkpt lat="42.28645" lon="0.34205">
        <ele>675.1</ele>
        <time>2021-08-02T10:52:18Z</time>
      </trkpt>
      <trkpt lat="42.28653" lon="0.34196">
        <ele>675.99</ele>
        <time>2021-08-02T10:52:19Z</time>
      </trkpt>
      <trkpt lat="42.28678" lon="0.34171">
        <ele>679.04</ele>
        <time>2021-08-02T10:52:22Z</time>
      </trkpt>
      <trkpt lat="42.28691" lon="0.34156">
        <ele>681.73</ele>
        <time>2021-08-02T10:52:24Z</time>
      </trkpt>
      <trkpt lat="42.28712" lon="0.34156">
        <ele>687.24</ele>
        <time>2021-08-02T10:52:28Z</time>
      </trkpt>
      <trkpt lat="42.28707" lon="0.34183">
        <ele>690.91</ele>
        <time>2021-08-02T10:52:31Z</time>
      </trkpt>
      <trkpt lat="42.28703" lon="0.34209">
        <ele>693.16</ele>
        <time>2021-08-02T10:52:33Z</time>
      </trkpt>
      <trkpt lat="42.2868" lon="0.34271">
        <ele>697.74</ele>
        <time>2021-08-02T10:52:38Z</time>
      </trkpt>
      <trkpt lat="42.28677" lon="0.34299">
        <ele>699.68</ele>
        <time>2021-08-02T10:52:40Z</time>
      </trkpt>
      <trkpt lat="42.28675" lon="0.34327">
        <ele>701.68</ele>
        <time>2021-08-02T10:52:42Z</time>
      </trkpt>
      <trkpt lat="42.28667" lon="0.34369">
        <ele>706.03</ele>
        <time>2021-08-02T10:52:46Z</time>
      </trkpt>
      <trkpt lat="42.28674" lon="0.34399">
        <ele>709.35</ele>
        <time>2021-08-02T10:52:49Z</time>
      </trkpt>
      <trkpt lat="42.28671" lon="0.34436">
        <ele>712.56</ele>
        <time>2021-08-02T10:52:52Z</time>
      </trkpt>
      <trkpt lat="42.28668" lon="0.34447">
        <ele>713.69</ele>
        <time>2021-08-02T10:52:53Z</time>
      </trkpt>
      <trkpt lat="42.28661" lon="0.34476">
        <ele>718.46</ele>
        <time>2021-08-02T10:52:57Z</time>
      </trkpt>
      <trkpt lat="42.28662" lon="0.34512">
        <ele>722.78</ele>
        <time>2021-08-02T10:53:01Z</time>
      </trkpt>
      <trkpt lat="42.28678" lon="0.34521">
        <ele>726.06</ele>
        <time>2021-08-02T10:53:04Z</time>
      </trkpt>
      <trkpt lat="42.28683" lon="0.34515">
        <ele>727.16</ele>
        <time>2021-08-02T10:53:05Z</time>
      </trkpt>
      <trkpt lat="42.28694" lon="0.34499">
        <ele>729.36</ele>
        <time>2021-08-02T10:53:07Z</time>
      </trkpt>
      <trkpt lat="42.28725" lon="0.34463">
        <ele>733.8</ele>
        <time>2021-08-02T10:53:11Z</time>
      </trkpt>
      <trkpt lat="42.28732" lon="0.34453">
        <ele>735.02</ele>
        <time>2021-08-02T10:53:12Z</time>
      </trkpt>
      <trkpt lat="42.28755" lon="0.34421">
        <ele>741.51</ele>
        <time>2021-08-02T10:53:16Z</time>
      </trkpt>
      <trkpt lat="42.28764" lon="0.34413">
        <ele>744.61</ele>
        <time>2021-08-02T10:53:18Z</time>
      </trkpt>
      <trkpt lat="42.28771" lon="0.34404">
        <ele>748.78</ele>
        <time>2021-08-02T10:53:21Z</time>
      </trkpt>
      <trkpt lat="42.28783" lon="0.3439">
        <ele>752.25</ele>
        <time>2021-08-02T10:53:24Z</time>
      </trkpt>
      <trkpt lat="42.28796" lon="0.34375">
        <ele>755.68</ele>
        <time>2021-08-02T10:53:27Z</time>
      </trkpt>
      <trkpt lat="42.28807" lon="0.34358">
        <ele>758.93</ele>
        <time>2021-08-02T10:53:30Z</time>
      </trkpt>
      <trkpt lat="42.2882" lon="0.3434">
        <ele>762.52</ele>
        <time>2021-08-02T10:53:33Z</time>
      </trkpt>
      <trkpt lat="42.28828" lon="0.34325">
        <ele>764.89</ele>
        <time>2021-08-02T10:53:35Z</time>
      </trkpt>
      <trkpt lat="42.28837" lon="0.34311">
        <ele>767.08</ele>
        <time>2021-08-02T10:53:37Z</time>
      </trkpt>
      <trkpt lat="42.28851" lon="0.34281">
        <ele>772</ele>
        <time>2021-08-02T10:53:41Z</time>
      </trkpt>
      <trkpt lat="42.28856" lon="0.34264">
        <ele>774.44</ele>
        <time>2021-08-02T10:53:43Z</time>
      </trkpt>
      <trkpt lat="42.28895" lon="0.34219">
        <ele>778.85</ele>
        <time>2021-08-02T10:53:48Z</time>
      </trkpt>
      <trkpt lat="42.28905" lon="0.34217">
        <ele>779.28</ele>
        <time>2021-08-02T10:53:49Z</time>
      </trkpt>
      <trkpt lat="42.28961" lon="0.34202">
        <ele>780.6</ele>
        <time>2021-08-02T10:53:54Z</time>
      </trkpt>
      <trkpt lat="42.29019" lon="0.34212">
        <ele>784.82</ele>
        <time>2021-08-02T10:54:00Z</time>
      </trkpt>
      <trkpt lat="42.29033" lon="0.34242">
        <ele>788.07</ele>
        <time>2021-08-02T10:54:03Z</time>
      </trkpt>
      <trkpt lat="42.29059" lon="0.34257">
        <ele>791.31</ele>
        <time>2021-08-02T10:54:06Z</time>
      </trkpt>
      <trkpt lat="42.29091" lon="0.34293">
        <ele>794.79</ele>
        <time>2021-08-02T10:54:10Z</time>
      </trkpt>
      <trkpt lat="42.29096" lon="0.34306">
        <ele>795.74</ele>
        <time>2021-08-02T10:54:11Z</time>
      </trkpt>
      <trkpt lat="42.29129" lon="0.34343">
        <ele>801.22</ele>
        <time>2021-08-02T10:54:16Z</time>
      </trkpt>
      <trkpt lat="42.29152" lon="0.34356">
        <ele>804.48</ele>
        <time>2021-08-02T10:54:19Z</time>
      </trkpt>
      <trkpt lat="42.29161" lon="0.34363">
        <ele>805.63</ele>
        <time>2021-08-02T10:54:20Z</time>
      </trkpt>
      <trkpt lat="42.29179" lon="0.34377">
        <ele>808.09</ele>
        <time>2021-08-02T10:54:22Z</time>
      </trkpt>
      <trkpt lat="42.29206" lon="0.34363">
        <ele>812.85</ele>
        <time>2021-08-02T10:54:26Z</time>
      </trkpt>
      <trkpt lat="42.292" lon="0.3432">
        <ele>816.42</ele>
        <time>2021-08-02T10:54:29Z</time>
      </trkpt>
      <trkpt lat="42.29198" lon="0.34274">
        <ele>819.76</ele>
        <time>2021-08-02T10:54:32Z</time>
      </trkpt>
      <trkpt lat="42.29213" lon="0.34224">
        <ele>823.48</ele>
        <time>2021-08-02T10:54:36Z</time>
      </trkpt>
      <trkpt lat="42.29253" lon="0.34199">
        <ele>826.55</ele>
        <time>2021-08-02T10:54:40Z</time>
      </trkpt>
      <trkpt lat="42.29302" lon="0.34183">
        <ele>830.17</ele>
        <time>2021-08-02T10:54:44Z</time>
      </trkpt>
      <trkpt lat="42.29325" lon="0.34159">
        <ele>832.27</ele>
        <time>2021-08-02T10:54:46Z</time>
      </trkpt>
      <trkpt lat="42.29368" lon="0.34108">
        <ele>836.44</ele>
        <time>2021-08-02T10:54:50Z</time>
      </trkpt>
      <trkpt lat="42.29393" lon="0.34053">
        <ele>841.41</ele>
        <time>2021-08-02T10:54:54Z</time>
      </trkpt>
      <trkpt lat="42.29399" lon="0.34041">
        <ele>842.32</ele>
        <time>2021-08-02T10:54:55Z</time>
      </trkpt>
      <trkpt lat="42.29436" lon="0.33992">
        <ele>846.28</ele>
        <time>2021-08-02T10:54:59Z</time>
      </trkpt>
      <trkpt lat="42.29457" lon="0.33968">
        <ele>847.84</ele>
        <time>2021-08-02T10:55:01Z</time>
      </trkpt>
      <trkpt lat="42.29506" lon="0.3386">
        <ele>849.65</ele>
        <time>2021-08-02T10:55:08Z</time>
      </trkpt>
      <trkpt lat="42.29514" lon="0.33815">
        <ele>849.57</ele>
        <time>2021-08-02T10:55:11Z</time>
      </trkpt>
      <trkpt lat="42.29545" lon="0.33746">
        <ele>848.46</ele>
        <time>2021-08-02T10:55:16Z</time>
      </trkpt>
      <trkpt lat="42.29601" lon="0.33609">
        <ele>844.65</ele>
        <time>2021-08-02T10:55:25Z</time>
      </trkpt>
      <trkpt lat="42.29606" lon="0.33594">
        <ele>844.25</ele>
        <time>2021-08-02T10:55:26Z</time>
      </trkpt>
      <trkpt lat="42.29641" lon="0.33552">
        <ele>842.23</ele>
        <time>2021-08-02T10:55:31Z</time>
      </trkpt>
      <trkpt lat="42.29738" lon="0.33526">
        <ele>841.28</ele>
        <time>2021-08-02T10:55:38Z</time>
      </trkpt>
      <trkpt lat="42.29766" lon="0.33521">
        <ele>841.32</ele>
        <time>2021-08-02T10:55:40Z</time>
      </trkpt>
      <trkpt lat="42.29807" lon="0.3354">
        <ele>841.65</ele>
        <time>2021-08-02T10:55:44Z</time>
      </trkpt>
      <trkpt lat="42.29838" lon="0.3357">
        <ele>842.18</ele>
        <time>2021-08-02T10:55:47Z</time>
      </trkpt>
      <trkpt lat="42.29914" lon="0.33581">
        <ele>843.66</ele>
        <time>2021-08-02T10:55:53Z</time>
      </trkpt>
      <trkpt lat="42.29939" lon="0.33575">
        <ele>844.18</ele>
        <time>2021-08-02T10:55:55Z</time>
      </trkpt>
      <trkpt lat="42.30001" lon="0.33583">
        <ele>844.68</ele>
        <time>2021-08-02T10:56:00Z</time>
      </trkpt>
      <trkpt lat="42.30039" lon="0.33585">
        <ele>844.43</ele>
        <time>2021-08-02T10:56:03Z</time>
      </trkpt>
      <trkpt lat="42.30078" lon="0.33571">
        <ele>843.55</ele>
        <time>2021-08-02T10:56:08Z</time>
      </trkpt>
      <trkpt lat="42.30107" lon="0.3352">
        <ele>841.97</ele>
        <time>2021-08-02T10:56:13Z</time>
      </trkpt>
      <trkpt lat="42.3015" lon="0.33504">
        <ele>840.74</ele>
        <time>2021-08-02T10:56:19Z</time>
      </trkpt>
      <trkpt lat="42.30189" lon="0.33505">
        <ele>841.04</ele>
        <time>2021-08-02T10:56:23Z</time>
      </trkpt>
      <trkpt lat="42.30238" lon="0.33466">
        <ele>842.42</ele>
        <time>2021-08-02T10:56:29Z</time>
      </trkpt>
      <trkpt lat="42.30259" lon="0.3346">
        <ele>843.1</ele>
        <time>2021-08-02T10:56:31Z</time>
      </trkpt>
      <trkpt lat="42.30314" lon="0.33439">
        <ele>843.57</ele>
        <time>2021-08-02T10:56:36Z</time>
      </trkpt>
      <trkpt lat="42.30398" lon="0.33359">
        <ele>841.75</ele>
        <time>2021-08-02T10:56:44Z</time>
      </trkpt>
      <trkpt lat="42.30418" lon="0.33339">
        <ele>841.13</ele>
        <time>2021-08-02T10:56:46Z</time>
      </trkpt>
      <trkpt lat="42.30445" lon="0.33287">
        <ele>839.94</ele>
        <time>2021-08-02T10:56:50Z</time>
      </trkpt>
      <trkpt lat="42.30453" lon="0.33262">
        <ele>839.24</ele>
        <time>2021-08-02T10:56:52Z</time>
      </trkpt>
      <trkpt lat="42.30454" lon="0.33176">
        <ele>836.95</ele>
        <time>2021-08-02T10:56:58Z</time>
      </trkpt>
      <trkpt lat="42.30465" lon="0.33095">
        <ele>835.45</ele>
        <time>2021-08-02T10:57:05Z</time>
      </trkpt>
      <trkpt lat="42.30486" lon="0.33087">
        <ele>834.35</ele>
        <time>2021-08-02T10:57:09Z</time>
      </trkpt>
      <trkpt lat="42.30572" lon="0.33116">
        <ele>834.31</ele>
        <time>2021-08-02T10:57:18Z</time>
      </trkpt>
      <trkpt lat="42.30642" lon="0.33136">
        <ele>835.16</ele>
        <time>2021-08-02T10:57:26Z</time>
      </trkpt>
      <trkpt lat="42.307" lon="0.33104">
        <ele>835.68</ele>
        <time>2021-08-02T10:57:34Z</time>
      </trkpt>
      <trkpt lat="42.30823" lon="0.33037">
        <ele>838.32</ele>
        <time>2021-08-02T10:57:46Z</time>
      </trkpt>
      <trkpt lat="42.30845" lon="0.33025">
        <ele>838.86</ele>
        <time>2021-08-02T10:57:48Z</time>
      </trkpt>
      <trkpt lat="42.30879" lon="0.32994">
        <ele>839.32</ele>
        <time>2021-08-02T10:57:51Z</time>
      </trkpt>
      <trkpt lat="42.3094" lon="0.32941">
        <ele>840.66</ele>
        <time>2021-08-02T10:57:57Z</time>
      </trkpt>
      <trkpt lat="42.30966" lon="0.32897">
        <ele>840.86</ele>
        <time>2021-08-02T10:58:01Z</time>
      </trkpt>
      <trkpt lat="42.31005" lon="0.32851">
        <ele>840.63</ele>
        <time>2021-08-02T10:58:06Z</time>
      </trkpt>
      <trkpt lat="42.31016" lon="0.3283">
        <ele>840.56</ele>
        <time>2021-08-02T10:58:08Z</time>
      </trkpt>
      <trkpt lat="42.31051" lon="0.32801">
        <ele>840.54</ele>
        <time>2021-08-02T10:58:12Z</time>
      </trkpt>
      <trkpt lat="42.31092" lon="0.32747">
        <ele>839.2</ele>
        <time>2021-08-02T10:58:19Z</time>
      </trkpt>
      <trkpt lat="42.31106" lon="0.32731">
        <ele>836.05</ele>
        <time>2021-08-02T10:58:27Z</time>
      </trkpt>
      <trkpt lat="42.3111" lon="0.32729">
        <ele>834.67</ele>
        <time>2021-08-02T10:58:49Z</time>
      </trkpt>
      <trkpt lat="42.31114" lon="0.32728">
        <ele>834.67</ele>
        <time>2021-08-02T10:58:51Z</time>
      </trkpt>
      <trkpt lat="42.31122" lon="0.32736">
        <ele>834.76</ele>
        <time>2021-08-02T10:59:05Z</time>
      </trkpt>
      <trkpt lat="42.31122" lon="0.32734">
        <ele>834.61</ele>
        <time>2021-08-02T10:59:22Z</time>
      </trkpt>
      <trkpt lat="42.31129" lon="0.32736">
        <ele>834.44</ele>
        <time>2021-08-02T10:59:38Z</time>
      </trkpt>
      <trkpt lat="42.31128" lon="0.32735">
        <ele>834.47</ele>
        <time>2021-08-02T10:59:59Z</time>
      </trkpt>
      <trkpt lat="42.31128" lon="0.32735">
        <ele>834.68</ele>
        <time>2021-08-02T11:00:24Z</time>
      </trkpt>
      <trkpt lat="42.31128" lon="0.32733">
        <ele>835.37</ele>
        <time>2021-08-02T11:01:21Z</time>
      </trkpt>
      <trkpt lat="42.31128" lon="0.32732">
        <ele>834.81</ele>
        <time>2021-08-02T11:01:31Z</time>
      </trkpt>
      <trkpt lat="42.31118" lon="0.32729">
        <ele>834.83</ele>
        <time>2021-08-02T11:02:08Z</time>
      </trkpt>
      <trkpt lat="42.31119" lon="0.3273">
        <ele>834.76</ele>
        <time>2021-08-02T11:02:11Z</time>
      </trkpt>
      <trkpt lat="42.31117" lon="0.32766">
        <ele>835.77</ele>
        <time>2021-08-02T11:02:17Z</time>
      </trkpt>
      <trkpt lat="42.31114" lon="0.32787">
        <ele>836.3</ele>
        <time>2021-08-02T11:02:19Z</time>
      </trkpt>
      <trkpt lat="42.31094" lon="0.32884">
        <ele>840.17</ele>
        <time>2021-08-02T11:02:27Z</time>
      </trkpt>
      <trkpt lat="42.31092" lon="0.32966">
        <ele>843.98</ele>
        <time>2021-08-02T11:02:33Z</time>
      </trkpt>
      <trkpt lat="42.31095" lon="0.33058">
        <ele>847.18</ele>
        <time>2021-08-02T11:02:38Z</time>
      </trkpt>
      <trkpt lat="42.31093" lon="0.33116">
        <ele>849.87</ele>
        <time>2021-08-02T11:02:41Z</time>
      </trkpt>
      <trkpt lat="42.31101" lon="0.33178">
        <ele>852.42</ele>
        <time>2021-08-02T11:02:45Z</time>
      </trkpt>
      <trkpt lat="42.31155" lon="0.33294">
        <ele>855.06</ele>
        <time>2021-08-02T11:02:54Z</time>
      </trkpt>
      <trkpt lat="42.31176" lon="0.33341">
        <ele>855.58</ele>
        <time>2021-08-02T11:02:58Z</time>
      </trkpt>
      <trkpt lat="42.31144" lon="0.33393">
        <ele>854.96</ele>
        <time>2021-08-02T11:03:05Z</time>
      </trkpt>
      <trkpt lat="42.31137" lon="0.33403">
        <ele>855.07</ele>
        <time>2021-08-02T11:03:06Z</time>
      </trkpt>
      <trkpt lat="42.31109" lon="0.33449">
        <ele>856.36</ele>
        <time>2021-08-02T11:03:10Z</time>
      </trkpt>
      <trkpt lat="42.31067" lon="0.33531">
        <ele>860.19</ele>
        <time>2021-08-02T11:03:17Z</time>
      </trkpt>
      <trkpt lat="42.31084" lon="0.33616">
        <ele>862.14</ele>
        <time>2021-08-02T11:03:22Z</time>
      </trkpt>
      <trkpt lat="42.31092" lon="0.3363">
        <ele>862.66</ele>
        <time>2021-08-02T11:03:23Z</time>
      </trkpt>
      <trkpt lat="42.31105" lon="0.33713">
        <ele>864.85</ele>
        <time>2021-08-02T11:03:29Z</time>
      </trkpt>
      <trkpt lat="42.31142" lon="0.33808">
        <ele>867.2</ele>
        <time>2021-08-02T11:03:36Z</time>
      </trkpt>
      <trkpt lat="42.31201" lon="0.33829">
        <ele>866.56</ele>
        <time>2021-08-02T11:03:42Z</time>
      </trkpt>
      <trkpt lat="42.31246" lon="0.33892">
        <ele>865.92</ele>
        <time>2021-08-02T11:03:48Z</time>
      </trkpt>
      <trkpt lat="42.31248" lon="0.33903">
        <ele>865.97</ele>
        <time>2021-08-02T11:03:49Z</time>
      </trkpt>
      <trkpt lat="42.31277" lon="0.33941">
        <ele>867.48</ele>
        <time>2021-08-02T11:03:54Z</time>
      </trkpt>
      <trkpt lat="42.31296" lon="0.33953">
        <ele>868.16</ele>
        <time>2021-08-02T11:03:56Z</time>
      </trkpt>
      <trkpt lat="42.3131" lon="0.33996">
        <ele>869.06</ele>
        <time>2021-08-02T11:04:00Z</time>
      </trkpt>
      <trkpt lat="42.31311" lon="0.34048">
        <ele>870.16</ele>
        <time>2021-08-02T11:04:04Z</time>
      </trkpt>
      <trkpt lat="42.31298" lon="0.34106">
        <ele>871.44</ele>
        <time>2021-08-02T11:04:08Z</time>
      </trkpt>
      <trkpt lat="42.31256" lon="0.34139">
        <ele>871.98</ele>
        <time>2021-08-02T11:04:13Z</time>
      </trkpt>
      <trkpt lat="42.31214" lon="0.34113">
        <ele>872.69</ele>
        <time>2021-08-02T11:04:17Z</time>
      </trkpt>
      <trkpt lat="42.31184" lon="0.34094">
        <ele>873.09</ele>
        <time>2021-08-02T11:04:22Z</time>
      </trkpt>
      <trkpt lat="42.31183" lon="0.34093">
        <ele>874.54</ele>
        <time>2021-08-02T11:04:35Z</time>
      </trkpt>
      <trkpt lat="42.3118" lon="0.34093">
        <ele>874.64</ele>
        <time>2021-08-02T11:04:38Z</time>
      </trkpt>
      <trkpt lat="42.31178" lon="0.34103">
        <ele>875.17</ele>
        <time>2021-08-02T11:04:51Z</time>
      </trkpt>
      <trkpt lat="42.31179" lon="0.34105">
        <ele>875.43</ele>
        <time>2021-08-02T11:05:15Z</time>
      </trkpt>
      <trkpt lat="42.31179" lon="0.34118">
        <ele>875.55</ele>
        <time>2021-08-02T11:05:57Z</time>
      </trkpt>
      <trkpt lat="42.31179" lon="0.34119">
        <ele>875.6</ele>
        <time>2021-08-02T11:05:58Z</time>
      </trkpt>
      <trkpt lat="42.3118" lon="0.3411">
        <ele>875.9</ele>
        <time>2021-08-02T11:06:11Z</time>
      </trkpt>
      <trkpt lat="42.31197" lon="0.34152">
        <ele>876.39</ele>
        <time>2021-08-02T11:06:24Z</time>
      </trkpt>
      <trkpt lat="42.31221" lon="0.34186">
        <ele>877.16</ele>
        <time>2021-08-02T11:06:33Z</time>
      </trkpt>
      <trkpt lat="42.31236" lon="0.34191">
        <ele>877.52</ele>
        <time>2021-08-02T11:06:37Z</time>
      </trkpt>
      <trkpt lat="42.31244" lon="0.3419">
        <ele>877.85</ele>
        <time>2021-08-02T11:06:39Z</time>
      </trkpt>
      <trkpt lat="42.31284" lon="0.34199">
        <ele>878.23</ele>
        <time>2021-08-02T11:06:47Z</time>
      </trkpt>
      <trkpt lat="42.31329" lon="0.34214">
        <ele>878.36</ele>
        <time>2021-08-02T11:06:55Z</time>
      </trkpt>
      <trkpt lat="42.31348" lon="0.34195">
        <ele>879.04</ele>
        <time>2021-08-02T11:07:03Z</time>
      </trkpt>
      <trkpt lat="42.31347" lon="0.34178">
        <ele>880.66</ele>
        <time>2021-08-02T11:07:13Z</time>
      </trkpt>
      <trkpt lat="42.31347" lon="0.34178">
        <ele>881.13</ele>
        <time>2021-08-02T11:07:36Z</time>
      </trkpt>
      <trkpt lat="42.31352" lon="0.34165">
        <ele>881.31</ele>
        <time>2021-08-02T11:07:40Z</time>
      </trkpt>
      <trkpt lat="42.31383" lon="0.3416">
        <ele>882.03</ele>
        <time>2021-08-02T11:07:48Z</time>
      </trkpt>
      <trkpt lat="42.31413" lon="0.34174">
        <ele>884.81</ele>
        <time>2021-08-02T11:08:01Z</time>
      </trkpt>
      <trkpt lat="42.31425" lon="0.34173">
        <ele>885.37</ele>
        <time>2021-08-02T11:08:04Z</time>
      </trkpt>
      <trkpt lat="42.31439" lon="0.34184">
        <ele>886.62</ele>
        <time>2021-08-02T11:08:08Z</time>
      </trkpt>
      <trkpt lat="42.31464" lon="0.34197">
        <ele>890.22</ele>
        <time>2021-08-02T11:08:18Z</time>
      </trkpt>
      <trkpt lat="42.31486" lon="0.34188">
        <ele>891.17</ele>
        <time>2021-08-02T11:08:27Z</time>
      </trkpt>
      <trkpt lat="42.31496" lon="0.3417">
        <ele>891.37</ele>
        <time>2021-08-02T11:08:31Z</time>
      </trkpt>
      <trkpt lat="42.31498" lon="0.34159">
        <ele>891.37</ele>
        <time>2021-08-02T11:08:33Z</time>
      </trkpt>
      <trkpt lat="42.31497" lon="0.34128">
        <ele>891.69</ele>
        <time>2021-08-02T11:08:38Z</time>
      </trkpt>
      <trkpt lat="42.31494" lon="0.3411">
        <ele>891.85</ele>
        <time>2021-08-02T11:08:41Z</time>
      </trkpt>
      <trkpt lat="42.31479" lon="0.3408">
        <ele>892.28</ele>
        <time>2021-08-02T11:08:46Z</time>
      </trkpt>
      <trkpt lat="42.31485" lon="0.34028">
        <ele>892.58</ele>
        <time>2021-08-02T11:08:53Z</time>
      </trkpt>
      <trkpt lat="42.31516" lon="0.34045">
        <ele>893.59</ele>
        <time>2021-08-02T11:08:59Z</time>
      </trkpt>
      <trkpt lat="42.31532" lon="0.34043">
        <ele>894.05</ele>
        <time>2021-08-02T11:09:03Z</time>
      </trkpt>
      <trkpt lat="42.31543" lon="0.34036">
        <ele>894.51</ele>
        <time>2021-08-02T11:09:06Z</time>
      </trkpt>
      <trkpt lat="42.31561" lon="0.34021">
        <ele>894.68</ele>
        <time>2021-08-02T11:09:10Z</time>
      </trkpt>
      <trkpt lat="42.31604" lon="0.33966">
        <ele>894.72</ele>
        <time>2021-08-02T11:09:23Z</time>
      </trkpt>
      <trkpt lat="42.3161" lon="0.3395">
        <ele>894.35</ele>
        <time>2021-08-02T11:09:27Z</time>
      </trkpt>
      <trkpt lat="42.3161" lon="0.33927">
        <ele>894.02</ele>
        <time>2021-08-02T11:09:31Z</time>
      </trkpt>
      <trkpt lat="42.31604" lon="0.33906">
        <ele>893.84</ele>
        <time>2021-08-02T11:09:35Z</time>
      </trkpt>
      <trkpt lat="42.31603" lon="0.33873">
        <ele>894.01</ele>
        <time>2021-08-02T11:09:40Z</time>
      </trkpt>
      <trkpt lat="42.31606" lon="0.33865">
        <ele>895.01</ele>
        <time>2021-08-02T11:09:50Z</time>
      </trkpt>
      <trkpt lat="42.31606" lon="0.33862">
        <ele>895.04</ele>
        <time>2021-08-02T11:09:53Z</time>
      </trkpt>
      <trkpt lat="42.31613" lon="0.33843">
        <ele>895.33</ele>
        <time>2021-08-02T11:09:58Z</time>
      </trkpt>
      <trkpt lat="42.31608" lon="0.33805">
        <ele>897.62</ele>
        <time>2021-08-02T11:10:07Z</time>
      </trkpt>
      <trkpt lat="42.31578" lon="0.33755">
        <ele>900.85</ele>
        <time>2021-08-02T11:10:19Z</time>
      </trkpt>
      <trkpt lat="42.31578" lon="0.33734">
        <ele>902.34</ele>
        <time>2021-08-02T11:10:23Z</time>
      </trkpt>
      <trkpt lat="42.31582" lon="0.33682">
        <ele>904.88</ele>
        <time>2021-08-02T11:10:32Z</time>
      </trkpt>
      <trkpt lat="42.31564" lon="0.33671">
        <ele>906.22</ele>
        <time>2021-08-02T11:10:39Z</time>
      </trkpt>
      <trkpt lat="42.31554" lon="0.33664">
        <ele>906.51</ele>
        <time>2021-08-02T11:10:41Z</time>
      </trkpt>
      <trkpt lat="42.31516" lon="0.33658">
        <ele>907.81</ele>
        <time>2021-08-02T11:10:47Z</time>
      </trkpt>
      <trkpt lat="42.31485" lon="0.33643">
        <ele>909.02</ele>
        <time>2021-08-02T11:10:59Z</time>
      </trkpt>
      <trkpt lat="42.31483" lon="0.3364">
        <ele>909.04</ele>
        <time>2021-08-02T11:11:00Z</time>
      </trkpt>
      <trkpt lat="42.31492" lon="0.33581">
        <ele>909.39</ele>
        <time>2021-08-02T11:11:08Z</time>
      </trkpt>
      <trkpt lat="42.31503" lon="0.3353">
        <ele>909.34</ele>
        <time>2021-08-02T11:11:14Z</time>
      </trkpt>
      <trkpt lat="42.31504" lon="0.33514">
        <ele>908.8</ele>
        <time>2021-08-02T11:11:16Z</time>
      </trkpt>
      <trkpt lat="42.31488" lon="0.33438">
        <ele>906.57</ele>
        <time>2021-08-02T11:11:25Z</time>
      </trkpt>
      <trkpt lat="42.31485" lon="0.33396">
        <ele>905.35</ele>
        <time>2021-08-02T11:11:30Z</time>
      </trkpt>
      <trkpt lat="42.31473" lon="0.33364">
        <ele>903.59</ele>
        <time>2021-08-02T11:11:35Z</time>
      </trkpt>
      <trkpt lat="42.31466" lon="0.33351">
        <ele>902.48</ele>
        <time>2021-08-02T11:11:37Z</time>
      </trkpt>
      <trkpt lat="42.31439" lon="0.3331">
        <ele>900.37</ele>
        <time>2021-08-02T11:11:44Z</time>
      </trkpt>
      <trkpt lat="42.31413" lon="0.33283">
        <ele>899.3</ele>
        <time>2021-08-02T11:11:48Z</time>
      </trkpt>
      <trkpt lat="42.31378" lon="0.33261">
        <ele>898.61</ele>
        <time>2021-08-02T11:11:53Z</time>
      </trkpt>
      <trkpt lat="42.31357" lon="0.33215">
        <ele>897.08</ele>
        <time>2021-08-02T11:12:00Z</time>
      </trkpt>
      <trkpt lat="42.31356" lon="0.33203">
        <ele>896.55</ele>
        <time>2021-08-02T11:12:02Z</time>
      </trkpt>
      <trkpt lat="42.31366" lon="0.33175">
        <ele>894.86</ele>
        <time>2021-08-02T11:12:08Z</time>
      </trkpt>
      <trkpt lat="42.31379" lon="0.33134">
        <ele>892.87</ele>
        <time>2021-08-02T11:12:14Z</time>
      </trkpt>
      <trkpt lat="42.31405" lon="0.33102">
        <ele>891.6</ele>
        <time>2021-08-02T11:12:20Z</time>
      </trkpt>
      <trkpt lat="42.31466" lon="0.33065">
        <ele>888.57</ele>
        <time>2021-08-02T11:12:35Z</time>
      </trkpt>
      <trkpt lat="42.31485" lon="0.33062">
        <ele>887.19</ele>
        <time>2021-08-02T11:12:46Z</time>
      </trkpt>
      <trkpt lat="42.31514" lon="0.3306">
        <ele>886.2</ele>
        <time>2021-08-02T11:12:56Z</time>
      </trkpt>
      <trkpt lat="42.31562" lon="0.33048">
        <ele>883.17</ele>
        <time>2021-08-02T11:13:10Z</time>
      </trkpt>
      <trkpt lat="42.3158" lon="0.33042">
        <ele>881.3</ele>
        <time>2021-08-02T11:13:15Z</time>
      </trkpt>
      <trkpt lat="42.31596" lon="0.33038">
        <ele>879.47</ele>
        <time>2021-08-02T11:13:21Z</time>
      </trkpt>
      <trkpt lat="42.31626" lon="0.33056">
        <ele>877.71</ele>
        <time>2021-08-02T11:13:31Z</time>
      </trkpt>
      <trkpt lat="42.31638" lon="0.33059">
        <ele>876.73</ele>
        <time>2021-08-02T11:13:36Z</time>
      </trkpt>
      <trkpt lat="42.31643" lon="0.33031">
        <ele>875.67</ele>
        <time>2021-08-02T11:13:43Z</time>
      </trkpt>
      <trkpt lat="42.3164" lon="0.33021">
        <ele>875.48</ele>
        <time>2021-08-02T11:13:45Z</time>
      </trkpt>
      <trkpt lat="42.31625" lon="0.32994">
        <ele>875.19</ele>
        <time>2021-08-02T11:13:51Z</time>
      </trkpt>
      <trkpt lat="42.31606" lon="0.32963">
        <ele>874.52</ele>
        <time>2021-08-02T11:13:58Z</time>
      </trkpt>
      <trkpt lat="42.31605" lon="0.32951">
        <ele>874.44</ele>
        <time>2021-08-02T11:14:00Z</time>
      </trkpt>
      <trkpt lat="42.31586" lon="0.32911">
        <ele>875.76</ele>
        <time>2021-08-02T11:14:11Z</time>
      </trkpt>
      <trkpt lat="42.31561" lon="0.32901">
        <ele>876.56</ele>
        <time>2021-08-02T11:14:17Z</time>
      </trkpt>
      <trkpt lat="42.31545" lon="0.32883">
        <ele>877.28</ele>
        <time>2021-08-02T11:14:21Z</time>
      </trkpt>
      <trkpt lat="42.31532" lon="0.32866">
        <ele>878.03</ele>
        <time>2021-08-02T11:14:26Z</time>
      </trkpt>
      <trkpt lat="42.31504" lon="0.32845">
        <ele>878.22</ele>
        <time>2021-08-02T11:14:36Z</time>
      </trkpt>
      <trkpt lat="42.31489" lon="0.3284">
        <ele>878.19</ele>
        <time>2021-08-02T11:14:40Z</time>
      </trkpt>
      <trkpt lat="42.31464" lon="0.32815">
        <ele>878.54</ele>
        <time>2021-08-02T11:14:45Z</time>
      </trkpt>
      <trkpt lat="42.31454" lon="0.32801">
        <ele>878.95</ele>
        <time>2021-08-02T11:14:47Z</time>
      </trkpt>
      <trkpt lat="42.31408" lon="0.32746">
        <ele>881.08</ele>
        <time>2021-08-02T11:14:54Z</time>
      </trkpt>
      <trkpt lat="42.3137" lon="0.32708">
        <ele>881.95</ele>
        <time>2021-08-02T11:15:00Z</time>
      </trkpt>
      <trkpt lat="42.31362" lon="0.32693">
        <ele>882.14</ele>
        <time>2021-08-02T11:15:02Z</time>
      </trkpt>
      <trkpt lat="42.3134" lon="0.32648">
        <ele>882.45</ele>
        <time>2021-08-02T11:15:10Z</time>
      </trkpt>
      <trkpt lat="42.31335" lon="0.3264">
        <ele>882.41</ele>
        <time>2021-08-02T11:15:12Z</time>
      </trkpt>
      <trkpt lat="42.3132" lon="0.32617">
        <ele>882.42</ele>
        <time>2021-08-02T11:15:16Z</time>
      </trkpt>
      <trkpt lat="42.31313" lon="0.32589">
        <ele>882.47</ele>
        <time>2021-08-02T11:15:21Z</time>
      </trkpt>
      <trkpt lat="42.31316" lon="0.32545">
        <ele>884.26</ele>
        <time>2021-08-02T11:15:33Z</time>
      </trkpt>
      <trkpt lat="42.31314" lon="0.32512">
        <ele>885.23</ele>
        <time>2021-08-02T11:15:37Z</time>
      </trkpt>
      <trkpt lat="42.31333" lon="0.32461">
        <ele>887.05</ele>
        <time>2021-08-02T11:15:44Z</time>
      </trkpt>
      <trkpt lat="42.3135" lon="0.32399">
        <ele>887.57</ele>
        <time>2021-08-02T11:15:54Z</time>
      </trkpt>
      <trkpt lat="42.3135" lon="0.32394">
        <ele>887.54</ele>
        <time>2021-08-02T11:15:55Z</time>
      </trkpt>
      <trkpt lat="42.31349" lon="0.32371">
        <ele>887.43</ele>
        <time>2021-08-02T11:15:59Z</time>
      </trkpt>
      <trkpt lat="42.31361" lon="0.32318">
        <ele>887.75</ele>
        <time>2021-08-02T11:16:08Z</time>
      </trkpt>
      <trkpt lat="42.31371" lon="0.32291">
        <ele>887.94</ele>
        <time>2021-08-02T11:16:12Z</time>
      </trkpt>
      <trkpt lat="42.31374" lon="0.32268">
        <ele>888.9</ele>
        <time>2021-08-02T11:16:16Z</time>
      </trkpt>
      <trkpt lat="42.3137" lon="0.3224">
        <ele>890.26</ele>
        <time>2021-08-02T11:16:20Z</time>
      </trkpt>
      <trkpt lat="42.31381" lon="0.32211">
        <ele>891.32</ele>
        <time>2021-08-02T11:16:24Z</time>
      </trkpt>
      <trkpt lat="42.31405" lon="0.3218">
        <ele>894.06</ele>
        <time>2021-08-02T11:16:32Z</time>
      </trkpt>
      <trkpt lat="42.31431" lon="0.32176">
        <ele>896.1</ele>
        <time>2021-08-02T11:16:37Z</time>
      </trkpt>
      <trkpt lat="42.31475" lon="0.32181">
        <ele>899.74</ele>
        <time>2021-08-02T11:16:46Z</time>
      </trkpt>
      <trkpt lat="42.31496" lon="0.32191">
        <ele>902.86</ele>
        <time>2021-08-02T11:16:53Z</time>
      </trkpt>
      <trkpt lat="42.315" lon="0.32192">
        <ele>903.24</ele>
        <time>2021-08-02T11:16:54Z</time>
      </trkpt>
      <trkpt lat="42.31539" lon="0.32212">
        <ele>906.98</ele>
        <time>2021-08-02T11:17:03Z</time>
      </trkpt>
      <trkpt lat="42.31564" lon="0.32234">
        <ele>910.26</ele>
        <time>2021-08-02T11:17:11Z</time>
      </trkpt>
      <trkpt lat="42.31582" lon="0.32246">
        <ele>913.58</ele>
        <time>2021-08-02T11:17:18Z</time>
      </trkpt>
      <trkpt lat="42.31606" lon="0.32265">
        <ele>916.91</ele>
        <time>2021-08-02T11:17:27Z</time>
      </trkpt>
      <trkpt lat="42.31621" lon="0.32273">
        <ele>918.6</ele>
        <time>2021-08-02T11:17:31Z</time>
      </trkpt>
      <trkpt lat="42.31655" lon="0.32294">
        <ele>922.17</ele>
        <time>2021-08-02T11:17:41Z</time>
      </trkpt>
      <trkpt lat="42.31669" lon="0.3231">
        <ele>924.12</ele>
        <time>2021-08-02T11:17:46Z</time>
      </trkpt>
      <trkpt lat="42.31677" lon="0.32324">
        <ele>925.08</ele>
        <time>2021-08-02T11:17:49Z</time>
      </trkpt>
      <trkpt lat="42.31682" lon="0.32341">
        <ele>927.01</ele>
        <time>2021-08-02T11:17:53Z</time>
      </trkpt>
      <trkpt lat="42.31699" lon="0.32382">
        <ele>930.39</ele>
        <time>2021-08-02T11:18:05Z</time>
      </trkpt>
      <trkpt lat="42.31711" lon="0.32406">
        <ele>933.26</ele>
        <time>2021-08-02T11:18:17Z</time>
      </trkpt>
      <trkpt lat="42.31737" lon="0.32406">
        <ele>934.85</ele>
        <time>2021-08-02T11:18:25Z</time>
      </trkpt>
      <trkpt lat="42.31766" lon="0.32397">
        <ele>936.27</ele>
        <time>2021-08-02T11:18:31Z</time>
      </trkpt>
      <trkpt lat="42.31796" lon="0.32413">
        <ele>937.77</ele>
        <time>2021-08-02T11:18:41Z</time>
      </trkpt>
      <trkpt lat="42.31799" lon="0.32418">
        <ele>937.97</ele>
        <time>2021-08-02T11:18:42Z</time>
      </trkpt>
      <trkpt lat="42.31806" lon="0.3244">
        <ele>939.39</ele>
        <time>2021-08-02T11:18:46Z</time>
      </trkpt>
      <trkpt lat="42.31804" lon="0.32487">
        <ele>942.82</ele>
        <time>2021-08-02T11:18:56Z</time>
      </trkpt>
      <trkpt lat="42.31793" lon="0.32529">
        <ele>945.89</ele>
        <time>2021-08-02T11:19:06Z</time>
      </trkpt>
      <trkpt lat="42.3179" lon="0.32542">
        <ele>946.47</ele>
        <time>2021-08-02T11:19:08Z</time>
      </trkpt>
      <trkpt lat="42.31772" lon="0.32595">
        <ele>948.93</ele>
        <time>2021-08-02T11:19:18Z</time>
      </trkpt>
      <trkpt lat="42.31767" lon="0.32622">
        <ele>950.11</ele>
        <time>2021-08-02T11:19:23Z</time>
      </trkpt>
      <trkpt lat="42.31791" lon="0.32693">
        <ele>952.41</ele>
        <time>2021-08-02T11:19:31Z</time>
      </trkpt>
      <trkpt lat="42.31807" lon="0.32682">
        <ele>954.07</ele>
        <time>2021-08-02T11:19:36Z</time>
      </trkpt>
      <trkpt lat="42.31807" lon="0.32678">
        <ele>954.41</ele>
        <time>2021-08-02T11:19:37Z</time>
      </trkpt>
      <trkpt lat="42.31832" lon="0.326">
        <ele>957.31</ele>
        <time>2021-08-02T11:19:46Z</time>
      </trkpt>
      <trkpt lat="42.31858" lon="0.32565">
        <ele>960.31</ele>
        <time>2021-08-02T11:19:56Z</time>
      </trkpt>
      <trkpt lat="42.31904" lon="0.32548">
        <ele>962.95</ele>
        <time>2021-08-02T11:20:06Z</time>
      </trkpt>
      <trkpt lat="42.31974" lon="0.32524">
        <ele>964.24</ele>
        <time>2021-08-02T11:20:17Z</time>
      </trkpt>
      <trkpt lat="42.32007" lon="0.32516">
        <ele>965.54</ele>
        <time>2021-08-02T11:20:22Z</time>
      </trkpt>
      <trkpt lat="42.32021" lon="0.32504">
        <ele>966.59</ele>
        <time>2021-08-02T11:20:26Z</time>
      </trkpt>
      <trkpt lat="42.32063" lon="0.32448">
        <ele>969.45</ele>
        <time>2021-08-02T11:20:35Z</time>
      </trkpt>
      <trkpt lat="42.32088" lon="0.32438">
        <ele>970.76</ele>
        <time>2021-08-02T11:20:42Z</time>
      </trkpt>
      <trkpt lat="42.32093" lon="0.32439">
        <ele>971.21</ele>
        <time>2021-08-02T11:20:44Z</time>
      </trkpt>
      <trkpt lat="42.32131" lon="0.32425">
        <ele>973.7</ele>
        <time>2021-08-02T11:20:54Z</time>
      </trkpt>
      <trkpt lat="42.32146" lon="0.32417">
        <ele>974.14</ele>
        <time>2021-08-02T11:20:56Z</time>
      </trkpt>
      <trkpt lat="42.32176" lon="0.32414">
        <ele>975.1</ele>
        <time>2021-08-02T11:21:00Z</time>
      </trkpt>
      <trkpt lat="42.32208" lon="0.32416">
        <ele>977.16</ele>
        <time>2021-08-02T11:21:05Z</time>
      </trkpt>
      <trkpt lat="42.32235" lon="0.32404">
        <ele>980.16</ele>
        <time>2021-08-02T11:21:10Z</time>
      </trkpt>
      <trkpt lat="42.3226" lon="0.32397">
        <ele>984.35</ele>
        <time>2021-08-02T11:21:17Z</time>
      </trkpt>
      <trkpt lat="42.32289" lon="0.32393">
        <ele>987.59</ele>
        <time>2021-08-02T11:21:24Z</time>
      </trkpt>
      <trkpt lat="42.32307" lon="0.32387">
        <ele>989.34</ele>
        <time>2021-08-02T11:21:27Z</time>
      </trkpt>
      <trkpt lat="42.32321" lon="0.32386">
        <ele>990.16</ele>
        <time>2021-08-02T11:21:29Z</time>
      </trkpt>
      <trkpt lat="42.32333" lon="0.3239">
        <ele>991.48</ele>
        <time>2021-08-02T11:21:31Z</time>
      </trkpt>
      <trkpt lat="42.32361" lon="0.32399">
        <ele>994.22</ele>
        <time>2021-08-02T11:21:37Z</time>
      </trkpt>
      <trkpt lat="42.32406" lon="0.324">
        <ele>998.11</ele>
        <time>2021-08-02T11:21:46Z</time>
      </trkpt>
      <trkpt lat="42.3242" lon="0.32384">
        <ele>1001.48</ele>
        <time>2021-08-02T11:21:54Z</time>
      </trkpt>
      <trkpt lat="42.32425" lon="0.32373">
        <ele>1003.04</ele>
        <time>2021-08-02T11:22:10Z</time>
      </trkpt>
      <trkpt lat="42.32417" lon="0.32341">
        <ele>1002.55</ele>
        <time>2021-08-02T11:22:17Z</time>
      </trkpt>
      <trkpt lat="42.32387" lon="0.32319">
        <ele>1001.82</ele>
        <time>2021-08-02T11:22:22Z</time>
      </trkpt>
      <trkpt lat="42.32374" lon="0.32316">
        <ele>1001.49</ele>
        <time>2021-08-02T11:22:24Z</time>
      </trkpt>
      <trkpt lat="42.32352" lon="0.32293">
        <ele>1000.88</ele>
        <time>2021-08-02T11:22:29Z</time>
      </trkpt>
      <trkpt lat="42.3229" lon="0.32235">
        <ele>998.83</ele>
        <time>2021-08-02T11:22:38Z</time>
      </trkpt>
      <trkpt lat="42.32272" lon="0.32214">
        <ele>998.15</ele>
        <time>2021-08-02T11:22:41Z</time>
      </trkpt>
      <trkpt lat="42.32261" lon="0.32203">
        <ele>997.82</ele>
        <time>2021-08-02T11:22:43Z</time>
      </trkpt>
      <trkpt lat="42.32236" lon="0.32128">
        <ele>996.51</ele>
        <time>2021-08-02T11:22:51Z</time>
      </trkpt>
      <trkpt lat="42.32205" lon="0.32043">
        <ele>995.46</ele>
        <time>2021-08-02T11:23:01Z</time>
      </trkpt>
      <trkpt lat="42.32194" lon="0.31986">
        <ele>995.01</ele>
        <time>2021-08-02T11:23:07Z</time>
      </trkpt>
      <trkpt lat="42.32186" lon="0.31962">
        <ele>995.13</ele>
        <time>2021-08-02T11:23:09Z</time>
      </trkpt>
      <trkpt lat="42.32152" lon="0.31899">
        <ele>995.35</ele>
        <time>2021-08-02T11:23:14Z</time>
      </trkpt>
      <trkpt lat="42.32104" lon="0.31819">
        <ele>993.71</ele>
        <time>2021-08-02T11:23:21Z</time>
      </trkpt>
      <trkpt lat="42.32089" lon="0.31774">
        <ele>992.3</ele>
        <time>2021-08-02T11:23:25Z</time>
      </trkpt>
      <trkpt lat="42.32063" lon="0.31732">
        <ele>990.69</ele>
        <time>2021-08-02T11:23:29Z</time>
      </trkpt>
      <trkpt lat="42.32011" lon="0.3168">
        <ele>988.49</ele>
        <time>2021-08-02T11:23:36Z</time>
      </trkpt>
      <trkpt lat="42.32003" lon="0.31656">
        <ele>987.93</ele>
        <time>2021-08-02T11:23:39Z</time>
      </trkpt>
      <trkpt lat="42.31954" lon="0.31563">
        <ele>985.65</ele>
        <time>2021-08-02T11:23:49Z</time>
      </trkpt>
      <trkpt lat="42.3194" lon="0.31542">
        <ele>984.42</ele>
        <time>2021-08-02T11:23:52Z</time>
      </trkpt>
      <trkpt lat="42.31922" lon="0.3151">
        <ele>982.63</ele>
        <time>2021-08-02T11:23:56Z</time>
      </trkpt>
      <trkpt lat="42.31906" lon="0.3149">
        <ele>981.28</ele>
        <time>2021-08-02T11:23:59Z</time>
      </trkpt>
      <trkpt lat="42.31887" lon="0.31466">
        <ele>979.8</ele>
        <time>2021-08-02T11:24:02Z</time>
      </trkpt>
      <trkpt lat="42.3181" lon="0.31413">
        <ele>976.76</ele>
        <time>2021-08-02T11:24:11Z</time>
      </trkpt>
      <trkpt lat="42.31781" lon="0.31401">
        <ele>976.48</ele>
        <time>2021-08-02T11:24:15Z</time>
      </trkpt>
      <trkpt lat="42.31755" lon="0.31375">
        <ele>977.11</ele>
        <time>2021-08-02T11:24:19Z</time>
      </trkpt>
      <trkpt lat="42.31729" lon="0.31335">
        <ele>978.78</ele>
        <time>2021-08-02T11:24:24Z</time>
      </trkpt>
      <trkpt lat="42.31712" lon="0.31271">
        <ele>979.83</ele>
        <time>2021-08-02T11:24:31Z</time>
      </trkpt>
      <trkpt lat="42.31691" lon="0.31186">
        <ele>979.68</ele>
        <time>2021-08-02T11:24:41Z</time>
      </trkpt>
      <trkpt lat="42.31659" lon="0.31132">
        <ele>982.02</ele>
        <time>2021-08-02T11:24:48Z</time>
      </trkpt>
      <trkpt lat="42.31617" lon="0.31114">
        <ele>984.79</ele>
        <time>2021-08-02T11:24:54Z</time>
      </trkpt>
      <trkpt lat="42.31592" lon="0.31101">
        <ele>986.06</ele>
        <time>2021-08-02T11:24:57Z</time>
      </trkpt>
      <trkpt lat="42.31578" lon="0.31087">
        <ele>986.78</ele>
        <time>2021-08-02T11:24:59Z</time>
      </trkpt>
      <trkpt lat="42.31572" lon="0.31078">
        <ele>987.1</ele>
        <time>2021-08-02T11:25:00Z</time>
      </trkpt>
      <trkpt lat="42.31568" lon="0.31068">
        <ele>987.51</ele>
        <time>2021-08-02T11:25:01Z</time>
      </trkpt>
      <trkpt lat="42.31566" lon="0.31058">
        <ele>987.99</ele>
        <time>2021-08-02T11:25:02Z</time>
      </trkpt>
      <trkpt lat="42.31564" lon="0.31049">
        <ele>988.47</ele>
        <time>2021-08-02T11:25:03Z</time>
      </trkpt>
      <trkpt lat="42.31543" lon="0.3098">
        <ele>991.91</ele>
        <time>2021-08-02T11:25:12Z</time>
      </trkpt>
      <trkpt lat="42.31539" lon="0.30964">
        <ele>992.86</ele>
        <time>2021-08-02T11:25:14Z</time>
      </trkpt>
      <trkpt lat="42.31531" lon="0.30946">
        <ele>993.59</ele>
        <time>2021-08-02T11:25:16Z</time>
      </trkpt>
      <trkpt lat="42.3148" lon="0.30854">
        <ele>995.13</ele>
        <time>2021-08-02T11:25:26Z</time>
      </trkpt>
      <trkpt lat="42.31419" lon="0.3081">
        <ele>996.37</ele>
        <time>2021-08-02T11:25:34Z</time>
      </trkpt>
      <trkpt lat="42.31384" lon="0.30794">
        <ele>997.16</ele>
        <time>2021-08-02T11:25:38Z</time>
      </trkpt>
      <trkpt lat="42.31335" lon="0.30762">
        <ele>1001.07</ele>
        <time>2021-08-02T11:25:46Z</time>
      </trkpt>
      <trkpt lat="42.31317" lon="0.30753">
        <ele>1002.87</ele>
        <time>2021-08-02T11:25:49Z</time>
      </trkpt>
      <trkpt lat="42.3129" lon="0.30713">
        <ele>1005.68</ele>
        <time>2021-08-02T11:25:55Z</time>
      </trkpt>
      <trkpt lat="42.31278" lon="0.30681">
        <ele>1006.54</ele>
        <time>2021-08-02T11:25:59Z</time>
      </trkpt>
      <trkpt lat="42.31245" lon="0.30653">
        <ele>1006.41</ele>
        <time>2021-08-02T11:26:04Z</time>
      </trkpt>
      <trkpt lat="42.31189" lon="0.30623">
        <ele>1005.55</ele>
        <time>2021-08-02T11:26:11Z</time>
      </trkpt>
      <trkpt lat="42.31156" lon="0.30588">
        <ele>1005.32</ele>
        <time>2021-08-02T11:26:15Z</time>
      </trkpt>
      <trkpt lat="42.31128" lon="0.30595">
        <ele>1006.24</ele>
        <time>2021-08-02T11:26:20Z</time>
      </trkpt>
      <trkpt lat="42.31124" lon="0.30618">
        <ele>1006.78</ele>
        <time>2021-08-02T11:26:22Z</time>
      </trkpt>
      <trkpt lat="42.31108" lon="0.30661">
        <ele>1008.93</ele>
        <time>2021-08-02T11:26:26Z</time>
      </trkpt>
      <trkpt lat="42.31101" lon="0.3067">
        <ele>1010.29</ele>
        <time>2021-08-02T11:26:27Z</time>
      </trkpt>
      <trkpt lat="42.31053" lon="0.30729">
        <ele>1014.24</ele>
        <time>2021-08-02T11:26:33Z</time>
      </trkpt>
      <trkpt lat="42.31039" lon="0.30744">
        <ele>1015.83</ele>
        <time>2021-08-02T11:26:35Z</time>
      </trkpt>
      <trkpt lat="42.31008" lon="0.30732">
        <ele>1019.84</ele>
        <time>2021-08-02T11:26:41Z</time>
      </trkpt>
      <trkpt lat="42.31015" lon="0.30699">
        <ele>1021.43</ele>
        <time>2021-08-02T11:26:44Z</time>
      </trkpt>
      <trkpt lat="42.31021" lon="0.30676">
        <ele>1022.43</ele>
        <time>2021-08-02T11:26:46Z</time>
      </trkpt>
      <trkpt lat="42.31003" lon="0.30655">
        <ele>1024.98</ele>
        <time>2021-08-02T11:26:52Z</time>
      </trkpt>
      <trkpt lat="42.30994" lon="0.30672">
        <ele>1025.52</ele>
        <time>2021-08-02T11:26:54Z</time>
      </trkpt>
      <trkpt lat="42.30975" lon="0.30716">
        <ele>1027.09</ele>
        <time>2021-08-02T11:26:58Z</time>
      </trkpt>
      <trkpt lat="42.30961" lon="0.30738">
        <ele>1028.15</ele>
        <time>2021-08-02T11:27:00Z</time>
      </trkpt>
      <trkpt lat="42.30911" lon="0.30788">
        <ele>1030.46</ele>
        <time>2021-08-02T11:27:07Z</time>
      </trkpt>
      <trkpt lat="42.30864" lon="0.30824">
        <ele>1033.05</ele>
        <time>2021-08-02T11:27:13Z</time>
      </trkpt>
      <trkpt lat="42.30822" lon="0.30846">
        <ele>1033.92</ele>
        <time>2021-08-02T11:27:18Z</time>
      </trkpt>
      <trkpt lat="42.30798" lon="0.30847">
        <ele>1034.59</ele>
        <time>2021-08-02T11:27:20Z</time>
      </trkpt>
      <trkpt lat="42.30704" lon="0.30901">
        <ele>1037.38</ele>
        <time>2021-08-02T11:27:29Z</time>
      </trkpt>
      <trkpt lat="42.30657" lon="0.30932">
        <ele>1038.15</ele>
        <time>2021-08-02T11:27:34Z</time>
      </trkpt>
      <trkpt lat="42.30628" lon="0.3099">
        <ele>1038.36</ele>
        <time>2021-08-02T11:27:40Z</time>
      </trkpt>
      <trkpt lat="42.30594" lon="0.31014">
        <ele>1038</ele>
        <time>2021-08-02T11:27:46Z</time>
      </trkpt>
      <trkpt lat="42.30579" lon="0.31001">
        <ele>1038.03</ele>
        <time>2021-08-02T11:27:48Z</time>
      </trkpt>
      <trkpt lat="42.30496" lon="0.30937">
        <ele>1037.69</ele>
        <time>2021-08-02T11:27:58Z</time>
      </trkpt>
      <trkpt lat="42.30421" lon="0.30878">
        <ele>1036.24</ele>
        <time>2021-08-02T11:28:06Z</time>
      </trkpt>
      <trkpt lat="42.30389" lon="0.30837">
        <ele>1035.5</ele>
        <time>2021-08-02T11:28:10Z</time>
      </trkpt>
      <trkpt lat="42.30368" lon="0.30755">
        <ele>1034.52</ele>
        <time>2021-08-02T11:28:16Z</time>
      </trkpt>
      <trkpt lat="42.30356" lon="0.30706">
        <ele>1033.26</ele>
        <time>2021-08-02T11:28:21Z</time>
      </trkpt>
      <trkpt lat="42.30369" lon="0.3069">
        <ele>1030.92</ele>
        <time>2021-08-02T11:28:26Z</time>
      </trkpt>
      <trkpt lat="42.30465" lon="0.30676">
        <ele>1027.01</ele>
        <time>2021-08-02T11:28:35Z</time>
      </trkpt>
      <trkpt lat="42.30509" lon="0.30668">
        <ele>1024.03</ele>
        <time>2021-08-02T11:28:39Z</time>
      </trkpt>
      <trkpt lat="42.30558" lon="0.30627">
        <ele>1020.17</ele>
        <time>2021-08-02T11:28:44Z</time>
      </trkpt>
      <trkpt lat="42.30574" lon="0.3061">
        <ele>1018.46</ele>
        <time>2021-08-02T11:28:46Z</time>
      </trkpt>
      <trkpt lat="42.30592" lon="0.30558">
        <ele>1014.03</ele>
        <time>2021-08-02T11:28:51Z</time>
      </trkpt>
      <trkpt lat="42.30586" lon="0.30481">
        <ele>1009.97</ele>
        <time>2021-08-02T11:28:56Z</time>
      </trkpt>
      <trkpt lat="42.30584" lon="0.30395">
        <ele>1007.5</ele>
        <time>2021-08-02T11:29:01Z</time>
      </trkpt>
      <trkpt lat="42.30604" lon="0.30334">
        <ele>1005.79</ele>
        <time>2021-08-02T11:29:05Z</time>
      </trkpt>
      <trkpt lat="42.30589" lon="0.30273">
        <ele>1003.76</ele>
        <time>2021-08-02T11:29:10Z</time>
      </trkpt>
      <trkpt lat="42.30556" lon="0.30199">
        <ele>1002.5</ele>
        <time>2021-08-02T11:29:15Z</time>
      </trkpt>
      <trkpt lat="42.30537" lon="0.30096">
        <ele>1001.54</ele>
        <time>2021-08-02T11:29:21Z</time>
      </trkpt>
      <trkpt lat="42.30559" lon="0.30024">
        <ele>999.6</ele>
        <time>2021-08-02T11:29:27Z</time>
      </trkpt>
      <trkpt lat="42.30581" lon="0.30008">
        <ele>998.82</ele>
        <time>2021-08-02T11:29:30Z</time>
      </trkpt>
      <trkpt lat="42.30615" lon="0.29973">
        <ele>998.29</ele>
        <time>2021-08-02T11:29:35Z</time>
      </trkpt>
      <trkpt lat="42.30618" lon="0.29934">
        <ele>997.82</ele>
        <time>2021-08-02T11:29:40Z</time>
      </trkpt>
      <trkpt lat="42.3059" lon="0.29885">
        <ele>997.83</ele>
        <time>2021-08-02T11:29:45Z</time>
      </trkpt>
      <trkpt lat="42.30583" lon="0.29877">
        <ele>998</ele>
        <time>2021-08-02T11:29:46Z</time>
      </trkpt>
      <trkpt lat="42.30485" lon="0.29767">
        <ele>998.4</ele>
        <time>2021-08-02T11:30:01Z</time>
      </trkpt>
      <trkpt lat="42.3048" lon="0.29759">
        <ele>998.39</ele>
        <time>2021-08-02T11:30:02Z</time>
      </trkpt>
      <trkpt lat="42.30475" lon="0.2972">
        <ele>998.14</ele>
        <time>2021-08-02T11:30:07Z</time>
      </trkpt>
      <trkpt lat="42.30504" lon="0.29725">
        <ele>997.92</ele>
        <time>2021-08-02T11:30:13Z</time>
      </trkpt>
      <trkpt lat="42.30552" lon="0.29753">
        <ele>997.88</ele>
        <time>2021-08-02T11:30:20Z</time>
      </trkpt>
      <trkpt lat="42.30671" lon="0.29746">
        <ele>996.98</ele>
        <time>2021-08-02T11:30:33Z</time>
      </trkpt>
      <trkpt lat="42.30712" lon="0.29728">
        <ele>996.71</ele>
        <time>2021-08-02T11:30:37Z</time>
      </trkpt>
      <trkpt lat="42.30737" lon="0.29701">
        <ele>996.34</ele>
        <time>2021-08-02T11:30:40Z</time>
      </trkpt>
      <trkpt lat="42.30751" lon="0.29635">
        <ele>996.19</ele>
        <time>2021-08-02T11:30:45Z</time>
      </trkpt>
      <trkpt lat="42.30755" lon="0.29564">
        <ele>995.99</ele>
        <time>2021-08-02T11:30:50Z</time>
      </trkpt>
      <trkpt lat="42.30777" lon="0.29522">
        <ele>995</ele>
        <time>2021-08-02T11:30:54Z</time>
      </trkpt>
      <trkpt lat="42.30841" lon="0.29494">
        <ele>992.11</ele>
        <time>2021-08-02T11:31:01Z</time>
      </trkpt>
      <trkpt lat="42.30899" lon="0.29511">
        <ele>988.14</ele>
        <time>2021-08-02T11:31:07Z</time>
      </trkpt>
      <trkpt lat="42.30908" lon="0.29519">
        <ele>987.31</ele>
        <time>2021-08-02T11:31:08Z</time>
      </trkpt>
      <trkpt lat="42.30958" lon="0.29577">
        <ele>983.2</ele>
        <time>2021-08-02T11:31:14Z</time>
      </trkpt>
      <trkpt lat="42.30966" lon="0.29586">
        <ele>982.74</ele>
        <time>2021-08-02T11:31:15Z</time>
      </trkpt>
      <trkpt lat="42.3101" lon="0.29587">
        <ele>980.6</ele>
        <time>2021-08-02T11:31:20Z</time>
      </trkpt>
      <trkpt lat="42.31042" lon="0.2956">
        <ele>979.51</ele>
        <time>2021-08-02T11:31:23Z</time>
      </trkpt>
      <trkpt lat="42.31098" lon="0.29538">
        <ele>977.16</ele>
        <time>2021-08-02T11:31:28Z</time>
      </trkpt>
      <trkpt lat="42.31137" lon="0.29538">
        <ele>975.97</ele>
        <time>2021-08-02T11:31:32Z</time>
      </trkpt>
      <trkpt lat="42.31168" lon="0.29518">
        <ele>975.01</ele>
        <time>2021-08-02T11:31:36Z</time>
      </trkpt>
      <trkpt lat="42.31204" lon="0.29477">
        <ele>973.56</ele>
        <time>2021-08-02T11:31:40Z</time>
      </trkpt>
      <trkpt lat="42.31224" lon="0.29412">
        <ele>970.67</ele>
        <time>2021-08-02T11:31:46Z</time>
      </trkpt>
      <trkpt lat="42.31216" lon="0.29343">
        <ele>969.34</ele>
        <time>2021-08-02T11:31:51Z</time>
      </trkpt>
      <trkpt lat="42.31173" lon="0.29287">
        <ele>967.58</ele>
        <time>2021-08-02T11:31:58Z</time>
      </trkpt>
      <trkpt lat="42.31147" lon="0.29333">
        <ele>964.12</ele>
        <time>2021-08-02T11:32:03Z</time>
      </trkpt>
      <trkpt lat="42.31129" lon="0.29393">
        <ele>960.72</ele>
        <time>2021-08-02T11:32:08Z</time>
      </trkpt>
      <trkpt lat="42.31101" lon="0.29394">
        <ele>958.84</ele>
        <time>2021-08-02T11:32:11Z</time>
      </trkpt>
      <trkpt lat="42.31045" lon="0.29407">
        <ele>957.06</ele>
        <time>2021-08-02T11:32:17Z</time>
      </trkpt>
      <trkpt lat="42.31017" lon="0.29397">
        <ele>952.99</ele>
        <time>2021-08-02T11:32:24Z</time>
      </trkpt>
      <trkpt lat="42.31031" lon="0.29377">
        <ele>951.56</ele>
        <time>2021-08-02T11:32:26Z</time>
      </trkpt>
      <trkpt lat="42.31047" lon="0.29355">
        <ele>950.66</ele>
        <time>2021-08-02T11:32:28Z</time>
      </trkpt>
      <trkpt lat="42.31101" lon="0.293">
        <ele>946.74</ele>
        <time>2021-08-02T11:32:35Z</time>
      </trkpt>
      <trkpt lat="42.31109" lon="0.29272">
        <ele>945.46</ele>
        <time>2021-08-02T11:32:37Z</time>
      </trkpt>
      <trkpt lat="42.31118" lon="0.29216">
        <ele>943.39</ele>
        <time>2021-08-02T11:32:41Z</time>
      </trkpt>
      <trkpt lat="42.31091" lon="0.29193">
        <ele>938.63</ele>
        <time>2021-08-02T11:32:46Z</time>
      </trkpt>
      <trkpt lat="42.31062" lon="0.29184">
        <ele>935.61</ele>
        <time>2021-08-02T11:32:50Z</time>
      </trkpt>
      <trkpt lat="42.31061" lon="0.29128">
        <ele>932.5</ele>
        <time>2021-08-02T11:32:54Z</time>
      </trkpt>
      <trkpt lat="42.31065" lon="0.29108">
        <ele>932.13</ele>
        <time>2021-08-02T11:32:55Z</time>
      </trkpt>
      <trkpt lat="42.31076" lon="0.29039">
        <ele>930.6</ele>
        <time>2021-08-02T11:33:00Z</time>
      </trkpt>
      <trkpt lat="42.31058" lon="0.29">
        <ele>928.65</ele>
        <time>2021-08-02T11:33:04Z</time>
      </trkpt>
      <trkpt lat="42.31009" lon="0.28977">
        <ele>927.62</ele>
        <time>2021-08-02T11:33:08Z</time>
      </trkpt>
      <trkpt lat="42.30963" lon="0.28985">
        <ele>926.9</ele>
        <time>2021-08-02T11:33:12Z</time>
      </trkpt>
      <trkpt lat="42.309" lon="0.28998">
        <ele>925.41</ele>
        <time>2021-08-02T11:33:17Z</time>
      </trkpt>
      <trkpt lat="42.30851" lon="0.28986">
        <ele>924.89</ele>
        <time>2021-08-02T11:33:21Z</time>
      </trkpt>
      <trkpt lat="42.30818" lon="0.28969">
        <ele>924.4</ele>
        <time>2021-08-02T11:33:24Z</time>
      </trkpt>
      <trkpt lat="42.30762" lon="0.28937">
        <ele>921.99</ele>
        <time>2021-08-02T11:33:30Z</time>
      </trkpt>
      <trkpt lat="42.30743" lon="0.28918">
        <ele>920.42</ele>
        <time>2021-08-02T11:33:33Z</time>
      </trkpt>
      <trkpt lat="42.30749" lon="0.28894">
        <ele>916.54</ele>
        <time>2021-08-02T11:33:39Z</time>
      </trkpt>
      <trkpt lat="42.30761" lon="0.28899">
        <ele>915.99</ele>
        <time>2021-08-02T11:33:40Z</time>
      </trkpt>
      <trkpt lat="42.3083" lon="0.28893">
        <ele>913.9</ele>
        <time>2021-08-02T11:33:46Z</time>
      </trkpt>
      <trkpt lat="42.30887" lon="0.28876">
        <ele>910.5</ele>
        <time>2021-08-02T11:33:51Z</time>
      </trkpt>
      <trkpt lat="42.30907" lon="0.28866">
        <ele>909.05</ele>
        <time>2021-08-02T11:33:53Z</time>
      </trkpt>
      <trkpt lat="42.30937" lon="0.2886">
        <ele>906.39</ele>
        <time>2021-08-02T11:33:56Z</time>
      </trkpt>
      <trkpt lat="42.30968" lon="0.28849">
        <ele>903.55</ele>
        <time>2021-08-02T11:33:59Z</time>
      </trkpt>
      <trkpt lat="42.3101" lon="0.2884">
        <ele>899.48</ele>
        <time>2021-08-02T11:34:03Z</time>
      </trkpt>
      <trkpt lat="42.3102" lon="0.28836">
        <ele>898.44</ele>
        <time>2021-08-02T11:34:04Z</time>
      </trkpt>
      <trkpt lat="42.31059" lon="0.28835">
        <ele>892.42</ele>
        <time>2021-08-02T11:34:09Z</time>
      </trkpt>
      <trkpt lat="42.31067" lon="0.28851">
        <ele>890.1</ele>
        <time>2021-08-02T11:34:11Z</time>
      </trkpt>
      <trkpt lat="42.31096" lon="0.28884">
        <ele>886.56</ele>
        <time>2021-08-02T11:34:16Z</time>
      </trkpt>
      <trkpt lat="42.31108" lon="0.28889">
        <ele>886.04</ele>
        <time>2021-08-02T11:34:18Z</time>
      </trkpt>
      <trkpt lat="42.31113" lon="0.28872">
        <ele>884.62</ele>
        <time>2021-08-02T11:34:24Z</time>
      </trkpt>
      <trkpt lat="42.31105" lon="0.28872">
        <ele>884.4</ele>
        <time>2021-08-02T11:34:25Z</time>
      </trkpt>
      <trkpt lat="42.31067" lon="0.28829">
        <ele>881.67</ele>
        <time>2021-08-02T11:34:31Z</time>
      </trkpt>
      <trkpt lat="42.31052" lon="0.28761">
        <ele>878.14</ele>
        <time>2021-08-02T11:34:36Z</time>
      </trkpt>
      <trkpt lat="42.31025" lon="0.28729">
        <ele>874.25</ele>
        <time>2021-08-02T11:34:40Z</time>
      </trkpt>
      <trkpt lat="42.31008" lon="0.28734">
        <ele>871.1</ele>
        <time>2021-08-02T11:34:42Z</time>
      </trkpt>
      <trkpt lat="42.30982" lon="0.28752">
        <ele>867.95</ele>
        <time>2021-08-02T11:34:45Z</time>
      </trkpt>
      <trkpt lat="42.30954" lon="0.28747">
        <ele>864.63</ele>
        <time>2021-08-02T11:34:48Z</time>
      </trkpt>
      <trkpt lat="42.30922" lon="0.28721">
        <ele>860.88</ele>
        <time>2021-08-02T11:34:52Z</time>
      </trkpt>
      <trkpt lat="42.30886" lon="0.28708">
        <ele>856.97</ele>
        <time>2021-08-02T11:34:56Z</time>
      </trkpt>
      <trkpt lat="42.30857" lon="0.2872">
        <ele>853.89</ele>
        <time>2021-08-02T11:34:59Z</time>
      </trkpt>
      <trkpt lat="42.30827" lon="0.28714">
        <ele>850.66</ele>
        <time>2021-08-02T11:35:02Z</time>
      </trkpt>
      <trkpt lat="42.30804" lon="0.28693">
        <ele>847.64</ele>
        <time>2021-08-02T11:35:05Z</time>
      </trkpt>
      <trkpt lat="42.30801" lon="0.28673">
        <ele>845.27</ele>
        <time>2021-08-02T11:35:07Z</time>
      </trkpt>
      <trkpt lat="42.30791" lon="0.28634">
        <ele>839.73</ele>
        <time>2021-08-02T11:35:12Z</time>
      </trkpt>
      <trkpt lat="42.30781" lon="0.28648">
        <ele>837.58</ele>
        <time>2021-08-02T11:35:14Z</time>
      </trkpt>
      <trkpt lat="42.30757" lon="0.28658">
        <ele>832.27</ele>
        <time>2021-08-02T11:35:19Z</time>
      </trkpt>
      <trkpt lat="42.30763" lon="0.2864">
        <ele>830.42</ele>
        <time>2021-08-02T11:35:21Z</time>
      </trkpt>
      <trkpt lat="42.30777" lon="0.28574">
        <ele>826.34</ele>
        <time>2021-08-02T11:35:26Z</time>
      </trkpt>
      <trkpt lat="42.30797" lon="0.28541">
        <ele>822.35</ele>
        <time>2021-08-02T11:35:30Z</time>
      </trkpt>
      <trkpt lat="42.30828" lon="0.28539">
        <ele>819.17</ele>
        <time>2021-08-02T11:35:33Z</time>
      </trkpt>
      <trkpt lat="42.30853" lon="0.28529">
        <ele>815.33</ele>
        <time>2021-08-02T11:35:37Z</time>
      </trkpt>
      <trkpt lat="42.30842" lon="0.2851">
        <ele>812.13</ele>
        <time>2021-08-02T11:35:40Z</time>
      </trkpt>
      <trkpt lat="42.30804" lon="0.28483">
        <ele>808.59</ele>
        <time>2021-08-02T11:35:44Z</time>
      </trkpt>
      <trkpt lat="42.30789" lon="0.28461">
        <ele>805.42</ele>
        <time>2021-08-02T11:35:48Z</time>
      </trkpt>
      <trkpt lat="42.30807" lon="0.28447">
        <ele>802.8</ele>
        <time>2021-08-02T11:35:51Z</time>
      </trkpt>
      <trkpt lat="42.30842" lon="0.28414">
        <ele>799.99</ele>
        <time>2021-08-02T11:35:55Z</time>
      </trkpt>
      <trkpt lat="42.30891" lon="0.28364">
        <ele>796.78</ele>
        <time>2021-08-02T11:36:00Z</time>
      </trkpt>
      <trkpt lat="42.30903" lon="0.28283">
        <ele>792.91</ele>
        <time>2021-08-02T11:36:05Z</time>
      </trkpt>
      <trkpt lat="42.3089" lon="0.28173">
        <ele>789.17</ele>
        <time>2021-08-02T11:36:10Z</time>
      </trkpt>
      <trkpt lat="42.30887" lon="0.28154">
        <ele>788.21</ele>
        <time>2021-08-02T11:36:11Z</time>
      </trkpt>
      <trkpt lat="42.30861" lon="0.28094">
        <ele>783.94</ele>
        <time>2021-08-02T11:36:15Z</time>
      </trkpt>
      <trkpt lat="42.30851" lon="0.28083">
        <ele>782.83</ele>
        <time>2021-08-02T11:36:16Z</time>
      </trkpt>
      <trkpt lat="42.30809" lon="0.28041">
        <ele>779.56</ele>
        <time>2021-08-02T11:36:20Z</time>
      </trkpt>
      <trkpt lat="42.30734" lon="0.28022">
        <ele>775.47</ele>
        <time>2021-08-02T11:36:26Z</time>
      </trkpt>
      <trkpt lat="42.30685" lon="0.2799">
        <ele>773.14</ele>
        <time>2021-08-02T11:36:31Z</time>
      </trkpt>
      <trkpt lat="42.30644" lon="0.27943">
        <ele>772.5</ele>
        <time>2021-08-02T11:36:35Z</time>
      </trkpt>
      <trkpt lat="42.30583" lon="0.27898">
        <ele>771.34</ele>
        <time>2021-08-02T11:36:41Z</time>
      </trkpt>
      <trkpt lat="42.30564" lon="0.27876">
        <ele>770.92</ele>
        <time>2021-08-02T11:36:43Z</time>
      </trkpt>
      <trkpt lat="42.30519" lon="0.27836">
        <ele>770.71</ele>
        <time>2021-08-02T11:36:47Z</time>
      </trkpt>
      <trkpt lat="42.30486" lon="0.27815">
        <ele>771.17</ele>
        <time>2021-08-02T11:36:50Z</time>
      </trkpt>
      <trkpt lat="42.30396" lon="0.27714">
        <ele>771.98</ele>
        <time>2021-08-02T11:37:00Z</time>
      </trkpt>
      <trkpt lat="42.30387" lon="0.27706">
        <ele>772.05</ele>
        <time>2021-08-02T11:37:01Z</time>
      </trkpt>
      <trkpt lat="42.303" lon="0.27589">
        <ele>774.73</ele>
        <time>2021-08-02T11:37:13Z</time>
      </trkpt>
      <trkpt lat="42.30295" lon="0.27582">
        <ele>775.02</ele>
        <time>2021-08-02T11:37:14Z</time>
      </trkpt>
      <trkpt lat="42.30273" lon="0.2757">
        <ele>776.12</ele>
        <time>2021-08-02T11:37:18Z</time>
      </trkpt>
      <trkpt lat="42.30255" lon="0.2757">
        <ele>776.98</ele>
        <time>2021-08-02T11:37:23Z</time>
      </trkpt>
      <trkpt lat="42.30206" lon="0.27551">
        <ele>778.16</ele>
        <time>2021-08-02T11:37:31Z</time>
      </trkpt>
      <trkpt lat="42.3019" lon="0.275">
        <ele>776.43</ele>
        <time>2021-08-02T11:37:38Z</time>
      </trkpt>
      <trkpt lat="42.30191" lon="0.27488">
        <ele>776.04</ele>
        <time>2021-08-02T11:37:39Z</time>
      </trkpt>
      <trkpt lat="42.30203" lon="0.27414">
        <ele>773.11</ele>
        <time>2021-08-02T11:37:45Z</time>
      </trkpt>
      <trkpt lat="42.30184" lon="0.2736">
        <ele>769.92</ele>
        <time>2021-08-02T11:37:50Z</time>
      </trkpt>
      <trkpt lat="42.30149" lon="0.27305">
        <ele>765.5</ele>
        <time>2021-08-02T11:37:56Z</time>
      </trkpt>
      <trkpt lat="42.30109" lon="0.27266">
        <ele>761</ele>
        <time>2021-08-02T11:38:01Z</time>
      </trkpt>
      <trkpt lat="42.30077" lon="0.2722">
        <ele>757.35</ele>
        <time>2021-08-02T11:38:05Z</time>
      </trkpt>
      <trkpt lat="42.3004" lon="0.27187">
        <ele>752.27</ele>
        <time>2021-08-02T11:38:09Z</time>
      </trkpt>
      <trkpt lat="42.30023" lon="0.27174">
        <ele>749.45</ele>
        <time>2021-08-02T11:38:11Z</time>
      </trkpt>
      <trkpt lat="42.3001" lon="0.27152">
        <ele>744.8</ele>
        <time>2021-08-02T11:38:14Z</time>
      </trkpt>
      <trkpt lat="42.30009" lon="0.27141">
        <ele>743.33</ele>
        <time>2021-08-02T11:38:15Z</time>
      </trkpt>
      <trkpt lat="42.30005" lon="0.27089">
        <ele>738.22</ele>
        <time>2021-08-02T11:38:19Z</time>
      </trkpt>
      <trkpt lat="42.30001" lon="0.27035">
        <ele>734.35</ele>
        <time>2021-08-02T11:38:23Z</time>
      </trkpt>
      <trkpt lat="42.3" lon="0.26981">
        <ele>731.31</ele>
        <time>2021-08-02T11:38:27Z</time>
      </trkpt>
      <trkpt lat="42.3001" lon="0.26882">
        <ele>727.92</ele>
        <time>2021-08-02T11:38:33Z</time>
      </trkpt>
      <trkpt lat="42.3002" lon="0.26778">
        <ele>724.36</ele>
        <time>2021-08-02T11:38:39Z</time>
      </trkpt>
      <trkpt lat="42.3002" lon="0.26745">
        <ele>723.24</ele>
        <time>2021-08-02T11:38:41Z</time>
      </trkpt>
      <trkpt lat="42.30056" lon="0.26629">
        <ele>721.01</ele>
        <time>2021-08-02T11:38:49Z</time>
      </trkpt>
      <trkpt lat="42.30097" lon="0.26597">
        <ele>722.09</ele>
        <time>2021-08-02T11:38:53Z</time>
      </trkpt>
      <trkpt lat="42.30154" lon="0.26504">
        <ele>724.1</ele>
        <time>2021-08-02T11:39:00Z</time>
      </trkpt>
      <trkpt lat="42.30174" lon="0.26445">
        <ele>724.47</ele>
        <time>2021-08-02T11:39:05Z</time>
      </trkpt>
      <trkpt lat="42.30203" lon="0.2642">
        <ele>724.88</ele>
        <time>2021-08-02T11:39:08Z</time>
      </trkpt>
      <trkpt lat="42.30273" lon="0.26346">
        <ele>728.48</ele>
        <time>2021-08-02T11:39:15Z</time>
      </trkpt>
      <trkpt lat="42.30324" lon="0.26263">
        <ele>730.02</ele>
        <time>2021-08-02T11:39:21Z</time>
      </trkpt>
      <trkpt lat="42.30334" lon="0.26232">
        <ele>730.21</ele>
        <time>2021-08-02T11:39:23Z</time>
      </trkpt>
      <trkpt lat="42.30389" lon="0.26173">
        <ele>730.64</ele>
        <time>2021-08-02T11:39:29Z</time>
      </trkpt>
      <trkpt lat="42.30515" lon="0.26115">
        <ele>734.21</ele>
        <time>2021-08-02T11:39:38Z</time>
      </trkpt>
      <trkpt lat="42.30568" lon="0.26084">
        <ele>737.53</ele>
        <time>2021-08-02T11:39:42Z</time>
      </trkpt>
      <trkpt lat="42.30602" lon="0.26047">
        <ele>738.77</ele>
        <time>2021-08-02T11:39:45Z</time>
      </trkpt>
      <trkpt lat="42.30642" lon="0.2599">
        <ele>739.57</ele>
        <time>2021-08-02T11:39:49Z</time>
      </trkpt>
      <trkpt lat="42.3074" lon="0.25908">
        <ele>742.65</ele>
        <time>2021-08-02T11:39:58Z</time>
      </trkpt>
      <trkpt lat="42.30802" lon="0.25928">
        <ele>744.08</ele>
        <time>2021-08-02T11:40:04Z</time>
      </trkpt>
      <trkpt lat="42.30819" lon="0.25985">
        <ele>743.34</ele>
        <time>2021-08-02T11:40:09Z</time>
      </trkpt>
      <trkpt lat="42.30846" lon="0.25969">
        <ele>741.88</ele>
        <time>2021-08-02T11:40:13Z</time>
      </trkpt>
      <trkpt lat="42.30863" lon="0.25871">
        <ele>741.98</ele>
        <time>2021-08-02T11:40:19Z</time>
      </trkpt>
      <trkpt lat="42.30873" lon="0.25838">
        <ele>742.74</ele>
        <time>2021-08-02T11:40:21Z</time>
      </trkpt>
      <trkpt lat="42.30944" lon="0.25812">
        <ele>743.7</ele>
        <time>2021-08-02T11:40:28Z</time>
      </trkpt>
      <trkpt lat="42.30979" lon="0.25801">
        <ele>743.75</ele>
        <time>2021-08-02T11:40:31Z</time>
      </trkpt>
      <trkpt lat="42.31043" lon="0.25812">
        <ele>742.2</ele>
        <time>2021-08-02T11:40:37Z</time>
      </trkpt>
      <trkpt lat="42.31074" lon="0.25793">
        <ele>739.93</ele>
        <time>2021-08-02T11:40:41Z</time>
      </trkpt>
      <trkpt lat="42.31054" lon="0.25747">
        <ele>738.31</ele>
        <time>2021-08-02T11:40:45Z</time>
      </trkpt>
      <trkpt lat="42.31037" lon="0.25726">
        <ele>737.98</ele>
        <time>2021-08-02T11:40:47Z</time>
      </trkpt>
      <trkpt lat="42.31021" lon="0.25691">
        <ele>738.02</ele>
        <time>2021-08-02T11:40:50Z</time>
      </trkpt>
      <trkpt lat="42.30983" lon="0.25682">
        <ele>738.62</ele>
        <time>2021-08-02T11:40:55Z</time>
      </trkpt>
      <trkpt lat="42.30949" lon="0.25629">
        <ele>739.78</ele>
        <time>2021-08-02T11:41:00Z</time>
      </trkpt>
      <trkpt lat="42.30941" lon="0.25595">
        <ele>740.69</ele>
        <time>2021-08-02T11:41:02Z</time>
      </trkpt>
      <trkpt lat="42.30908" lon="0.25548">
        <ele>741.27</ele>
        <time>2021-08-02T11:41:06Z</time>
      </trkpt>
      <trkpt lat="42.30886" lon="0.25531">
        <ele>741.03</ele>
        <time>2021-08-02T11:41:08Z</time>
      </trkpt>
      <trkpt lat="42.30877" lon="0.25486">
        <ele>738.72</ele>
        <time>2021-08-02T11:41:12Z</time>
      </trkpt>
      <trkpt lat="42.3087" lon="0.25459">
        <ele>735.11</ele>
        <time>2021-08-02T11:41:16Z</time>
      </trkpt>
      <trkpt lat="42.30862" lon="0.25459">
        <ele>734.43</ele>
        <time>2021-08-02T11:41:17Z</time>
      </trkpt>
      <trkpt lat="42.30842" lon="0.25461">
        <ele>732.83</ele>
        <time>2021-08-02T11:41:19Z</time>
      </trkpt>
      <trkpt lat="42.3082" lon="0.25455">
        <ele>732.17</ele>
        <time>2021-08-02T11:41:21Z</time>
      </trkpt>
      <trkpt lat="42.30796" lon="0.25388">
        <ele>731.17</ele>
        <time>2021-08-02T11:41:26Z</time>
      </trkpt>
      <trkpt lat="42.30777" lon="0.25329">
        <ele>730.74</ele>
        <time>2021-08-02T11:41:31Z</time>
      </trkpt>
      <trkpt lat="42.30689" lon="0.25206">
        <ele>733.5</ele>
        <time>2021-08-02T11:41:39Z</time>
      </trkpt>
      <trkpt lat="42.30666" lon="0.25173">
        <ele>735.06</ele>
        <time>2021-08-02T11:41:41Z</time>
      </trkpt>
      <trkpt lat="42.30622" lon="0.25115">
        <ele>737.4</ele>
        <time>2021-08-02T11:41:47Z</time>
      </trkpt>
      <trkpt lat="42.30633" lon="0.25095">
        <ele>737.08</ele>
        <time>2021-08-02T11:41:49Z</time>
      </trkpt>
      <trkpt lat="42.30688" lon="0.2503">
        <ele>735.96</ele>
        <time>2021-08-02T11:41:54Z</time>
      </trkpt>
      <trkpt lat="42.30728" lon="0.25021">
        <ele>732.97</ele>
        <time>2021-08-02T11:41:58Z</time>
      </trkpt>
      <trkpt lat="42.30748" lon="0.24986">
        <ele>728.55</ele>
        <time>2021-08-02T11:42:03Z</time>
      </trkpt>
      <trkpt lat="42.30702" lon="0.24953">
        <ele>726.95</ele>
        <time>2021-08-02T11:42:07Z</time>
      </trkpt>
      <trkpt lat="42.30687" lon="0.24949">
        <ele>726.86</ele>
        <time>2021-08-02T11:42:08Z</time>
      </trkpt>
      <trkpt lat="42.30629" lon="0.24934">
        <ele>726.92</ele>
        <time>2021-08-02T11:42:12Z</time>
      </trkpt>
      <trkpt lat="42.30583" lon="0.24853">
        <ele>728.55</ele>
        <time>2021-08-02T11:42:18Z</time>
      </trkpt>
      <trkpt lat="42.30583" lon="0.24834">
        <ele>729.18</ele>
        <time>2021-08-02T11:42:19Z</time>
      </trkpt>
      <trkpt lat="42.30591" lon="0.24738">
        <ele>733.56</ele>
        <time>2021-08-02T11:42:24Z</time>
      </trkpt>
      <trkpt lat="42.30632" lon="0.24665">
        <ele>738.34</ele>
        <time>2021-08-02T11:42:29Z</time>
      </trkpt>
      <trkpt lat="42.30672" lon="0.24659">
        <ele>741.21</ele>
        <time>2021-08-02T11:42:32Z</time>
      </trkpt>
      <trkpt lat="42.30724" lon="0.24667">
        <ele>745.69</ele>
        <time>2021-08-02T11:42:36Z</time>
      </trkpt>
      <trkpt lat="42.30763" lon="0.24672">
        <ele>749.58</ele>
        <time>2021-08-02T11:42:39Z</time>
      </trkpt>
      <trkpt lat="42.30788" lon="0.24675">
        <ele>751.91</ele>
        <time>2021-08-02T11:42:41Z</time>
      </trkpt>
      <trkpt lat="42.30862" lon="0.24669">
        <ele>756.4</ele>
        <time>2021-08-02T11:42:46Z</time>
      </trkpt>
      <trkpt lat="42.30935" lon="0.24642">
        <ele>759.64</ele>
        <time>2021-08-02T11:42:51Z</time>
      </trkpt>
      <trkpt lat="42.30959" lon="0.24632">
        <ele>760.46</ele>
        <time>2021-08-02T11:42:53Z</time>
      </trkpt>
      <trkpt lat="42.30996" lon="0.24564">
        <ele>761.57</ele>
        <time>2021-08-02T11:42:59Z</time>
      </trkpt>
      <trkpt lat="42.3098" lon="0.24533">
        <ele>761.77</ele>
        <time>2021-08-02T11:43:01Z</time>
      </trkpt>
      <trkpt lat="42.30923" lon="0.24443">
        <ele>764.63</ele>
        <time>2021-08-02T11:43:07Z</time>
      </trkpt>
      <trkpt lat="42.30927" lon="0.24383">
        <ele>767.39</ele>
        <time>2021-08-02T11:43:12Z</time>
      </trkpt>
      <trkpt lat="42.30989" lon="0.24316">
        <ele>771.73</ele>
        <time>2021-08-02T11:43:18Z</time>
      </trkpt>
      <trkpt lat="42.31048" lon="0.24278">
        <ele>774.82</ele>
        <time>2021-08-02T11:43:22Z</time>
      </trkpt>
      <trkpt lat="42.31118" lon="0.24274">
        <ele>777</ele>
        <time>2021-08-02T11:43:27Z</time>
      </trkpt>
      <trkpt lat="42.31187" lon="0.24283">
        <ele>778.03</ele>
        <time>2021-08-02T11:43:32Z</time>
      </trkpt>
      <trkpt lat="42.31284" lon="0.24306">
        <ele>778.13</ele>
        <time>2021-08-02T11:43:40Z</time>
      </trkpt>
      <trkpt lat="42.31321" lon="0.24289">
        <ele>776.19</ele>
        <time>2021-08-02T11:43:46Z</time>
      </trkpt>
      <trkpt lat="42.31318" lon="0.24267">
        <ele>774.44</ele>
        <time>2021-08-02T11:43:49Z</time>
      </trkpt>
      <trkpt lat="42.31299" lon="0.24149">
        <ele>773.31</ele>
        <time>2021-08-02T11:43:57Z</time>
      </trkpt>
      <trkpt lat="42.31251" lon="0.24059">
        <ele>774.99</ele>
        <time>2021-08-02T11:44:03Z</time>
      </trkpt>
      <trkpt lat="42.31236" lon="0.23986">
        <ele>776.52</ele>
        <time>2021-08-02T11:44:07Z</time>
      </trkpt>
      <trkpt lat="42.31187" lon="0.2389">
        <ele>777.45</ele>
        <time>2021-08-02T11:44:13Z</time>
      </trkpt>
      <trkpt lat="42.3117" lon="0.23885">
        <ele>777.47</ele>
        <time>2021-08-02T11:44:14Z</time>
      </trkpt>
      <trkpt lat="42.31103" lon="0.23867">
        <ele>777.63</ele>
        <time>2021-08-02T11:44:18Z</time>
      </trkpt>
      <trkpt lat="42.31052" lon="0.2382">
        <ele>777.52</ele>
        <time>2021-08-02T11:44:22Z</time>
      </trkpt>
      <trkpt lat="42.3103" lon="0.23792">
        <ele>777.14</ele>
        <time>2021-08-02T11:44:24Z</time>
      </trkpt>
      <trkpt lat="42.30975" lon="0.23762">
        <ele>775.82</ele>
        <time>2021-08-02T11:44:28Z</time>
      </trkpt>
      <trkpt lat="42.30846" lon="0.23727">
        <ele>773.88</ele>
        <time>2021-08-02T11:44:35Z</time>
      </trkpt>
      <trkpt lat="42.30748" lon="0.23749">
        <ele>769.07</ele>
        <time>2021-08-02T11:44:40Z</time>
      </trkpt>
      <trkpt lat="42.30731" lon="0.23763">
        <ele>767.73</ele>
        <time>2021-08-02T11:44:41Z</time>
      </trkpt>
      <trkpt lat="42.30681" lon="0.23811">
        <ele>763.03</ele>
        <time>2021-08-02T11:44:44Z</time>
      </trkpt>
      <trkpt lat="42.30662" lon="0.23825">
        <ele>761.3</ele>
        <time>2021-08-02T11:44:45Z</time>
      </trkpt>
      <trkpt lat="42.30601" lon="0.23854">
        <ele>756.14</ele>
        <time>2021-08-02T11:44:48Z</time>
      </trkpt>
      <trkpt lat="42.30557" lon="0.23856">
        <ele>753.22</ele>
        <time>2021-08-02T11:44:50Z</time>
      </trkpt>
      <trkpt lat="42.3049" lon="0.23845">
        <ele>748.35</ele>
        <time>2021-08-02T11:44:53Z</time>
      </trkpt>
      <trkpt lat="42.30446" lon="0.2384">
        <ele>744.59</ele>
        <time>2021-08-02T11:44:55Z</time>
      </trkpt>
      <trkpt lat="42.30402" lon="0.23836">
        <ele>740.36</ele>
        <time>2021-08-02T11:44:57Z</time>
      </trkpt>
      <trkpt lat="42.30347" lon="0.23813">
        <ele>733.99</ele>
        <time>2021-08-02T11:45:00Z</time>
      </trkpt>
      <trkpt lat="42.30332" lon="0.238">
        <ele>731.94</ele>
        <time>2021-08-02T11:45:01Z</time>
      </trkpt>
      <trkpt lat="42.30303" lon="0.23774">
        <ele>727.87</ele>
        <time>2021-08-02T11:45:03Z</time>
      </trkpt>
      <trkpt lat="42.30252" lon="0.23758">
        <ele>722.69</ele>
        <time>2021-08-02T11:45:06Z</time>
      </trkpt>
      <trkpt lat="42.30218" lon="0.23768">
        <ele>719.58</ele>
        <time>2021-08-02T11:45:08Z</time>
      </trkpt>
      <trkpt lat="42.30202" lon="0.23778">
        <ele>718.07</ele>
        <time>2021-08-02T11:45:09Z</time>
      </trkpt>
      <trkpt lat="42.30147" lon="0.23816">
        <ele>713.18</ele>
        <time>2021-08-02T11:45:13Z</time>
      </trkpt>
      <trkpt lat="42.30082" lon="0.23821">
        <ele>708.81</ele>
        <time>2021-08-02T11:45:17Z</time>
      </trkpt>
      <trkpt lat="42.30009" lon="0.23839">
        <ele>704.96</ele>
        <time>2021-08-02T11:45:21Z</time>
      </trkpt>
      <trkpt lat="42.29958" lon="0.23871">
        <ele>703.02</ele>
        <time>2021-08-02T11:45:24Z</time>
      </trkpt>
      <trkpt lat="42.29845" lon="0.23875">
        <ele>705.19</ele>
        <time>2021-08-02T11:45:30Z</time>
      </trkpt>
      <trkpt lat="42.29752" lon="0.23833">
        <ele>709.46</ele>
        <time>2021-08-02T11:45:35Z</time>
      </trkpt>
      <trkpt lat="42.29719" lon="0.23819">
        <ele>711.3</ele>
        <time>2021-08-02T11:45:37Z</time>
      </trkpt>
      <trkpt lat="42.29658" lon="0.23827">
        <ele>713.91</ele>
        <time>2021-08-02T11:45:41Z</time>
      </trkpt>
      <trkpt lat="42.29566" lon="0.23847">
        <ele>715.34</ele>
        <time>2021-08-02T11:45:47Z</time>
      </trkpt>
      <trkpt lat="42.29522" lon="0.23804">
        <ele>715.47</ele>
        <time>2021-08-02T11:45:50Z</time>
      </trkpt>
      <trkpt lat="42.29478" lon="0.23751">
        <ele>715.01</ele>
        <time>2021-08-02T11:45:53Z</time>
      </trkpt>
      <trkpt lat="42.29383" lon="0.23703">
        <ele>711.97</ele>
        <time>2021-08-02T11:45:58Z</time>
      </trkpt>
      <trkpt lat="42.29318" lon="0.23689">
        <ele>707.59</ele>
        <time>2021-08-02T11:46:01Z</time>
      </trkpt>
      <trkpt lat="42.29277" lon="0.23677">
        <ele>703.94</ele>
        <time>2021-08-02T11:46:03Z</time>
      </trkpt>
      <trkpt lat="42.2924" lon="0.23665">
        <ele>700.68</ele>
        <time>2021-08-02T11:46:05Z</time>
      </trkpt>
      <trkpt lat="42.2919" lon="0.2363">
        <ele>696.18</ele>
        <time>2021-08-02T11:46:08Z</time>
      </trkpt>
      <trkpt lat="42.29152" lon="0.23566">
        <ele>691.87</ele>
        <time>2021-08-02T11:46:11Z</time>
      </trkpt>
      <trkpt lat="42.29142" lon="0.23543">
        <ele>690.29</ele>
        <time>2021-08-02T11:46:12Z</time>
      </trkpt>
      <trkpt lat="42.29115" lon="0.23471">
        <ele>683.08</ele>
        <time>2021-08-02T11:46:15Z</time>
      </trkpt>
      <trkpt lat="42.29108" lon="0.23446">
        <ele>681.33</ele>
        <time>2021-08-02T11:46:16Z</time>
      </trkpt>
      <trkpt lat="42.29095" lon="0.23365">
        <ele>675.64</ele>
        <time>2021-08-02T11:46:19Z</time>
      </trkpt>
      <trkpt lat="42.29093" lon="0.23311">
        <ele>671.32</ele>
        <time>2021-08-02T11:46:21Z</time>
      </trkpt>
      <trkpt lat="42.29092" lon="0.23257">
        <ele>666.68</ele>
        <time>2021-08-02T11:46:23Z</time>
      </trkpt>
      <trkpt lat="42.2909" lon="0.23201">
        <ele>662.27</ele>
        <time>2021-08-02T11:46:25Z</time>
      </trkpt>
      <trkpt lat="42.29091" lon="0.23144">
        <ele>658.14</ele>
        <time>2021-08-02T11:46:27Z</time>
      </trkpt>
      <trkpt lat="42.2909" lon="0.23091">
        <ele>654.4</ele>
        <time>2021-08-02T11:46:29Z</time>
      </trkpt>
      <trkpt lat="42.29089" lon="0.23042">
        <ele>650.81</ele>
        <time>2021-08-02T11:46:31Z</time>
      </trkpt>
      <trkpt lat="42.2909" lon="0.23002">
        <ele>647.02</ele>
        <time>2021-08-02T11:46:33Z</time>
      </trkpt>
      <trkpt lat="42.29088" lon="0.22986">
        <ele>644.82</ele>
        <time>2021-08-02T11:46:34Z</time>
      </trkpt>
      <trkpt lat="42.2907" lon="0.2294">
        <ele>637.54</ele>
        <time>2021-08-02T11:46:37Z</time>
      </trkpt>
      <trkpt lat="42.29061" lon="0.22924">
        <ele>635.22</ele>
        <time>2021-08-02T11:46:38Z</time>
      </trkpt>
      <trkpt lat="42.29046" lon="0.22866">
        <ele>628.74</ele>
        <time>2021-08-02T11:46:41Z</time>
      </trkpt>
      <trkpt lat="42.29049" lon="0.22821">
        <ele>624.99</ele>
        <time>2021-08-02T11:46:43Z</time>
      </trkpt>
      <trkpt lat="42.29055" lon="0.22751">
        <ele>620.24</ele>
        <time>2021-08-02T11:46:46Z</time>
      </trkpt>
      <trkpt lat="42.29061" lon="0.22687">
        <ele>615.94</ele>
        <time>2021-08-02T11:46:49Z</time>
      </trkpt>
      <trkpt lat="42.29077" lon="0.22638">
        <ele>611.11</ele>
        <time>2021-08-02T11:46:52Z</time>
      </trkpt>
      <trkpt lat="42.291" lon="0.2262">
        <ele>607.37</ele>
        <time>2021-08-02T11:46:54Z</time>
      </trkpt>
      <trkpt lat="42.2913" lon="0.22618">
        <ele>603.73</ele>
        <time>2021-08-02T11:46:56Z</time>
      </trkpt>
      <trkpt lat="42.29161" lon="0.22619">
        <ele>600.13</ele>
        <time>2021-08-02T11:46:58Z</time>
      </trkpt>
      <trkpt lat="42.29189" lon="0.22609">
        <ele>596.65</ele>
        <time>2021-08-02T11:47:00Z</time>
      </trkpt>
      <trkpt lat="42.29209" lon="0.22586">
        <ele>593.28</ele>
        <time>2021-08-02T11:47:02Z</time>
      </trkpt>
      <trkpt lat="42.2922" lon="0.22552">
        <ele>590.08</ele>
        <time>2021-08-02T11:47:04Z</time>
      </trkpt>
      <trkpt lat="42.29223" lon="0.22533">
        <ele>588.52</ele>
        <time>2021-08-02T11:47:05Z</time>
      </trkpt>
      <trkpt lat="42.29232" lon="0.22475">
        <ele>583.75</ele>
        <time>2021-08-02T11:47:08Z</time>
      </trkpt>
      <trkpt lat="42.29237" lon="0.22456">
        <ele>582.11</ele>
        <time>2021-08-02T11:47:09Z</time>
      </trkpt>
      <trkpt lat="42.29255" lon="0.22408">
        <ele>577.2</ele>
        <time>2021-08-02T11:47:12Z</time>
      </trkpt>
      <trkpt lat="42.29275" lon="0.2238">
        <ele>574</ele>
        <time>2021-08-02T11:47:14Z</time>
      </trkpt>
      <trkpt lat="42.29308" lon="0.22342">
        <ele>569.37</ele>
        <time>2021-08-02T11:47:17Z</time>
      </trkpt>
      <trkpt lat="42.29329" lon="0.22297">
        <ele>564.74</ele>
        <time>2021-08-02T11:47:20Z</time>
      </trkpt>
      <trkpt lat="42.29333" lon="0.22281">
        <ele>563.34</ele>
        <time>2021-08-02T11:47:21Z</time>
      </trkpt>
      <trkpt lat="42.29348" lon="0.22228">
        <ele>557.27</ele>
        <time>2021-08-02T11:47:25Z</time>
      </trkpt>
      <trkpt lat="42.29365" lon="0.22219">
        <ele>554.15</ele>
        <time>2021-08-02T11:47:27Z</time>
      </trkpt>
      <trkpt lat="42.29392" lon="0.22238">
        <ele>551.15</ele>
        <time>2021-08-02T11:47:29Z</time>
      </trkpt>
      <trkpt lat="42.29456" lon="0.22283">
        <ele>546.78</ele>
        <time>2021-08-02T11:47:33Z</time>
      </trkpt>
      <trkpt lat="42.29529" lon="0.22319">
        <ele>543.13</ele>
        <time>2021-08-02T11:47:37Z</time>
      </trkpt>
      <trkpt lat="42.2956" lon="0.22332">
        <ele>540.93</ele>
        <time>2021-08-02T11:47:39Z</time>
      </trkpt>
      <trkpt lat="42.29594" lon="0.22322">
        <ele>536.07</ele>
        <time>2021-08-02T11:47:42Z</time>
      </trkpt>
      <trkpt lat="42.2961" lon="0.22298">
        <ele>532.74</ele>
        <time>2021-08-02T11:47:44Z</time>
      </trkpt>
      <trkpt lat="42.29615" lon="0.22267">
        <ele>529.54</ele>
        <time>2021-08-02T11:47:46Z</time>
      </trkpt>
      <trkpt lat="42.29599" lon="0.22217">
        <ele>526.6</ele>
        <time>2021-08-02T11:47:48Z</time>
      </trkpt>
      <trkpt lat="42.29564" lon="0.22104">
        <ele>520.94</ele>
        <time>2021-08-02T11:47:53Z</time>
      </trkpt>
      <trkpt lat="42.29557" lon="0.22082">
        <ele>520.94</ele>
        <time>2021-08-02T11:47:54Z</time>
      </trkpt>
      <trkpt lat="42.29544" lon="0.22012">
        <ele>517.37</ele>
        <time>2021-08-02T11:47:57Z</time>
      </trkpt>
      <trkpt lat="42.29541" lon="0.21942">
        <ele>514.19</ele>
        <time>2021-08-02T11:48:00Z</time>
      </trkpt>
      <trkpt lat="42.29542" lon="0.21888">
        <ele>509.56</ele>
        <time>2021-08-02T11:48:03Z</time>
      </trkpt>
      <trkpt lat="42.29542" lon="0.21861">
        <ele>505.75</ele>
        <time>2021-08-02T11:48:05Z</time>
      </trkpt>
      <trkpt lat="42.29543" lon="0.2184">
        <ele>501.7</ele>
        <time>2021-08-02T11:48:07Z</time>
      </trkpt>
      <trkpt lat="42.29544" lon="0.21823">
        <ele>497.73</ele>
        <time>2021-08-02T11:48:09Z</time>
      </trkpt>
      <trkpt lat="42.29546" lon="0.21806">
        <ele>494.16</ele>
        <time>2021-08-02T11:48:11Z</time>
      </trkpt>
      <trkpt lat="42.29552" lon="0.21781">
        <ele>489.9</ele>
        <time>2021-08-02T11:48:14Z</time>
      </trkpt>
      <trkpt lat="42.29562" lon="0.21753">
        <ele>486.47</ele>
        <time>2021-08-02T11:48:17Z</time>
      </trkpt>
      <trkpt lat="42.29572" lon="0.21724">
        <ele>482.61</ele>
        <time>2021-08-02T11:48:21Z</time>
      </trkpt>
      <trkpt lat="42.29581" lon="0.21709">
        <ele>479.14</ele>
        <time>2021-08-02T11:48:25Z</time>
      </trkpt>
      <trkpt lat="42.29591" lon="0.21666">
        <ele>475.11</ele>
        <time>2021-08-02T11:48:32Z</time>
      </trkpt>
      <trkpt lat="42.29597" lon="0.21628">
        <ele>472.23</ele>
        <time>2021-08-02T11:48:42Z</time>
      </trkpt>
      <trkpt lat="42.29601" lon="0.21617">
        <ele>471.72</ele>
        <time>2021-08-02T11:48:55Z</time>
      </trkpt>
      <trkpt lat="42.29605" lon="0.216">
        <ele>471.52</ele>
        <time>2021-08-02T11:49:09Z</time>
      </trkpt>
      <trkpt lat="42.29602" lon="0.21612">
        <ele>471.32</ele>
        <time>2021-08-02T11:49:28Z</time>
      </trkpt>
      <trkpt lat="42.29599" lon="0.21621">
        <ele>471.47</ele>
        <time>2021-08-02T11:49:50Z</time>
      </trkpt>
      <trkpt lat="42.296" lon="0.2162">
        <ele>471.75</ele>
        <time>2021-08-02T11:50:13Z</time>
      </trkpt>
      <trkpt lat="42.29601" lon="0.21615">
        <ele>471.75</ele>
        <time>2021-08-02T11:50:37Z</time>
      </trkpt>
      <trkpt lat="42.29601" lon="0.21613">
        <ele>471.75</ele>
        <time>2021-08-02T11:50:42Z</time>
      </trkpt>
      <trkpt lat="42.29602" lon="0.21596">
        <ele>471.75</ele>
        <time>2021-08-02T11:50:46Z</time>
      </trkpt>
      <trkpt lat="42.29611" lon="0.21538">
        <ele>472.93</ele>
        <time>2021-08-02T11:50:52Z</time>
      </trkpt>
      <trkpt lat="42.29589" lon="0.21491">
        <ele>473.77</ele>
        <time>2021-08-02T11:50:57Z</time>
      </trkpt>
      <trkpt lat="42.29548" lon="0.21454">
        <ele>474.79</ele>
        <time>2021-08-02T11:51:01Z</time>
      </trkpt>
      <trkpt lat="42.29505" lon="0.21386">
        <ele>478.27</ele>
        <time>2021-08-02T11:51:06Z</time>
      </trkpt>
      <trkpt lat="42.29489" lon="0.21354">
        <ele>480.29</ele>
        <time>2021-08-02T11:51:08Z</time>
      </trkpt>
      <trkpt lat="42.29453" lon="0.21316">
        <ele>486.1</ele>
        <time>2021-08-02T11:51:12Z</time>
      </trkpt>
      <trkpt lat="42.29405" lon="0.21276">
        <ele>491.48</ele>
        <time>2021-08-02T11:51:17Z</time>
      </trkpt>
      <trkpt lat="42.29362" lon="0.21241">
        <ele>496.24</ele>
        <time>2021-08-02T11:51:21Z</time>
      </trkpt>
      <trkpt lat="42.29323" lon="0.21218">
        <ele>499.77</ele>
        <time>2021-08-02T11:51:24Z</time>
      </trkpt>
      <trkpt lat="42.29287" lon="0.21202">
        <ele>503.07</ele>
        <time>2021-08-02T11:51:27Z</time>
      </trkpt>
      <trkpt lat="42.29233" lon="0.21188">
        <ele>506.77</ele>
        <time>2021-08-02T11:51:31Z</time>
      </trkpt>
      <trkpt lat="42.29175" lon="0.21181">
        <ele>510.61</ele>
        <time>2021-08-02T11:51:35Z</time>
      </trkpt>
      <trkpt lat="42.29122" lon="0.21183">
        <ele>514.38</ele>
        <time>2021-08-02T11:51:39Z</time>
      </trkpt>
      <trkpt lat="42.29096" lon="0.21183">
        <ele>516.3</ele>
        <time>2021-08-02T11:51:41Z</time>
      </trkpt>
      <trkpt lat="42.29042" lon="0.21165">
        <ele>520.6</ele>
        <time>2021-08-02T11:51:45Z</time>
      </trkpt>
      <trkpt lat="42.29015" lon="0.2115">
        <ele>523.06</ele>
        <time>2021-08-02T11:51:47Z</time>
      </trkpt>
      <trkpt lat="42.28969" lon="0.21104">
        <ele>528.85</ele>
        <time>2021-08-02T11:51:51Z</time>
      </trkpt>
      <trkpt lat="42.28953" lon="0.21069">
        <ele>531.88</ele>
        <time>2021-08-02T11:51:53Z</time>
      </trkpt>
      <trkpt lat="42.28929" lon="0.21013">
        <ele>536.65</ele>
        <time>2021-08-02T11:51:56Z</time>
      </trkpt>
      <trkpt lat="42.2892" lon="0.20995">
        <ele>538.27</ele>
        <time>2021-08-02T11:51:57Z</time>
      </trkpt>
      <trkpt lat="42.28881" lon="0.20955">
        <ele>543.3</ele>
        <time>2021-08-02T11:52:00Z</time>
      </trkpt>
      <trkpt lat="42.28855" lon="0.20934">
        <ele>546.39</ele>
        <time>2021-08-02T11:52:02Z</time>
      </trkpt>
      <trkpt lat="42.28822" lon="0.209">
        <ele>549.94</ele>
        <time>2021-08-02T11:52:05Z</time>
      </trkpt>
      <trkpt lat="42.2878" lon="0.20851">
        <ele>553.02</ele>
        <time>2021-08-02T11:52:09Z</time>
      </trkpt>
      <trkpt lat="42.28724" lon="0.20771">
        <ele>556.09</ele>
        <time>2021-08-02T11:52:14Z</time>
      </trkpt>
      <trkpt lat="42.2866" lon="0.20663">
        <ele>559.54</ele>
        <time>2021-08-02T11:52:20Z</time>
      </trkpt>
      <trkpt lat="42.28591" lon="0.20507">
        <ele>561.82</ele>
        <time>2021-08-02T11:52:27Z</time>
      </trkpt>
      <trkpt lat="42.28508" lon="0.20285">
        <ele>562.28</ele>
        <time>2021-08-02T11:52:36Z</time>
      </trkpt>
      <trkpt lat="42.28488" lon="0.2012">
        <ele>560.6</ele>
        <time>2021-08-02T11:52:43Z</time>
      </trkpt>
      <trkpt lat="42.28485" lon="0.201">
        <ele>559.92</ele>
        <time>2021-08-02T11:52:44Z</time>
      </trkpt>
      <trkpt lat="42.28473" lon="0.20064">
        <ele>558.19</ele>
        <time>2021-08-02T11:52:46Z</time>
      </trkpt>
      <trkpt lat="42.28447" lon="0.20041">
        <ele>556.2</ele>
        <time>2021-08-02T11:52:48Z</time>
      </trkpt>
      <trkpt lat="42.28399" lon="0.2005">
        <ele>552.74</ele>
        <time>2021-08-02T11:52:51Z</time>
      </trkpt>
      <trkpt lat="42.28386" lon="0.20064">
        <ele>550.15</ele>
        <time>2021-08-02T11:52:52Z</time>
      </trkpt>
      <trkpt lat="42.28317" lon="0.20084">
        <ele>543.35</ele>
        <time>2021-08-02T11:52:57Z</time>
      </trkpt>
      <trkpt lat="42.28285" lon="0.20039">
        <ele>539</ele>
        <time>2021-08-02T11:53:00Z</time>
      </trkpt>
      <trkpt lat="42.28233" lon="0.19953">
        <ele>531.92</ele>
        <time>2021-08-02T11:53:05Z</time>
      </trkpt>
      <trkpt lat="42.2819" lon="0.19916">
        <ele>526.96</ele>
        <time>2021-08-02T11:53:08Z</time>
      </trkpt>
      <trkpt lat="42.28166" lon="0.19893">
        <ele>523.22</ele>
        <time>2021-08-02T11:53:10Z</time>
      </trkpt>
      <trkpt lat="42.28158" lon="0.19881">
        <ele>521.23</ele>
        <time>2021-08-02T11:53:11Z</time>
      </trkpt>
      <trkpt lat="42.28139" lon="0.19837">
        <ele>515.14</ele>
        <time>2021-08-02T11:53:14Z</time>
      </trkpt>
      <trkpt lat="42.28134" lon="0.19801">
        <ele>511.68</ele>
        <time>2021-08-02T11:53:16Z</time>
      </trkpt>
      <trkpt lat="42.28141" lon="0.19747">
        <ele>507.3</ele>
        <time>2021-08-02T11:53:19Z</time>
      </trkpt>
      <trkpt lat="42.28159" lon="0.19704">
        <ele>503.02</ele>
        <time>2021-08-02T11:53:22Z</time>
      </trkpt>
      <trkpt lat="42.28183" lon="0.19657">
        <ele>498.27</ele>
        <time>2021-08-02T11:53:26Z</time>
      </trkpt>
      <trkpt lat="42.28198" lon="0.19631">
        <ele>494.91</ele>
        <time>2021-08-02T11:53:29Z</time>
      </trkpt>
      <trkpt lat="42.28202" lon="0.19625">
        <ele>493.83</ele>
        <time>2021-08-02T11:53:30Z</time>
      </trkpt>
      <trkpt lat="42.28207" lon="0.1962">
        <ele>492.8</ele>
        <time>2021-08-02T11:53:31Z</time>
      </trkpt>
      <trkpt lat="42.28211" lon="0.19617">
        <ele>491.83</ele>
        <time>2021-08-02T11:53:32Z</time>
      </trkpt>
      <trkpt lat="42.28216" lon="0.19618">
        <ele>488.78</ele>
        <time>2021-08-02T11:53:37Z</time>
      </trkpt>
      <trkpt lat="42.28224" lon="0.19607">
        <ele>487.46</ele>
        <time>2021-08-02T11:54:00Z</time>
      </trkpt>
      <trkpt lat="42.28203" lon="0.19583">
        <ele>488.36</ele>
        <time>2021-08-02T11:54:06Z</time>
      </trkpt>
      <trkpt lat="42.2817" lon="0.19591">
        <ele>488.91</ele>
        <time>2021-08-02T11:54:09Z</time>
      </trkpt>
      <trkpt lat="42.2813" lon="0.19593">
        <ele>489.08</ele>
        <time>2021-08-02T11:54:12Z</time>
      </trkpt>
      <trkpt lat="42.28065" lon="0.19557">
        <ele>487.78</ele>
        <time>2021-08-02T11:54:17Z</time>
      </trkpt>
      <trkpt lat="42.28053" lon="0.19544">
        <ele>487.35</ele>
        <time>2021-08-02T11:54:18Z</time>
      </trkpt>
      <trkpt lat="42.28041" lon="0.19529">
        <ele>486.8</ele>
        <time>2021-08-02T11:54:19Z</time>
      </trkpt>
      <trkpt lat="42.2797" lon="0.19437">
        <ele>483.86</ele>
        <time>2021-08-02T11:54:25Z</time>
      </trkpt>
      <trkpt lat="42.27927" lon="0.19382">
        <ele>481.72</ele>
        <time>2021-08-02T11:54:29Z</time>
      </trkpt>
      <trkpt lat="42.27889" lon="0.19329">
        <ele>479.4</ele>
        <time>2021-08-02T11:54:33Z</time>
      </trkpt>
      <trkpt lat="42.27861" lon="0.19306">
        <ele>478.14</ele>
        <time>2021-08-02T11:54:37Z</time>
      </trkpt>
      <trkpt lat="42.27863" lon="0.19267">
        <ele>476.88</ele>
        <time>2021-08-02T11:54:42Z</time>
      </trkpt>
      <trkpt lat="42.27859" lon="0.19227">
        <ele>476.91</ele>
        <time>2021-08-02T11:54:46Z</time>
      </trkpt>
      <trkpt lat="42.27853" lon="0.19204">
        <ele>477.31</ele>
        <time>2021-08-02T11:54:48Z</time>
      </trkpt>
      <trkpt lat="42.27831" lon="0.19095">
        <ele>480.78</ele>
        <time>2021-08-02T11:54:55Z</time>
      </trkpt>
      <trkpt lat="42.27814" lon="0.19036">
        <ele>483.88</ele>
        <time>2021-08-02T11:54:58Z</time>
      </trkpt>
      <trkpt lat="42.27802" lon="0.18968">
        <ele>487.58</ele>
        <time>2021-08-02T11:55:01Z</time>
      </trkpt>
      <trkpt lat="42.278" lon="0.18894">
        <ele>491.79</ele>
        <time>2021-08-02T11:55:04Z</time>
      </trkpt>
      <trkpt lat="42.27804" lon="0.18846">
        <ele>494.86</ele>
        <time>2021-08-02T11:55:06Z</time>
      </trkpt>
      <trkpt lat="42.27835" lon="0.18779">
        <ele>500.49</ele>
        <time>2021-08-02T11:55:10Z</time>
      </trkpt>
      <trkpt lat="42.27864" lon="0.18744">
        <ele>504.42</ele>
        <time>2021-08-02T11:55:13Z</time>
      </trkpt>
      <trkpt lat="42.27867" lon="0.18705">
        <ele>506.95</ele>
        <time>2021-08-02T11:55:15Z</time>
      </trkpt>
      <trkpt lat="42.2787" lon="0.18609">
        <ele>511.65</ele>
        <time>2021-08-02T11:55:19Z</time>
      </trkpt>
      <trkpt lat="42.27872" lon="0.18537">
        <ele>514.98</ele>
        <time>2021-08-02T11:55:22Z</time>
      </trkpt>
      <trkpt lat="42.27873" lon="0.18494">
        <ele>516.82</ele>
        <time>2021-08-02T11:55:24Z</time>
      </trkpt>
      <trkpt lat="42.27916" lon="0.18422">
        <ele>520.83</ele>
        <time>2021-08-02T11:55:29Z</time>
      </trkpt>
      <trkpt lat="42.27957" lon="0.18395">
        <ele>523.83</ele>
        <time>2021-08-02T11:55:32Z</time>
      </trkpt>
      <trkpt lat="42.28002" lon="0.18336">
        <ele>529.09</ele>
        <time>2021-08-02T11:55:36Z</time>
      </trkpt>
      <trkpt lat="42.28023" lon="0.18303">
        <ele>532.11</ele>
        <time>2021-08-02T11:55:38Z</time>
      </trkpt>
      <trkpt lat="42.2804" lon="0.18267">
        <ele>535.43</ele>
        <time>2021-08-02T11:55:40Z</time>
      </trkpt>
      <trkpt lat="42.28055" lon="0.18231">
        <ele>539.03</ele>
        <time>2021-08-02T11:55:42Z</time>
      </trkpt>
      <trkpt lat="42.28063" lon="0.18178">
        <ele>544.28</ele>
        <time>2021-08-02T11:55:45Z</time>
      </trkpt>
      <trkpt lat="42.28053" lon="0.18149">
        <ele>547.66</ele>
        <time>2021-08-02T11:55:47Z</time>
      </trkpt>
      <trkpt lat="42.28044" lon="0.18137">
        <ele>549.32</ele>
        <time>2021-08-02T11:55:48Z</time>
      </trkpt>
      <trkpt lat="42.28024" lon="0.18111">
        <ele>552.64</ele>
        <time>2021-08-02T11:55:50Z</time>
      </trkpt>
      <trkpt lat="42.28004" lon="0.18058">
        <ele>557.62</ele>
        <time>2021-08-02T11:55:53Z</time>
      </trkpt>
      <trkpt lat="42.27992" lon="0.18017">
        <ele>560.98</ele>
        <time>2021-08-02T11:55:55Z</time>
      </trkpt>
      <trkpt lat="42.27977" lon="0.17977">
        <ele>564.48</ele>
        <time>2021-08-02T11:55:57Z</time>
      </trkpt>
      <trkpt lat="42.27962" lon="0.17935">
        <ele>567.72</ele>
        <time>2021-08-02T11:55:59Z</time>
      </trkpt>
      <trkpt lat="42.27942" lon="0.1788">
        <ele>571.71</ele>
        <time>2021-08-02T11:56:02Z</time>
      </trkpt>
      <trkpt lat="42.27938" lon="0.17824">
        <ele>576.4</ele>
        <time>2021-08-02T11:56:06Z</time>
      </trkpt>
      <trkpt lat="42.27937" lon="0.17805">
        <ele>580.15</ele>
        <time>2021-08-02T11:56:09Z</time>
      </trkpt>
      <trkpt lat="42.27927" lon="0.17786">
        <ele>583.11</ele>
        <time>2021-08-02T11:56:13Z</time>
      </trkpt>
      <trkpt lat="42.279" lon="0.17736">
        <ele>584.39</ele>
        <time>2021-08-02T11:56:20Z</time>
      </trkpt>
      <trkpt lat="42.27891" lon="0.17639">
        <ele>581.71</ele>
        <time>2021-08-02T11:56:29Z</time>
      </trkpt>
      <trkpt lat="42.27887" lon="0.17612">
        <ele>581.16</ele>
        <time>2021-08-02T11:56:32Z</time>
      </trkpt>
      <trkpt lat="42.27891" lon="0.1755">
        <ele>581.07</ele>
        <time>2021-08-02T11:56:40Z</time>
      </trkpt>
      <trkpt lat="42.27888" lon="0.17532">
        <ele>581.55</ele>
        <time>2021-08-02T11:56:43Z</time>
      </trkpt>
      <trkpt lat="42.27892" lon="0.17506">
        <ele>582.96</ele>
        <time>2021-08-02T11:56:48Z</time>
      </trkpt>
      <trkpt lat="42.27901" lon="0.17489">
        <ele>583.69</ele>
        <time>2021-08-02T11:56:51Z</time>
      </trkpt>
      <trkpt lat="42.279" lon="0.17426">
        <ele>584.74</ele>
        <time>2021-08-02T11:56:58Z</time>
      </trkpt>
      <trkpt lat="42.2789" lon="0.17413">
        <ele>585.26</ele>
        <time>2021-08-02T11:57:00Z</time>
      </trkpt>
      <trkpt lat="42.27874" lon="0.17375">
        <ele>586.28</ele>
        <time>2021-08-02T11:57:05Z</time>
      </trkpt>
      <trkpt lat="42.27845" lon="0.17224">
        <ele>589.37</ele>
        <time>2021-08-02T11:57:17Z</time>
      </trkpt>
      <trkpt lat="42.27863" lon="0.1714">
        <ele>591.43</ele>
        <time>2021-08-02T11:57:22Z</time>
      </trkpt>
      <trkpt lat="42.27891" lon="0.17089">
        <ele>593.03</ele>
        <time>2021-08-02T11:57:25Z</time>
      </trkpt>
      <trkpt lat="42.27947" lon="0.16908">
        <ele>596.66</ele>
        <time>2021-08-02T11:57:34Z</time>
      </trkpt>
      <trkpt lat="42.27979" lon="0.16802">
        <ele>599.82</ele>
        <time>2021-08-02T11:57:39Z</time>
      </trkpt>
      <trkpt lat="42.2799" lon="0.16764">
        <ele>601.26</ele>
        <time>2021-08-02T11:57:41Z</time>
      </trkpt>
      <trkpt lat="42.27994" lon="0.16636">
        <ele>606.35</ele>
        <time>2021-08-02T11:57:47Z</time>
      </trkpt>
      <trkpt lat="42.27995" lon="0.16593">
        <ele>607.5</ele>
        <time>2021-08-02T11:57:49Z</time>
      </trkpt>
      <trkpt lat="42.28017" lon="0.16468">
        <ele>611.23</ele>
        <time>2021-08-02T11:57:55Z</time>
      </trkpt>
      <trkpt lat="42.28032" lon="0.16388">
        <ele>613.95</ele>
        <time>2021-08-02T11:57:59Z</time>
      </trkpt>
    </trkseg>
  </trk>
</gpx>